     2              OBSERVATION DATA    GPS                 RINEX VERSION / TYPE
teqc 2000Feb29 Duncan Agnew 20000707 21:02:19UTC            PGM / RUN BY / DATE
                                                            COMMENT
L2: 1 -> 1; 5 -> 5; 60 -> 9                                 COMMENT
L2: 1 -> 1; 5 -> 5; 60 -> 9                                 COMMENT
L2: 1 -> 1; 5 -> 5; 60 -> 9                                 COMMENT
L2: 1 -> 1; 5 -> 5; 60 -> 9                                 COMMENT
L2: 1 -> 1; 5 -> 5; 60 -> 9                                 COMMENT
Original Marker Name: 3426                                  COMMENT
Campaign Name: USMC MCAGCC                                  COMMENT
4-Character Station Name: ANT_                              COMMENT
6-Character Antenna Code: TRMSST                            COMMENT
Vertical Measurement Point: BGP                             COMMENT
Vertical Offset to Rinex Ref. Point: 0.0597                 COMMENT
Radial Measurement Point: NGP                               COMMENT
Radial Offset to Rinex Ref. Point: 0.2334                   COMMENT
Antenna Height from Field Measurement: 1.3240 m             COMMENT
Additional Antenna Identification Info.:                    COMMENT
Model 14532.00                                              COMMENT
Original XYZ: -2339445.5225 -4715333.8482 3591072.0211      COMMENT
New XYZ position is based on association with SCEC monument COMMENT
E1F2H5W2+0011. Position of that monument is believed to be  COMMENT
valid to within 1 m horizontally; vertical accuracy         COMMENT
should be no worse than 3-times this value.                 COMMENT
                                                            COMMENT
Revised Rinex header created by UCSD GPS archive for        COMMENT
GSAC on 10-Aug-2000 (2000:223) 22:20:23 GMT                 COMMENT
For assistance contact dagnew@ucsd.edu                      COMMENT
or anderson@python.ucsd.edu                                 COMMENT
                                                            COMMENT
S.C.P. ANT 1ST SURVEY F.A.G. 6 DEC 78                       MARKER NAME
____0001                                                    MARKER NUMBER
-Unknown- 11TH ARTILLERY US MARINE CORPS                    OBSERVER / AGENCY
23426 TRIMBLE MSGR NP 7.57; SP 3.53                         REC # / TYPE / VERS
S/N UNKNOWN TR 4000SST L1/L2 GEO                            ANT # / TYPE
 -2339443.9805 -4715335.0152  3591074.2352                  APPROX POSITION XYZ
        1.2436        0.0000        0.0000                  ANTENNA: DELTA H/E/N
     1     1     0                                          WAVELENGTH FACT L1/2
     6    L1    L2    P1    P2    S1    S2                  # / TYPES OF OBSERV
     0                                                      INTERVAL
  1999     3     8    18    30    0.000000                  TIME OF FIRST OBS
  1999     3     8    20    31    0.000000                  TIME OF LAST OBS
                                                            END OF HEADER
 99  3  8 18 30  0.0000000  0  7G 2G 7G13G15G19G26G27
    -42080.04617    -32790.47616  21192711.672    21192718.156          21.250
        21.000
  -1492316.83516  -1161281.12116  20836458.555    20836465.148          19.500
        23.500
   2415722.90215   1882377.50516  22637386.664    22637394.082          11.750
        14.000
   -492894.94914   -376268.73115  23565433.875    23565445.418           7.000
         7.250
   2398019.03215   1855446.75315  23553352.453    23553363.277           7.500
         8.750
  -1267199.82215   -987429.08115  23079488.750    23079496.750           9.500
        11.750
    570268.92016    444364.33216  20442366.273    20442372.422          19.500
        22.750
 99  3  8 18 30 15.0000000  0  7G 2G 7G13G15G19G26G27
    -42018.278 7    -32742.361 6  21192723.422    21192729.961          21.250
        21.000
  -1516704.359 6  -1180284.374 6  20831817.836    20831824.543          19.500
        23.250
   2461568.124 5   1918100.981 6  22646111.078    22646118.215          11.750
        14.000
   -498324.487 4   -380499.544 5  23564400.625    23564411.980           7.000
         7.000
   2443344.731 5   1890765.362 5  23561977.539    23561988.512           7.500
         8.750
  -1287059.161 5  -1002903.918 6  23075709.414    23075717.473           9.500
        12.250
    583838.177 6    454937.758 6  20444948.445    20444954.531          19.500
        22.750
 99  3  8 18 30 30.0000000  0  7G 2G 7G13G15G19G26G27
    -41934.432 7    -32677.050 6  21192739.406    21192745.906          21.250
        21.000
  -1540987.934 6  -1199206.633 6  20827196.883    20827203.594          19.500
        23.250
   2507460.707 6   1953861.365 6  22654844.242    22654851.199          12.000
        13.500
   -503625.826 4   -384630.465 5  23563392.055    23563403.039           7.250
         6.750
   2488719.147 4   1926121.941 5  23570612.039    23570623.402           7.250
         8.750
  -1306794.618 5  -1018282.211 6  23071953.875    23071962.574           9.250
        12.750
    597517.299 6    465596.781 6  20447551.586    20447557.723          19.750
        22.750
 99  3  8 18 30 45.0000000  0  7G 2G 7G13G15G19G26G27
    -41824.780 7    -32591.631 6  21192760.453    21192766.949          21.500
        21.000
  -1565164.639 6  -1218045.619 6  20822596.359    20822602.844          19.250
        23.000
   2553407.146 6   1989663.702 6  22663587.578    22663594.449          12.000
        13.500
   -508795.243 4   -388658.594 5  23562408.742    23562419.109           7.250
         6.750
   2534143.808 4   1961517.657 5  23579255.688    23579267.383           6.750
         9.000
  -1326407.649 5  -1033565.102 6  23068221.625    23068229.762           9.500
        12.250
    611310.398 6    476344.626 6  20450176.234    20450182.445          19.500
        23.000
 99  3  8 18 31  0.0000000  0  7G 2G 7G13G15G19G26G27
    -41691.611 7    -32487.882 6  21192785.695    21192792.063          21.500
        21.000
  -1589232.869 6  -1236800.072 6  20818016.148    20818022.770          19.250
        23.000
   2599406.715 6   2025507.454 6  22672340.961    22672347.918          12.000
        13.250
   -513834.007 4   -392584.940 5  23561449.688    23561460.316           7.250
         6.750
   2579617.584 4   1996951.638 5  23587909.563    23587921.008           7.250
         9.000
  -1345903.714 5  -1048756.845 5  23064511.266    23064519.773           9.500
        11.750
    625213.007 6    487177.800 6  20452821.797    20452828.035          19.500
        23.000
 99  3  8 18 31 15.0000000  0  7G 2G 7G13G15G19G26G27
    -41534.438 7    -32365.432 6  21192815.617    21192822.086          21.500
        21.000
  -1613188.321 6  -1255466.652 6  20813457.508    20813464.289          19.000
        23.000
   2645460.063 6   2061393.096 6  22681104.578    22681111.602          12.000
        13.250
   -518741.114 4   -396408.664 5  23560515.844    23560526.309           7.250
         6.750
   2625143.602 5   2032426.339 5  23596573.453    23596584.496           7.500
         9.000
  -1365287.054 5  -1063860.768 5  23060823.844    23060830.805          10.000
        11.250
    639226.326 6    498097.243 6  20455488.422    20455494.691          19.500
        23.000
 99  3  8 18 31 30.0000000  0  7G 2G 7G13G15G19G26G27
    -41362.615 7    -32231.561 6  21192848.258    21192854.676          21.500
        21.000
  -1637038.445 6  -1274051.155 6  20808919.148    20808925.867          19.000
        23.250
   2691559.382 6   2097314.569 6  22689876.875    22689884.203          12.000
        13.250
   -523523.887 4   -400135.525 5  23559605.844    23559616.328           7.250
         6.750
   2670714.426 4   2067935.946 5  23605245.102    23605256.461           7.250
         8.750
  -1384563.348 5  -1078881.263 5  23057154.805    23057162.074          10.000
        11.000
    653347.789 6    509100.946 6  20458175.719    20458181.980          19.500
        23.000
 99  3  8 18 31 45.0000000  0  7G 2G 7G13G15G19G26G27
    -41170.693 7    -32082.030 6  21192884.828    21192891.258          21.500
        21.000
  -1660778.972 6  -1292550.254 6  20804401.398    20804408.316          19.250
        23.250
   2737712.645 6   2133278.074 6  22698659.773    22698667.027          12.250
        13.250
   -528175.560 4   -403760.211 5  23558720.734    23558731.195           7.250
         6.750
   2716337.853 4   2103486.547 5  23613927.055    23613938.191           7.000
         8.750
  -1403726.836 5  -1093813.855 5  23053508.711    23053516.004          10.000
        11.000
    667584.378 6    520194.360 6  20460884.945    20460891.164          19.500
        23.250
 99  3  8 18 32  0.0000000  0  7G 2G 7G13G15G19G26G27
    -40961.422 7    -31918.976 6  21192924.656    21192931.199          21.500
        21.000
  -1684410.721 6  -1310964.597 6  20799904.305    20799911.270          18.750
        23.500
   2783917.421 6   2169281.722 6  22707452.547    22707459.648          12.250
        13.250
   -532697.896 4   -407284.129 5  23557860.078    23557870.777           7.250
         6.750
   2762013.038 4   2139077.484 5  23622618.570    23622630.172           6.750
         8.750
  -1422781.170 5  -1108661.393 5  23049882.242    23049889.684          10.250
        10.750
    681933.665 6    531375.597 6  20463615.563    20463621.797          19.750
        23.250
 99  3  8 18 32 15.0000000  0  7G 2G 7G13G15G19G26G27
    -40730.444 7    -31739.014 6  21192968.516    21192975.047          21.000
        21.000
  -1707930.227 6  -1329291.473 6  20795428.797    20795435.543          19.250
        23.500
   2830175.051 6   2205326.549 6  22716255.289    22716262.242          12.500
        13.000
   -537087.189 4   -410704.383 5  23557024.672    23557035.383           7.250
         6.750
   2807743.163 4   2174711.223 5  23631321.273    23631332.832           7.000
         9.000
  -1441720.971 5  -1123419.680 5  23046279.180    23046286.340          11.250
        11.500
    696400.583 6    542648.488 6  20466368.547    20466374.719          19.750
        23.250
 99  3  8 18 32 30.0000000  0  7G 2G 7G13G15G19G26G27
    -40479.795 7    -31543.717 6  21193016.047    21193022.824          21.000
        21.000
  -1731342.165 6  -1347534.534 6  20790973.664    20790980.367          19.250
        23.500
   2876482.302 6   2241410.049 6  22725067.102    22725074.297          12.500
        13.000
   -541346.582 4   -414023.411 5  23556214.078    23556224.941           7.250
         6.750
   2853522.659 5   2210383.427 5  23640033.500    23640044.262           7.500
         9.000
  -1460548.248 5  -1138090.289 5  23042696.484    23042703.387          11.500
        11.250
    710980.878 6    554009.725 6  20469143.148    20469149.313          19.750
        23.000
 99  3  8 18 32 45.0000000  0  7G 2G 7G13G15G19G26G27
    -40201.992 7    -31327.263 6  21193068.852    21193075.664          21.000
        21.000
  -1754644.719 6  -1365692.357 6  20786539.227    20786545.973          19.250
        23.250
   2922840.785 6   2277533.467 6  22733888.906    22733896.055          12.500
        12.750
   -545473.242 4   -417239.016 5  23555428.930    23555439.656           7.250
         6.750
   2899356.041 5   2246097.632 5  23648754.828    23648765.887           7.500
         8.750
  -1479259.873 5  -1152670.765 5  23039135.477    23039142.766          11.000
        11.500
    725673.537 6    565458.519 6  20471939.086    20471945.199          19.750
        23.000
 99  3  8 18 33  0.0000000  0  7G 2G 7G13G15G19G26G27
    -39898.566 7    -31090.839 6  21193126.727    21193133.492          21.000
        21.000
  -1777841.815 6  -1383768.009 6  20782124.891    20782131.570          19.000
        23.250
   2969247.170 6   2313694.206 6  22742719.547    22742726.730          12.500
        12.500
   -549469.135 4   -420352.711 5  23554668.508    23554679.480           7.250
         7.000
   2945242.008 5   2281852.811 5  23657486.727    23657497.949           7.500
         8.750
  -1497855.018 5  -1167160.492 5  23035596.813    23035604.223          11.000
        11.500
    740475.433 6    576992.434 6  20474755.930    20474762.035          19.750
        22.750
 99  3  8 18 33 15.0000000  0  7G 2G 7G13G15G19G26G27
    -39563.447 7    -30829.719 6  21193190.523    21193197.320          20.250
        20.750
  -1800930.065 6  -1401758.844 6  20777731.594    20777738.152          19.000
        23.500
   3015705.709 6   2349895.585 6  22751560.375    22751567.586          12.500
        12.500
   -553327.496 4   -423359.252 5  23553934.469    23553945.613           7.250
         6.750
   2991186.431 4   2317653.511 5  23666229.281    23666240.770           6.750
         8.250
  -1516324.454 5  -1181552.274 5  23032082.258    23032089.500          11.500
        11.500
    755392.587 6    588616.166 6  20477594.336    20477600.559          19.500
        22.750
 99  3  8 18 33 30.0000000  0  7G 2G 7G13G15G19G26G27
    -39204.127 7    -30549.746 6  21193259.047    21193265.762          20.250
        20.500
  -1823922.079 6  -1419674.691 6  20773356.336    20773363.098          19.250
        23.500
   3062206.766 6   2386130.103 6  22760409.352    22760416.633          12.500
        12.250
   -557057.330 4   -426265.629 5  23553224.586    23553235.730           7.250
         6.750
   3037178.651 4   2353491.505 5  23674982.047    23674992.793           7.250
         8.000
  -1534676.527 5  -1195852.589 6  23028590.281    23028597.590          11.750
        12.000
    770415.462 6    600322.266 6  20480453.086    20480459.328          19.250
        22.500
 99  3  8 18 33 45.0000000  0  7G 2G 7G13G15G19G26G27
    -38823.762 7    -30253.371 6  21193331.383    21193338.039          20.750
        20.250
  -1846820.817 6  -1437517.860 6  20768998.820    20769005.531          19.500
        23.750
   3108750.528 6   2422397.890 6  22769266.539    22769273.641          12.500
        12.250
   -560660.851 4   -429073.588 5  23552538.523    23552549.688           6.500
         6.750
   3083214.165 4   2389363.201 5  23683741.992    23683752.938           7.000
         8.000
  -1552912.234 6  -1210062.226 5  23025120.289    23025127.105          12.000
        11.750
    785536.977 6    612105.233 6  20483330.672    20483336.816          19.250
        22.250
 99  3  8 18 34  0.0000000  0  7G 2G 7G13G15G19G26G27
    -38418.019 7    -29937.220 6  21193408.680    21193415.328          21.000
        20.250
  -1869618.506 6  -1455282.281 6  20764660.523    20764667.125          19.500
        23.750
   3155344.290 6   2458704.630 6  22778133.180    22778140.176          12.500
        12.000
   -564133.343 4   -431779.459 5  23551877.750    23551889.066           6.500
         6.750
   3129294.007 5   2425269.448 5  23692511.242    23692522.324           7.500
         8.250
  -1571029.454 5  -1224179.537 5  23021672.266    23021679.121          11.750
        11.250
    800758.457 6    623966.104 6  20486227.102    20486233.383          18.750
        22.500
 99  3  8 18 34 15.0000000  0  7G 2G 7G13G15G19G26G27
    -37992.125 7    -29605.373 6  21193489.852    21193496.332          20.750
        20.500
  -1892320.718 6  -1472972.310 6  20760340.516    20760347.047          19.250
        23.750
   3201983.625 6   2495046.899 5  22787008.328    22787015.336          12.750
        11.750
   -567480.488 4   -434387.661 5  23551240.742    23551252.102           6.750
         7.250
   3175410.037 4   2461203.878 5  23701286.633    23701298.270           7.250
         8.750
  -1589034.807 5  -1238209.683 5  23018246.516    23018252.930          11.750
        11.750
    816076.092 6    635901.889 6  20489142.047    20489148.219          19.500
        22.000
 99  3  8 18 34 30.0000000  0  7G 2G 7G13G15G19G26G27
    -37539.905 7    -29253.001 6  21193575.922    21193582.430          21.250
        20.250
  -1914924.717 6  -1490585.809 6  20756039.133    20756045.820          19.750
        24.000
   3248677.308 6   2531431.511 5  22795893.727    22795901.082          12.750
        11.750
   -570696.385 5   -436893.571 5  23550629.742    23550640.066           7.500
         6.750
   3221566.323 4   2497169.700 5  23710070.117    23710081.910           6.750
         8.500
  -1606923.365 5  -1252148.817 6  23014842.289    23014849.359          11.500
        12.250
    831496.568 6    647917.814 6  20492076.445    20492082.766          18.750
        22.750
 99  3  8 18 34 45.0000000  0  7G 2G 7G13G15G19G26G27
    -37052.711 7    -28873.392 6  21193668.609    21193675.004          21.750
        21.000
  -1937426.058 6  -1508119.316 6  20751757.250    20751763.934          19.750
        24.250
   3295430.329 6   2567862.351 5  22804790.742    22804797.910          12.500
        11.750
   -573773.565 4   -439291.397 5  23550044.133    23550054.824           7.250
         7.250
   3267772.070 4   2533174.022 5  23718862.453    23718874.191           6.750
         8.250
  -1624685.434 5  -1265989.381 6  23011461.992    23011470.113          11.250
        13.250
    847028.877 6    660020.881 6  20495032.258    20495038.477          19.250
        22.750
 99  3  8 18 35  0.0000000  0  7G 2G 7G13G15G19G26G27
    -36537.419 7    -28471.876 6  21193766.766    21193773.105          21.750
        21.000
  -1959828.289 6  -1525575.593 6  20747494.172    20747500.945          19.750
        24.500
   3342235.958 6   2604334.198 5  22813697.672    22813705.004          12.500
        11.750
   -576717.614 4   -441585.480 5  23549483.711    23549494.641           7.250
         7.250
   3314024.865 4   2569215.054 5  23727664.492    23727675.770           6.750
         7.750
  -1642324.846 5  -1279734.394 6  23008105.531    23008113.516          11.250
        13.000
    862668.242 6    672207.370 6  20498008.422    20498014.672          19.250
        22.750
 99  3  8 18 35 15.0000000  0  7G 2G 7G13G15G19G26G27
    -35991.668 7    -28046.636 6  21193870.672    21193876.984          22.000
        20.500
  -1982125.835 6  -1542950.295 6  20743250.945    20743257.766          19.500
        24.500
   3389095.850 6   2640848.315 5  22822615.008    22822622.395          12.500
        11.500
   -579525.230 5   -443773.266 5  23548949.648    23548960.020           7.500
         6.750
   3360326.583 4   2605294.194 5  23736475.680    23736486.773           7.250
         7.750
  -1659839.483 5  -1293382.175 6  23004772.016    23004779.891          11.500
        12.500
    878419.877 6    684481.346 6  20501005.953    20501012.121          19.500
        22.750
 99  3  8 18 35 30.0000000  0  7G 2G 7G13G15G19G26G27
    -35413.347 7    -27596.007 6  21193980.703    21193987.059          21.500
        20.750
  -2004313.340 6  -1560239.253 6  20739028.992    20739035.684          19.500
        24.250
   3436010.831 6   2677405.368 5  22831542.648    22831550.102          12.250
        11.500
   -582195.013 4   -445853.650 5  23548441.414    23548452.141           7.250
         6.750
   3406678.806 4   2641412.680 5  23745296.711    23745307.523           7.250
         8.000
  -1677230.485 5  -1306933.616 6  23001463.320    23001471.066          11.250
        12.500
    894283.647 6    696842.692 6  20504024.633    20504030.969          19.500
        22.750
 99  3  8 18 35 45.0000000  0  7G 2G 7G13G15G19G26G27
    -34802.736 7    -27120.221 6  21194096.805    21194103.195          21.500
        20.250
  -2026386.840 6  -1577439.375 6  20734828.570    20734835.387          19.750
        24.500
   3482980.027 5   2714004.646 5  22840480.508    22840487.750          11.750
        11.250
   -584727.714 4   -447827.204 5  23547959.695    23547970.387           6.750
         6.750
   3453079.505 4   2677568.944 5  23754125.875    23754137.621           6.750
         8.250
  -1694495.942 5  -1320387.222 6  22998177.766    22998184.707          11.250
        12.250
    910261.005 6    709292.555 6  20507065.125    20507071.371          19.500
        23.000
 99  3  8 18 36  0.0000000  0  7G 2G 7G13G15G19G26G27
    -34158.148 7    -26617.955 6  21194219.414    21194226.012          21.500
        20.500
  -2048342.143 6  -1594547.396 6  20730650.500    20730657.285          19.750
        24.500
   3530004.963 5   2750647.380 5  22849428.938    22849436.328          11.750
        11.250
   -587120.702 4   -449691.907 5  23547504.117    23547514.695           7.250
         6.750
   3499531.930 4   2713765.502 5  23762964.820    23762977.625           6.250
         8.250
  -1711632.357 5  -1333740.275 6  22994916.656    22994924.273          11.500
        12.500
    926357.563 6    721835.301 6  20510128.164    20510134.480          19.250
        23.000
 99  3  8 18 36 15.0000000  0  7G 2G 7G13G15G19G26G27
    -33484.148 7    -26092.778 6  21194347.820    21194354.367          21.750
        21.000
  -2070184.377 6  -1611567.311 6  20726494.133    20726500.793          19.750
        24.000
   3577075.375 5   2787325.546 5  22858386.398    22858393.727          11.750
        11.250
   -589378.780 4   -451451.476 5  23547074.344    23547085.012           7.000
         7.000
   3546034.996 4   2750001.504 5  23771814.742    23771826.563           6.500
         8.250
  -1728645.596 5  -1346997.340 6  22991679.648    22991686.918          11.750
        13.000
    942572.566 6    734470.336 6  20513213.727    20513220.145          19.500
        23.000
 99  3  8 18 36 30.0000000  0  7G 2G 7G13G15G19G26G27
    -32779.890 7    -25544.022 6  21194481.820    21194488.297          21.750
        21.250
  -2091915.571 7  -1628500.700 6  20722358.859    20722365.453          20.000
        24.000
   3624188.649 5   2824037.101 5  22867351.828    22867359.176          11.750
        11.250
   -591500.924 4   -453105.121 5  23546670.469    23546681.133           7.000
         7.000
   3592592.242 4   2786279.750 5  23780674.820    23780686.367           7.000
         8.000
  -1745532.183 5  -1360155.732 6  22988465.570    22988473.215          11.000
        12.750
    958907.883 6    747199.126 6  20516322.242    20516328.535          19.250
        23.000
 99  3  8 18 36 45.0000000  0  7G 2G 7G13G15G19G26G27
    -32045.394 7    -24971.705 6  21194621.539    21194628.043          22.000
        21.250
  -2113533.534 7  -1645345.865 6  20718245.094    20718251.867          20.000
        23.750
   3671341.742 5   2860779.689 5  22876324.797    22876332.609          11.500
        11.000
   -593486.956 4   -454652.708 5  23546292.250    23546303.074           6.750
         7.000
   3639202.587 4   2822599.380 5  23789544.797    23789555.879           7.250
         7.750
  -1762288.768 5  -1373212.816 6  22985276.414    22985284.773          10.250
        12.750
    975362.728 6    760021.050 6  20519453.453    20519459.961          19.250
        23.000
 99  3  8 18 37  0.0000000  0  7G 2G 7G13G15G19G26G27
    -31275.017 7    -24371.427 6  21194768.211    21194774.617          21.750
        21.250
  -2135027.003 7  -1662094.017 6  20714155.008    20714161.762          20.000
        24.000
   3718540.145 5   2897557.585 5  22885306.258    22885314.137          11.250
        11.250
   -595331.371 4   -456089.936 5  23545941.320    23545952.285           7.000
         7.000
   3685871.399 4   2858964.559 5  23798425.375    23798436.719           7.250
         7.750
  -1778911.257 5  -1386165.430 6  22982112.984    22982121.570          10.000
        12.750
    991942.147 6    772940.049 6  20522608.430    20522614.883          19.000
        23.000
 99  3  8 18 37 15.0000000  0  7G 2G 7G13G15G19G26G27
    -30472.013 7    -23745.723 6  21194920.922    21194927.469          21.750
        21.250
  -2156396.659 7  -1678745.694 6  20710088.461    20710095.176          20.000
        23.750
   3765781.259 5   2934368.756 5  22894296.047    22894303.660          11.000
        11.000
   -597037.560 4   -457419.457 5  23545616.797    23545627.613           7.000
         6.750
   3732589.361 4   2895368.025 5  23807315.469    23807327.148           6.750
         8.000
  -1795406.355 5  -1399018.758 6  22978974.508    22978982.273          10.500
        12.750
   1008642.235 6    785953.072 6  20525786.383    20525792.875          19.000
        22.750
 99  3  8 18 37 30.0000000  0  7G 2G 7G13G15G19G26G27
    -29628.101 7    -23088.145 6  21195081.477    21195088.199          21.500
        21.250
  -2177639.706 6  -1695298.712 6  20706046.000    20706052.773          19.750
        24.000
   3813073.159 5   2971219.499 5  22903295.430    22903302.828          10.750
        10.750
   -598598.736 4   -458635.986 5  23545319.813    23545330.457           7.250
         7.000
   3779359.656 4   2931812.278 5  23816215.789    23816227.965           6.750
         8.250
  -1811768.425 5  -1411768.442 6  22975861.094    22975869.191          10.500
        13.000
   1025472.489 6    799067.523 6  20528989.133    20528995.484          19.000
        22.750
 99  3  8 18 37 45.0000000  0  7G 2G 7G13G15G19G26G27
    -28744.920 7    -22399.967 6  21195249.406    21195256.199          21.500
        21.500
  -2198759.717 6  -1711755.859 6  20702026.898    20702033.801          19.500
        24.000
   3860415.499 5   3008109.549 5  22912304.555    22912311.844          10.500
        10.500
   -600017.411 5   -459741.475 5  23545050.414    23545060.707           7.750
         7.000
   3826180.592 4   2968295.976 5  23825125.188    23825137.508           6.750
         8.500
  -1827996.294 5  -1424413.540 6  22972773.203    22972781.094          10.750
        13.250
   1042431.782 6    812282.525 6  20532216.539    20532222.848          19.250
        22.750
 99  3  8 18 38  0.0000000  0  7G 2G 7G13G15G19G26G27
    -27819.012 7    -21678.489 6  21195425.688    21195432.551          21.500
        21.250
  -2219753.790 6  -1728114.867 6  20698031.813    20698038.531          19.500
        24.000
   3907812.810 5   3045042.433 5  22921324.023    22921331.461          10.250
        10.500
   -601288.785 5   -460732.194 5  23544809.133    23544819.180           8.000
         7.250
   3873058.111 4   3004823.777 5  23834046.328    23834058.305           7.250
         8.250
  -1844086.003 5  -1436950.976 6  22969711.500    22969719.707          11.000
        13.750
   1059527.560 6    825603.873 6  20535469.680    20535475.934          19.500
        22.750
 99  3  8 18 38 15.0000000  0  7G 2G 7G13G15G19G26G27
    -26853.279 7    -20925.988 6  21195609.500    21195616.387          21.250
        21.500
  -2240626.041 6  -1744378.955 6  20694059.977    20694066.785          19.500
        24.000
   3955261.147 5   3082015.073 5  22930353.172    22930360.805           9.750
        10.500
   -602414.829 5   -461609.645 5  23544594.711    23544605.043           8.000
         7.250
   3919993.471 5   3041396.660 5  23842978.305    23842989.555           7.500
         8.000
  -1860043.082 5  -1449385.069 6  22966675.156    22966682.449          11.000
        12.750
   1076754.100 6    839027.123 6  20538747.820    20538754.090          19.500
        22.750
 99  3  8 18 38 30.0000000  0  7G 2G 7G13G15G19G26G27
    -25849.572 7    -20143.893 6  21195800.539    21195807.477          21.250
        21.250
  -2261380.376 6  -1760551.159 6  20690110.609    20690117.422          19.500
        23.750
   4002759.265 5   3119026.506 5  22939391.656    22939399.559           9.500
        10.500
   -603397.626 5   -462375.509 5  23544407.711    23544418.363           8.000
         7.500
   3966982.817 4   3078011.596 5  23851920.016    23851931.395           7.250
         7.750
  -1875868.101 5  -1461716.254 6  22963663.773    22963670.715          11.000
        12.000
   1094106.526 6    852548.455 6  20542050.047    20542056.285          19.750
        22.250
 99  3  8 18 38 45.0000000  0  7G 2G 7G13G15G19G26G27
    -24811.239 7    -19334.814 6  21195998.125    21196004.961          21.250
        21.250
  -2282021.331 6  -1776635.008 6  20686182.797    20686189.594          19.750
        23.750
   4050304.854 5   3156074.928 5  22948439.414    22948447.348           9.500
        10.500
   -604241.289 5   -463032.946 5  23544247.297    23544257.586           8.250
         7.250
   4014018.356 4   3114662.530 5  23860869.664    23860882.020           6.500
         7.750
  -1891563.358 5  -1473946.319 5  22960677.461    22960683.770          11.500
        11.750
   1111579.387 6    866163.638 6  20545375.234    20545381.281          19.750
        22.250
 99  3  8 18 39  0.0000000  0  7G 2G 7G13G15G19G26G27
    -23732.891 7    -18494.562 6  21196203.219    21196210.020          21.250
        21.250
  -2302543.113 7  -1792626.002 6  20682277.453    20682284.043          20.000
        23.500
   4097903.576 5   3193164.754 5  22957497.234    22957505.293           9.250
        10.500
   -604940.596 5   -463577.887 5  23544113.969    23544124.500           8.000
         7.250
   4061106.528 4   3151354.480 5  23869830.859    23869843.145           6.500
         8.250
  -1907124.749 5  -1486072.079 5  22957715.641    22957722.707          11.250
        11.750
   1129178.349 6    879877.082 6  20548724.141    20548730.234          19.750
        22.250
 99  3  8 18 39 15.0000000  0  7G 2G 7G13G15G19G26G27
    -22610.906 7    -17620.307 6  21196416.938    21196423.660          21.250
        21.250
  -2322943.250 7  -1808522.214 6  20678395.695    20678402.266          20.000
        23.250
   4145560.716 5   3230300.091 5  22966566.289    22966574.113           9.250
        10.500
   -605490.140 5   -464006.135 5  23544009.672    23544019.852           8.000
         7.500
   4108254.599 4   3188093.068 5  23878803.320    23878815.633           6.750
         9.000
  -1922548.926 5  -1498090.915 6  22954779.992    22954787.625          10.250
        12.000
   1146907.363 6    893691.866 6  20552097.727    20552103.984          19.750
        22.250
 99  3  8 18 39 30.0000000  0  7G 2G 7G13G15G19G26G27
    -21439.700 7    -16707.699 6  21196639.945    21196646.563          21.500
        21.250
  -2343221.510 7  -1824323.454 6  20674536.914    20674543.340          20.000
        23.000
   4193280.876 5   3267484.545 5  22975647.305    22975654.984           9.250
        10.250
   -605883.326 5   -464312.553 5  23543934.750    23543945.137           8.250
         7.250
   4155472.211 4   3224885.873 5  23887789.078    23887801.438           7.250
         9.250
  -1937828.004 5  -1509996.708 6  22951872.500    22951880.512          10.000
        12.500
   1164773.596 6    907613.569 6  20555497.625    20555503.891          19.750
        22.250
 99  3  8 18 39 45.0000000  0  7G 2G 7G13G15G19G26G27
    -20230.462 7    -15765.452 6  21196869.930    21196876.625          21.500
        21.000
  -2363387.950 7  -1840037.562 6  20670699.352    20670705.703          20.000
        23.000
   4241053.608 5   3304709.952 5  22984738.094    22984745.785           9.000
        10.250
   -606129.399 5   -464504.338 5  23543887.797    23543898.203           8.250
         7.250
   4202755.754 4   3261730.056 5  23896786.781    23896798.770           7.250
         8.750
  -1952968.927 5  -1521794.844 6  22948990.867    22948999.621          10.250
        13.250
   1182765.609 6    921633.290 6  20558921.500    20558927.566          19.750
        22.000
 99  3  8 18 40  0.0000000  0  7G 2G 7G13G15G19G26G27
    -18986.400 7    -14796.075 6  21197106.859    21197113.457          21.500
        21.000
  -2383441.467 7  -1855663.683 6  20666883.242    20666889.758          20.000
        23.250
   4288877.521 5   3341975.249 5  22993838.992    22993846.629           9.000
        10.250
   -606227.681 5   -464580.950 5  23543869.031    23543879.738           8.000
         7.500
   4250106.417 4   3298626.527 5  23905796.570    23905809.109           6.500
         8.000
  -1967972.639 5  -1533486.057 6  22946136.969    22946144.180          11.000
        13.250
   1200883.267 6    935750.917 6  20562369.203    20562375.324          19.750
        22.000
 99  3  8 18 40 15.0000000  0  7G 2G 7G13G15G19G26G27
    -17710.891 7    -13802.186 6  21197349.422    21197356.055          21.500
        21.000
  -2403387.507 6  -1871206.044 6  20663087.250    20663094.063          19.750
        23.500
   4336749.089 5   3379277.683 5  23002948.656    23002956.359           9.000
        10.250
   -606179.572 5   -464543.497 5  23543878.383    23543888.691           8.000
         7.500
   4297520.557 3   3335572.477 5  23914819.375    23914831.387           6.000
         7.750
  -1982843.671 5  -1545073.870 6  22943307.531    22943314.770          11.750
        13.500
   1219123.526 6    949964.069 6  20565840.109    20565846.336          19.750
        22.000
 99  3  8 18 40 30.0000000  0  7G 2G 7G13G15G19G26G27
    -16405.825 7    -12785.277 6  21197597.836    21197604.422          21.750
        20.750
  -2423230.045 6  -1886667.757 6  20659311.367    20659318.059          19.500
        23.500
   4384664.363 5   3416614.165 5  23012066.484    23012074.543           8.750
        10.250
   -605988.436 5   -464394.591 5  23543914.508    23543925.367           8.000
         7.500
   4344990.901 4   3372562.197 5  23923852.852    23923865.234           6.250
         8.000
  -1997584.988 5  -1556560.606 6  22940501.672    22940510.000          11.000
        14.250
   1237483.889 6    964270.814 6  20569334.008    20569340.137          19.750
        22.000
 99  3  8 18 40 45.0000000  0  7G 2G 7G13G15G19G26G27
    -15070.934 7    -11745.117 6  21197852.016    21197858.383          21.750
        20.750
  -2442968.244 6  -1902048.168 6  20655555.508    20655562.246          19.500
        23.750
   4432623.192 5   3453984.590 5  23021192.695    23021200.496           8.750
        10.250
   -605654.654 5   -464134.546 5  23543977.766    23543989.070           7.750
         7.500
   4392514.556 4   3409593.473 5  23932896.914    23932909.027           6.750
         8.500
  -2012195.292 5  -1567945.269 6  22937720.680    22937729.422          10.250
        14.000
   1255967.367 6    978673.499 6  20572851.289    20572857.441          19.750
        22.000
 99  3  8 18 41  0.0000000  0  7G 2G 7G13G15G19G26G27
    -13710.697 7    -10685.214 6  21198110.992    21198117.375          21.750
        20.500
  -2462605.100 6  -1917349.608 6  20651818.672    20651825.688          19.250
        24.250
   4480619.516 5   3491384.228 5  23030326.461    23030334.121           8.750
        10.250
   -605182.027 5   -463766.316 5  23544067.750    23544078.973           7.750
         7.500
   4440089.047 4   3446664.364 5  23941950.063    23941962.953           6.750
         9.000
  -2026681.490 5  -1579233.251 6  22934964.523    22934972.883          10.750
        14.000
   1274570.574 7    993169.466 6  20576391.648    20576397.758          20.000
        22.000
 99  3  8 18 41 15.0000000  0  7G 2G 7G13G15G19G26G27
    -12321.559 7     -9602.783 6  21198375.383    21198381.688          22.000
        20.500
  -2482136.845 6  -1932569.140 6  20648102.211    20648109.020          19.250
        24.250
   4528654.802 5   3528814.223 5  23039467.391    23039475.078           8.750
        10.250
   -604568.176 5   -463288.026 5  23544184.641    23544195.777           7.500
         7.500
   4487718.092 4   3483777.749 5  23951013.547    23951026.148           6.500
         8.750
  -2041044.427 5  -1590425.149 6  22932231.750    22932239.164          11.500
        13.250
   1293293.897 7   1007759.034 6  20579954.391    20579960.688          20.000
        22.250
 99  3  8 18 41 30.0000000  0  7G 2G 7G13G15G19G26G27
    -10898.181 7     -8493.681 6  21198646.180    21198652.535          22.000
        20.500
  -2501558.516 6  -1947702.902 6  20644406.188    20644413.125          19.250
        24.250
   4576732.886 5   3566277.575 5  23048616.242    23048624.180           8.750
        10.500
   -603807.993 5   -462695.728 5  23544329.492    23544340.328           7.750
         7.500
   4535403.448 3   3520935.009 5  23960087.430    23960100.148           6.000
         8.000
  -2055279.831 5  -1601517.656 6  22929522.555    22929530.199          11.250
        13.000
   1312142.139 7   1022445.946 6  20583541.125    20583547.492          20.000
        22.500
 99  3  8 18 41 45.0000000  0  7G 2G 7G13G15G19G26G27
     -9447.840 7     -7363.566 6  21198922.242    21198928.621          22.000
        20.500
  -2520874.462 6  -1962754.286 6  20640730.219    20640737.141          19.250
        24.000
   4624846.383 5   3603768.521 5  23057772.078    23057779.816           8.750
        10.500
   -602909.276 5   -461995.469 5  23544500.070    23544511.766           7.750
         7.500
   4583133.750 3   3558127.291 5  23969170.461    23969183.191           6.000
         7.750
  -2069392.265 5  -1612514.369 6  22926837.109    22926845.391          11.000
        13.250
   1331107.913 7   1037224.431 6  20587150.086    20587156.480          20.000
        22.750
 99  3  8 18 42  0.0000000  0  7G 2G 7G13G15G19G26G27
     -7973.849 7     -6215.020 6  21199202.773    21199209.043          21.750
        20.500
  -2540084.803 6  -1977723.373 6  20637074.680    20637081.617          19.250
        23.750
   4672992.370 5   3641284.777 5  23066933.883    23066941.984           8.750
        10.750
   -601876.064 5   -461190.412 5  23544696.742    23544708.168           7.750
         7.500
   4630900.054 4   3595347.648 5  23978260.758    23978272.688           6.250
         7.500
  -2083387.575 5  -1623419.817 6  22924174.031    22924181.426          11.250
        12.500
   1350186.701 6   1052090.988 6  20590780.945    20590787.348          19.750
        22.750
 99  3  8 18 42 15.0000000  0  7G 2G 7G13G15G19G26G27
     -6470.382 7     -5043.515 6  21199488.711    21199495.145          21.750
        20.500
  -2559186.074 6  -1992607.477 6  20633440.141    20633446.945          19.250
        23.500
   4721174.199 5   3678828.959 5  23076102.750    23076110.750           8.750
        10.750
   -600705.047 5   -460277.969 5  23544919.828    23544931.180           7.750
         7.500
   4678703.253 4   3632596.739 5  23987357.688    23987368.926           6.750
         7.250
  -2097263.236 5  -1634232.033 5  22921533.102    22921540.730          11.000
        11.750
   1369381.585 7   1067048.006 6  20594433.484    20594439.941          20.000
        23.000
 99  3  8 18 42 30.0000000  0  7G 2G 7G13G15G19G26G27
     -4936.047 7     -3847.947 6  21199780.648    21199787.176          21.500
        20.500
  -2578176.819 6  -2007405.455 6  20629826.234    20629832.918          19.500
        23.250
   4769388.807 5   3716398.688 5  23085277.719    23085285.777           8.750
        10.750
   -599398.453 5   -459259.885 5  23545168.945    23545180.035           7.750
         7.500
   4726541.636 4   3669873.276 5  23996461.133    23996473.047           6.750
         7.500
  -2111017.673 5  -1644949.789 5  22918916.063    22918923.293          11.500
        11.750
   1388687.348 7   1082091.419 6  20598107.438    20598113.715          20.000
        23.000
 99  3  8 18 42 45.0000000  0  7G 2G 7G13G15G19G26G27
     -3373.400 7     -2630.320 6  21200077.930    21200084.465          21.500
        20.500
  -2597058.181 6  -2022118.207 6  20626233.016    20626239.477          19.500
        22.750
   4817631.811 5   3753990.538 5  23094457.867    23094466.141           8.500
        11.000
   -597960.555 5   -458139.490 5  23545442.555    23545453.707           7.750
         7.500
   4774411.754 3   3707174.498 5  24005569.844    24005582.770           6.000
         7.750
  -2124652.565 5  -1655574.380 5  22916321.164    22916328.418          11.500
        11.500
   1408099.755 7   1097217.932 6  20601801.430    20601807.844          20.000
        22.750
 99  3  8 18 43  0.0000000  0  7G 2G 7G13G15G19G26G27
     -1774.430 7     -1384.390 6  21200382.031    21200388.820          21.250
        20.500
  -2615822.881 6  -2036740.044 6  20622662.406    20622668.934          19.750
        22.500
   4865912.161 5   3791611.496 5  23103645.242    23103653.680           8.250
        11.000
   -596383.573 5   -456910.702 5  23545742.383    23545753.660           7.750
         7.500
   4822323.306 3   3744508.013 5  24014687.000    24014700.184           5.750
         7.750
  -2138158.585 5  -1666098.541 6  22913751.367    22913759.043          11.750
        12.250
   1427624.120 7   1112431.692 6  20605516.813    20605523.125          20.000
        22.750
 99  3  8 18 43 15.0000000  0  7G 2G 7G13G15G19G26G27
      -140.329 7      -111.084 6  21200693.109    21200699.805          21.000
        20.500
  -2634474.116 6  -2051273.470 6  20619113.258    20619119.891          19.750
        22.750
   4914229.789 5   3829261.490 5  23112840.117    23112848.336           8.500
        11.000
   -594669.142 5   -455574.828 5  23546068.578    23546079.863           7.750
         7.500
   4870272.801 3   3781871.085 5  24023811.820    24023824.637           6.000
         7.500
  -2151537.549 6  -1676523.709 6  22911205.414    22911213.141          12.250
        12.500
   1447258.499 7   1127731.173 6  20609253.219    20609259.566          20.000
        22.750
 99  3  8 18 43 30.0000000  0  7G 2G 7G13G15G19G26G27
      1531.684 7      1191.762 6  21201011.242    21201017.957          21.000
        20.500
  -2653007.562 6  -2065715.115 6  20615586.484    20615593.000          19.750
        23.000
   4962591.061 5   3866945.500 5  23122043.383    23122051.387           8.750
        11.250
   -592812.932 5   -454128.468 5  23546421.750    23546432.969           7.750
         7.500
   4918261.942 4   3819265.054 5  24032944.648    24032956.500           6.750
         7.250
  -2164782.999 6  -1686844.847 6  22908685.078    22908692.195          12.250
        12.250
   1467010.130 7   1143122.021 6  20613011.883    20613018.160          20.250
        22.750
 99  3  8 18 43 45.0000000  0  7G 2G 7G13G15G19G26G27
      3243.425 7      2525.564 6  21201337.031    21201343.742          21.000
        20.500
  -2671419.236 6  -2080061.872 6  20612082.711    20612089.363          19.500
        23.000
   5011002.150 5   3904668.324 5  23131255.602    23131263.625           8.750
        11.250
   -590810.377 5   -452568.070 5  23546803.055    23546813.992           7.500
         7.500
   4966293.707 4   3856692.266 5  24042085.023    24042096.469           7.000
         6.500
  -2177885.758 5  -1697054.794 6  22906191.383    22906198.961          11.750
        12.000
   1486886.773 7   1158610.279 6  20616794.320    20616800.621          20.250
        22.750
 99  3  8 18 44  0.0000000  0  7G 2G 7G13G15G19G26G27
      4995.936 7      3891.134 6  21201670.344    21201677.078          21.000
        20.500
  -2689706.164 6  -2094311.426 6  20608602.734    20608609.504          19.250
        23.250
   5059465.711 5   3942432.036 5  23140478.016    23140486.078           8.750
        11.500
   -588660.293 5   -450892.716 5  23547211.945    23547223.164           7.500
         7.500
   5014373.725 4   3894157.076 5  24051234.094    24051245.680           6.500
         6.500
  -2190845.413 5  -1707153.246 6  22903725.055    22903732.965          11.750
        12.250
   1506891.164 7   1174198.081 6  20620601.117    20620607.258          20.250
        22.750
 99  3  8 18 44 15.0000000  0  7G 2G 7G13G15G19G26G27
      6788.102 7      5287.613 6  21202011.602    21202018.402          21.250
        20.500
  -2707869.887 6  -2108464.968 6  20605146.391    20605153.109          19.250
        23.500
   5107981.610 5   3980236.535 5  23149710.391    23149718.551           9.000
        11.500
   -586362.727 4   -449102.440 5  23547649.008    23547660.594           7.250
         7.500
   5062505.174 4   3931661.953 5  24060393.109    24060405.797           6.250
         7.000
  -2203665.400 6  -1717142.843 6  22901286.391    22901293.926          12.500
        13.000
   1527025.374 7   1189887.043 6  20624432.438    20624438.656          20.250
        22.750
 99  3  8 18 44 30.0000000  0  7G 2G 7G13G15G19G26G27
      8622.399 7      6716.911 6  21202360.734    21202367.563          21.250
        20.500
  -2725906.323 6  -2122519.326 6  20601714.203    20601720.973          19.000
        23.750
   5156550.278 5   4018082.150 5  23158952.992    23158960.961           9.250
        11.750
   -583914.428 4   -447194.715 5  23548115.000    23548126.652           7.250
         7.500
   5110692.026 3   3969209.958 5  24069562.828    24069575.461           6.000
         7.000
  -2216340.133 6  -1727019.259 6  22898873.914    22898881.965          12.250
        13.500
   1547293.147 7   1205680.083 6  20628289.430    20628295.629          20.000
        22.500
 99  3  8 18 44 45.0000000  0  7G 2G 7G13G15G19G26G27
     10497.377 7      8177.910 6  21202717.578    21202724.289          21.500
        20.500
  -2743816.707 6  -2136475.460 6  20598305.844    20598312.824          19.250
        23.750
   5205171.027 5   4055968.337 5  23168205.188    23168213.324           9.250
        11.750
   -581315.766 4   -445169.818 5  23548609.438    23548621.301           7.250
         7.750
   5158935.526 4   4006802.145 5  24078743.648    24078756.113           6.500
         7.000
  -2228873.587 6  -1736785.583 6  22896488.656    22896496.957          12.000
        13.500
   1567695.346 7   1221577.860 6  20632171.781    20632177.965          20.000
        22.500
 99  3  8 18 45  0.0000000  0  7G 2G 7G13G15G19G26G27
     12412.497 7      9670.197 6  21203082.055    21203088.844          21.500
        20.500
  -2761603.661 6  -2150335.422 6  20594921.195    20594927.945          19.250
        23.500
   5253843.768 5   4093895.047 5  23177467.336    23177475.559           9.250
        11.750
   -578566.260 4   -443027.377 5  23549132.625    23549144.844           7.000
         7.750
   5207236.687 4   4044439.259 5  24087935.953    24087947.758           7.000
         7.000
  -2241268.477 6  -1746443.934 6  22894130.148    22894138.539          12.000
        14.000
   1588232.114 7   1237580.507 6  20636079.633    20636085.855          20.000
        22.500
 99  3  8 18 45 15.0000000  0  7G 2G 7G13G15G19G26G27
     14372.550 7     11197.490 6  21203455.164    21203461.867          21.500
        20.500
  -2779262.748 6  -2164095.745 6  20591560.727    20591567.586          19.250
        23.500
   5302572.136 5   4131865.102 5  23186740.078    23186748.496           9.250
        11.750
   -575660.907 4   -440763.503 5  23549685.539    23549698.000           7.250
         8.000
   5255601.669 4   4082126.105 5  24097139.281    24097151.344           6.750
         6.750
  -2253522.709 6  -1755992.705 6  22891798.430    22891806.500          12.500
        14.000
   1608907.614 6   1253691.247 6  20640014.102    20640020.449          19.750
        22.250
 99  3  8 18 45 30.0000000  0  7G 2G 7G13G15G19G26G27
     16375.983 7     12758.587 6  21203836.359    21203843.102          21.750
        20.750
  -2796791.000 6  -2177754.117 6  20588225.289    20588232.152          19.500
        23.500
   5351355.878 5   4169878.298 5  23196023.406    23196031.645           9.250
        11.750
   -572599.130 4   -438377.745 5  23550268.258    23550280.770           7.250
         8.250
   5304033.444 4   4119864.990 5  24106355.195    24106367.906           6.250
         6.500
  -2265635.496 6  -1765431.236 6  22889493.695    22889501.578          12.750
        14.250
   1629720.926 6   1269909.381 6  20643974.750    20643981.246          19.750
        22.250
 99  3  8 18 45 45.0000000  0  7G 2G 7G13G15G19G26G27
     18424.233 7     14354.608 6  21204226.133    21204232.793          21.500
        20.750
  -2814185.316 6  -2191308.125 6  20584915.266    20584921.875          19.500
        23.250
   5400193.759 5   4207933.682 5  23205317.008    23205325.199           9.500
        11.750
   -569378.528 4   -435868.212 5  23550881.336    23550893.809           7.250
         8.500
   5352538.229 3   4157660.765 5  24115585.227    24115597.906           6.000
         6.500
  -2277603.834 6  -1774757.200 6  22887215.727    22887223.836          12.250
        14.250
   1650670.429 6   1286233.631 6  20647961.344    20647967.715          19.750
        22.250
 99  3  8 18 46  0.0000000  0  7G 2G 7G13G15G19G26G27
     20520.801 7     15988.278 6  21204625.102    21204631.824          21.500
        20.500
  -2831442.442 6  -2204755.230 6  20581631.281    20581638.023          19.500
        23.250
   5449084.841 5   4246030.528 5  23214620.719    23214628.918           9.500
        11.500
   -565997.067 4   -433233.344 5  23551524.555    23551537.488           7.250
         8.750
   5401120.419 4   4195516.848 5  24124830.711    24124843.188           6.250
         6.500
  -2289426.455 6  -1783969.651 6  22884965.992    22884974.539          12.250
        14.500
   1671754.733 6   1302662.923 6  20651973.383    20651979.914          19.750
        22.250
 99  3  8 18 46 15.0000000  0  7G 2G 7G13G15G19G26G27
     22670.926 7     17663.682 6  21205034.164    21205040.828          21.500
        20.500
  -2848562.396 6  -2218095.450 6  20578373.555    20578380.301          19.500
        23.250
   5498028.939 5   4284168.683 5  23223934.680    23223942.801           9.500
        11.750
   -562452.106 4   -430471.072 5  23552199.250    23552211.953           7.250
         8.750
   5449781.164 4   4233434.151 5  24134090.828    24134103.371           6.500
         6.750
  -2301102.881 6  -1793068.171 6  22882744.234    22882752.039          12.500
        14.250
   1692972.760 6   1319196.419 6  20656011.227    20656017.652          19.500
        22.250
 99  3  8 18 46 30.0000000  0  7G 2G 7G13G15G19G26G27
     24881.989 7     19386.571 6  21205454.820    21205461.660          21.250
        20.500
  -2865542.413 6  -2231326.620 6  20575142.422    20575149.074          19.500
        23.250
   5547030.485 5   4322351.603 5  23233259.313    23233267.766           9.500
        11.750
   -558737.046 4   -427576.249 5  23552906.117    23552918.828           7.250
         9.000
   5498523.326 4   4271414.896 5  24143366.250    24143378.926           6.500
         7.250
  -2312624.009 6  -1802045.679 6  22880551.867    22880559.621          12.000
        14.000
   1714327.564 6   1335836.495 6  20660075.055    20660081.398          19.750
        22.500
 99  3  8 18 46 45.0000000  0  7G 2G 7G13G15G19G26G27
     27154.808 7     21157.582 6  21205887.398    21205894.172          21.250
        20.500
  -2882385.065 6  -2244450.760 6  20571937.289    20571944.031          19.500
        23.250
   5596088.998 5   4360578.906 5  23242594.766    23242603.496           9.750
        11.750
   -554851.253 4   -424548.401 5  23553645.633    23553658.391           7.250
         9.000
   5547346.565 4   4309458.804 5  24152657.508    24152670.055           6.750
         7.500
  -2323985.888 5  -1810899.111 6  22878388.867    22878397.875          11.250
        14.250
   1735817.399 6   1352581.782 6  20664164.328    20664170.820          19.750
        22.250
 99  3  8 18 47  0.0000000  0  7G 2G 7G13G15G19G26G27
     29489.731 7     22976.982 6  21206331.813    21206338.727          21.250
        20.500
  -2899090.500 6  -2257467.975 6  20568758.289    20568765.180          19.500
        23.250
   5645206.726 5   4398852.358 5  23251941.828    23251950.285           9.750
        11.750
   -550793.770 5   -421386.749 5  23554417.742    23554430.805           7.500
         9.000
   5596250.226 3   4347565.404 5  24161963.102    24161976.082           6.000
         7.000
  -2335186.883 5  -1819627.187 6  22876258.016    22876266.879          11.750
        14.500
   1757443.105 6   1369432.948 6  20668279.664    20668286.113          19.750
        22.500
 99  3  8 18 47 15.0000000  0  7G 2G 7G13G15G19G26G27
     31890.622 7     24847.791 6  21206788.844    21206795.477          21.250
        20.500
  -2915650.010 6  -2270371.486 6  20565607.188    20565613.949          19.750
        23.250
   5694392.113 5   4437178.527 5  23261301.555    23261309.984          10.000
        11.500
   -546558.474 5   -418086.557 5  23555223.961    23555236.785           7.500
         9.000
   5645236.709 3   4385736.485 5  24171284.297    24171297.832           5.750
         7.000
  -2346215.739 6  -1828221.121 6  22874159.977    22874167.168          12.500
        13.000
   1779211.686 6   1386395.440 6  20672422.164    20672428.535          19.750
        22.500
 99  3  8 18 47 30.0000000  0  7G 2G 7G13G15G19G26G27
     34352.351 7     26766.002 6  21207257.336    21207263.945          21.500
        20.500
  -2932062.910 6  -2283160.752 6  20562483.992    20562490.777          19.750
        23.250
   5743646.453 5   4475558.428 5  23270674.563    23270682.574          10.000
        11.500
   -542146.357 5   -414648.573 5  23556063.820    23556076.129           7.750
         9.000
   5694302.758 3   4423969.600 5  24180622.055    24180634.875           6.000
         6.750
  -2357070.942 6  -1836679.719 5  22872094.234    22872100.480          12.750
        11.750
   1801124.049 6   1403469.978 6  20676592.008    20676598.434          19.750
        22.750
 99  3  8 18 47 45.0000000  0  7G 2G 7G13G15G19G26G27
     36876.920 7     28733.181 6  21207737.656    21207744.426          21.500
        20.500
  -2948325.321 6  -2295832.755 6  20559389.234    20559396.000          19.750
        23.000
   5792973.125 5   4513994.689 5  23280061.164    23280069.512          10.000
        11.500
   -537554.275 5   -411070.369 5  23556938.023    23556950.027           7.750
         9.000
   5743448.328 4   4462264.687 5  24189974.930    24189987.594           6.500
         7.000
  -2367749.292 6  -1845000.497 6  22870062.750    22870068.898          13.500
        12.000
   1823186.252 6   1420661.271 6  20680790.383    20680796.723          19.750
        22.750
 99  3  8 18 48  0.0000000  0  7G 2G 7G13G15G19G26G27
     39472.283 7     30755.523 6  21208231.664    21208238.438          21.500
        20.500
  -2964433.006 6  -2308384.196 6  20556324.039    20556330.742          19.750
        23.000
   5842375.952 5   4552490.293 5  23289462.281    23289470.832          10.000
        11.500
   -532778.167 5   -407348.757 5  23557846.813    23557858.895           7.750
         9.000
   5792671.297 4   4500620.092 5  24199341.398    24199354.699           6.250
         7.250
  -2378247.306 6  -1853180.756 6  22868064.469    22868070.691          12.750
        12.250
   1845406.357 7   1437975.600 6  20685018.797    20685025.176          20.000
        22.750
 99  3  8 18 48 15.0000000  0  7G 2G 7G13G15G19G26G27
     42139.731 7     32834.036 6  21208739.227    21208745.941          21.500
        20.500
  -2980385.647 6  -2320814.818 6  20553288.336    20553295.102          19.500
        23.000
   5891858.271 5   4591047.829 5  23298878.586    23298886.949          10.000
        11.250
   -527817.893 5   -403483.639 5  23558791.008    23558802.570           8.000
         8.750
   5841967.230 3   4539032.318 5  24208722.227    24208735.316           6.000
         7.250
  -2388567.069 6  -1861222.142 6  22866100.328    22866108.496          12.250
        14.000
   1867787.571 6   1455415.475 6  20689277.797    20689284.133          19.750
        22.750
 99  3  8 18 48 30.0000000  0  7G 2G 7G13G15G19G26G27
     44876.780 7     34966.782 6  21209260.141    21209266.789          21.500
        20.750
  -2996183.658 6  -2333124.953 6  20550281.875    20550288.785          19.250
        23.000
   5941420.962 5   4629668.003 5  23308310.008    23308318.512          10.000
        11.250
   -522674.235 5   -399475.631 5  23559769.766    23559781.109           8.000
         8.750
   5891335.237 3   4577500.719 5  24218116.594    24218130.281           6.000
         7.500
  -2398710.355 5  -1869126.016 6  22864170.242    22864178.563          11.750
        14.750
   1890331.279 7   1472981.966 6  20693567.766    20693574.188          20.000
        22.750
 99  3  8 18 48 45.0000000  0  7G 2G 7G13G15G19G26G27
     47688.969 7     37158.085 6  21209795.141    21209801.883          21.500
        20.750
  -3011816.499 6  -2345306.377 6  20547307.023    20547313.824          19.500
        23.000
   5991070.544 5   4668355.892 5  23317758.063    23317766.527          10.000
        11.000
   -517340.516 5   -395319.514 5  23560784.633    23560796.395           8.000
         8.250
   5940785.457 3   4616033.190 5  24227527.094    24227540.340           6.000
         7.250
  -2408671.838 5  -1876888.220 6  22862273.672    22862282.391          10.750
        14.500
   1913046.609 7   1490682.189 6  20697890.289    20697896.668          20.000
        22.750
 99  3  8 18 49  0.0000000  0  7G 2G 7G13G15G19G26G27
     50577.647 7     39408.984 6  21210344.813    21210351.648          21.500
        20.750
  -3027278.174 6  -2357354.437 6  20544364.859    20544371.578          19.500
        23.000
   6040807.882 5   4707112.138 5  23327222.883    23327231.488          10.000
        11.000
   -511816.597 5   -391015.191 5  23561835.672    23561847.566           7.750
         8.250
   5990319.498 3   4654630.965 5  24236953.094    24236966.090           6.000
         6.750
  -2418455.844 5  -1884512.135 6  22860411.898    22860421.262          10.750
        15.000
   1935935.719 7   1508517.822 6  20702246.148    20702252.520          20.000
        22.750
 99  3  8 18 49 15.0000000  0  6G 2G 7G13G15G26G27
     53545.101 7     41721.266 6  21210909.508    21210916.285          21.500
        20.500
  -3042564.831 6  -2369266.109 6  20541456.000    20541462.879          19.750
        23.250
   6090632.908 5   4745936.721 5  23336704.422    23336713.066          10.000
        11.000
   -506101.343 5   -386561.774 5  23562923.203    23562934.941           7.500
         8.250
  -2428065.503 5  -1892000.221 6  22858583.516    22858592.285          11.000
        14.750
   1959000.387 6   1526490.258 6  20706635.055    20706641.461          19.750
        22.500
 99  3  8 18 49 30.0000000  0  6G 2G 7G13G15G26G27
     56597.609 7     44099.826 6  21211490.523    21211497.406          21.500
        20.750
  -3057677.224 7  -2381041.991 6  20538580.227    20538586.973          20.000
        23.500
   6140547.204 5   4784830.872 5  23346202.820    23346211.273           9.750
        10.750
   -500192.164 5   -381957.246 5  23564047.461    23564059.703           7.500
         8.250
  -2437499.770 6  -1899351.605 6  22856788.547    22856796.266          12.250
        13.500
   1982243.506 6   1544601.746 6  20711058.156    20711064.488          19.750
        22.250
 99  3  8 18 49 45.0000000  0  6G 2G 7G13G15G26G27
     59738.802 7     46547.492 6  21212088.313    21212095.063          21.250
        20.750
  -3072619.393 7  -2392685.239 6  20535736.648    20535743.363          20.250
        23.750
   6190546.641 5   4823791.357 5  23355717.438    23355725.883           9.750
        10.750
   -494089.109 5   -377201.657 5  23565208.570    23565221.090           7.500
         8.000
  -2446762.034 6  -1906568.961 6  22855026.633    22855033.734          13.000
        13.500
   2005664.229 6   1562851.627 6  20715515.063    20715521.395          19.750
        22.250
 99  3  8 18 50  0.0000000  0  6G 2G 7G13G15G26G27
     62973.147 7     49067.740 6  21212703.758    21212710.547          21.250
        20.500
  -3087393.167 7  -2404197.261 6  20532925.539    20532932.258          20.250
        23.750
   6240628.547 5   4862816.108 5  23365247.852    23365256.355          10.000
        10.500
   -487792.763 5   -372295.437 5  23566407.305    23566419.074           7.750
         8.000
  -2455853.612 6  -1913653.313 6  22853296.664    22853304.070          13.250
        13.750
   2029261.366 6   1581238.970 6  20720005.328    20720011.695          19.500
        22.000
 99  3  8 18 50 15.0000000  0  6G 2G 7G13G15G26G27
     66301.342 7     51661.121 6  21213336.930    21213343.879          21.250
        20.500
  -3101996.711 7  -2415576.646 6  20530146.602    20530153.309          20.250
        23.750
   6290793.137 5   4901905.281 5  23374793.930    23374802.652           9.750
        10.500
   -481300.248 5   -367236.367 5  23567642.867    23567654.699           7.750
         8.000
  -2464769.644 6  -1920600.893 6  22851599.414    22851607.219          13.000
        13.250
   2053036.147 6   1599764.741 6  20724529.531    20724535.836          19.500
        22.000
 99  3  8 18 50 30.0000000  0  6G 2G 7G13G15G26G27
     69721.343 7     54326.038 6  21213987.813    21213994.703          21.250
        20.500
  -3116432.457 7  -2426825.272 6  20527399.625    20527406.355          20.250
        23.750
   6341038.422 5   4941057.346 5  23384355.180    23384364.262           9.750
        10.500
   -474609.955 5   -362023.173 5  23568916.242    23568927.816           7.750
         8.250
  -2473507.922 6  -1927409.955 6  22849937.266    22849943.535          14.000
        12.250
   2076987.928 6   1618428.437 6  20729087.359    20729093.777          19.500
        22.000
 99  3  8 18 50 45.0000000  0  6G 2G 7G13G15G26G27
     73231.477 7     57061.183 6  21214655.781    21214662.652          21.250
        20.500
  -3130706.562 7  -2437947.953 6  20524683.148    20524689.730          20.000
        23.500
   6391358.181 5   4980267.434 5  23393931.094    23393939.875           9.750
        10.250
   -467724.016 5   -356657.528 5  23570226.563    23570238.434           7.750
         8.000
  -2482067.237 6  -1934079.542 6  22848308.961    22848315.262          15.000
        12.250
   2101112.149 6   1637226.499 6  20733678.172    20733684.605          19.500
        22.000
 99  3  8 18 51  0.0000000  0  6G 2G 7G13G15G26G27
     76830.145 7     59865.324 6  21215340.617    21215347.473          21.250
        20.750
  -3144823.775 7  -2448948.376 6  20521996.875    20522003.434          20.000
        23.250
   6441749.686 5   5019533.430 5  23403520.133    23403528.832           9.750
        10.000
   -460644.334 5   -351140.919 5  23571573.711    23571585.543           7.500
         8.000
  -2490449.118 6  -1940610.885 6  22846713.586    22846720.324          14.250
        12.000
   2125405.150 6   1656156.075 6  20738300.984    20738307.523          19.500
        22.000
 99  3  8 18 51 15.0000000  0  6G 2G 7G13G15G26G27
     80521.133 7     62741.398 6  21216043.031    21216049.887          21.250
        20.500
  -3158784.010 7  -2459826.480 6  20519340.273    20519346.969          20.250
        23.000
   6492217.100 5   5058858.566 5  23413123.938    23413132.449           9.500
        10.000
   -453366.475 4   -345469.885 5  23572958.492    23572970.488           7.250
         8.000
  -2498646.209 6  -1946998.243 5  22845153.852    22845159.227          14.500
        11.000
   2149870.965 6   1675220.311 6  20742956.828    20742963.270          19.500
        22.250
 99  3  8 18 51 30.0000000  0  6G 2G 7G13G15G26G27
     84301.262 7     65686.930 6  21216762.391    21216769.176          21.250
        20.750
  -3172592.668 7  -2470586.475 6  20516712.695    20516719.180          20.250
        23.000
   6542758.713 5   5098241.520 5  23422741.883    23422750.883           9.500
        10.000
   -445892.307 4   -339645.887 5  23574380.898    23574392.648           7.250
         7.750
  -2506655.864 6  -1953239.528 5  22843629.797    22843635.426          14.750
        11.250
   2174507.069 6   1694417.237 6  20747644.945    20747651.371          19.500
        22.250
 99  3  8 18 51 45.0000000  0  6G 2G 7G13G15G26G27
     88165.507 7     68698.008 6  21217497.789    21217504.648          21.250
        21.000
  -3186252.415 7  -2481230.433 6  20514113.078    20514119.590          20.250
        22.750
   6593371.793 5   5137680.169 5  23432373.430    23432382.313           9.500
        10.000
   -438225.100 4   -333671.467 5  23575839.195    23575851.867           6.750
         7.750
  -2514478.848 6  -1959335.376 6  22842141.008    22842147.715          14.750
        13.000
   2199308.601 6   1713743.076 6  20752364.484    20752370.973          19.750
        22.250
 99  3  8 18 52  0.0000000  0  6G 2G 7G13G15G26G27
     92114.652 7     71775.247 6  21218249.289    21218256.211          21.500
        21.000
  -3199755.011 7  -2491751.940 6  20511543.641    20511550.324          20.250
        23.000
   6644059.392 5   5177176.887 5  23442018.813    23442027.930           9.500
         9.750
   -430361.465 4   -327543.992 5  23577335.539    23577347.859           6.750
         7.500
  -2522111.300 6  -1965282.770 6  22840688.352    22840695.434          14.250
        13.500
   2224278.756 6   1733200.308 6  20757116.211    20757122.637          19.750
        22.250
 99  3  8 18 52 15.0000000  0  6G 2G 7G13G15G26G27
     96145.582 7     74916.205 6  21219016.414    21219023.254          21.500
        21.000
  -3213098.822 7  -2502149.711 6  20509004.453    20509011.152          20.000
        23.250
   6694819.470 5   5216730.073 5  23451678.203    23451687.000           9.250
         9.500
   -422303.425 4   -321265.030 5  23578868.898    23578881.121           6.500
         7.250
  -2529555.274 6  -1971083.286 6  22839271.922    22839279.566          13.750
        14.000
   2249416.295 6   1752787.962 6  20761899.766    20761906.262          19.750
        22.250
 99  3  8 18 52 30.0000000  0  6G 2G 7G13G15G26G27
    100260.956 7     78122.969 6  21219799.523    21219806.418          21.500
        21.000
  -3226281.182 6  -2512421.682 6  20506495.836    20506502.746          19.750
        23.250
   6745655.257 5   5256342.255 5  23461352.008    23461360.914           9.250
         9.500
   -414048.051 4   -314832.297 5  23580439.617    23580451.992           6.500
         7.250
  -2536809.228 6  -1976735.748 6  22837891.422    22837898.613          14.000
        13.500
   2274724.315 6   1772508.463 6  20766715.805    20766722.328          19.500
        22.500
 99  3  8 18 52 45.0000000  0  6G 2G 7G13G15G26G27
    104462.519 7     81396.891 6  21220598.938    21220605.922          21.500
        21.000
  -3239300.164 6  -2522566.338 6  20504018.305    20504025.227          19.500
        23.500
   6796568.801 5   5296015.025 5  23471040.844    23471049.633           9.250
         9.500
   -405595.630 4   -308246.022 5  23582048.125    23582060.453           6.500
         7.250
  -2543874.302 6  -1982240.983 6  22836547.281    22836553.875          14.250
        13.250
   2300200.771 6   1792360.216 6  20771563.766    20771570.359          19.250
        22.250
 99  3  8 18 53  0.0000000  0  6G 2G 7G13G15G26G27
    108743.108 7     84732.393 6  21221413.625    21221420.523          21.500
        20.750
  -3252157.625 6  -2532585.138 6  20501571.766    20501578.590          19.750
        23.750
   6847552.430 5   5335742.412 5  23480742.633    23480751.633           9.250
         9.500
   -396954.858 4   -301512.971 5  23583692.914    23583704.855           7.000
         7.250
  -2550761.515 6  -1987607.656 6  22835236.227    22835244.105          13.250
        14.250
   2325836.583 6   1812336.133 6  20776442.164    20776448.695          19.000
        22.250
 99  3  8 18 53 15.0000000  0  6G 2G 7G13G15G26G27
    113099.958 7     88127.315 6  21222242.625    21222249.535          21.500
        21.000
  -3264851.173 7  -2542476.211 6  20499156.320    20499163.160          20.000
        23.750
   6898605.500 5   5375523.896 5  23490457.680    23490466.789           9.250
         9.250
   -388128.236 4   -294635.121 5  23585372.797    23585384.410           7.250
         7.250
  -2557474.751 6  -1992838.768 6  22833958.555    22833966.945          13.000
        15.000
   2351632.387 6   1832436.730 6  20781350.859    20781357.410          18.750
        22.000
 99  3  8 18 53 30.0000000  0  6G 2G 7G13G15G26G27
    117541.748 7     91588.430 6  21223087.922    21223094.859          21.500
        21.000
  -3277368.140 7  -2552229.685 6  20496774.461    20496781.184          20.250
        23.500
   6949735.098 5   5415365.021 5  23500187.641    23500196.441           9.000
         9.250
   -379106.787 4   -287605.444 5  23587089.586    23587101.344           7.250
         7.500
  -2564002.624 6  -1997925.432 6  22832716.859    22832724.613          13.250
        14.750
   2377597.106 6   1852668.935 6  20786291.664    20786298.313          18.500
        22.000
 99  3  8 18 53 45.0000000  0  6G 2G 7G13G15G26G27
    122063.137 7     95111.565 6  21223948.445    21223955.320          21.500
        21.000
  -3289712.663 7  -2561848.794 6  20494425.500    20494432.074          20.500
        23.500
   7000935.418 5   5455261.258 5  23509931.000    23509939.914           9.000
         9.000
   -369897.125 4   -280429.107 5  23588842.375    23588854.105           7.250
         7.750
  -2570351.951 6  -2002872.991 6  22831508.188    22831515.641          12.750
        14.000
   2403722.586 6   1873026.416 6  20791263.109    20791269.789          18.250
        21.750
 99  3  8 18 54  0.0000000  0  6G 2G 7G13G15G26G27
    126660.310 7     98693.758 6  21224823.109    21224830.105          21.500
        21.000
  -3301885.945 7  -2571334.468 6  20492108.969    20492115.551          20.500
        23.250
   7052201.930 5   5495209.072 5  23519686.469    23519695.793           8.750
         9.000
   -360502.428 4   -273108.594 5  23590629.563    23590642.012           7.250
         7.750
  -2576527.702 6  -2007685.273 6  22830333.695    22830341.086          13.250
        14.750
   2430006.602 6   1893507.435 6  20796264.625    20796271.465          18.000
        21.750
 99  3  8 18 54 15.0000000  0  6G 2G 7G13G15G26G27
    131332.225 7    102334.184 6  21225712.148    21225719.211          21.500
        21.000
  -3313890.142 7  -2580688.384 6  20489824.656    20489831.160          20.500
        23.000
   7103532.769 5   5535207.015 5  23529454.352    23529463.758           8.750
         9.000
   -350922.995 5   -265644.124 5  23592452.875    23592464.852           7.500
         7.750
  -2582531.867 6  -2012363.862 6  22829190.813    22829198.734          13.500
        15.250
   2456450.473 6   1914113.011 6  20801296.727    20801303.617          18.000
        21.750
 99  3  8 18 54 30.0000000  0  6G 2G 7G13G15G26G27
    136075.467 7    106030.198 6  21226614.758    21226621.773          21.500
        21.000
  -3325729.526 7  -2589913.878 6  20487571.633    20487578.266          20.250
        23.000
   7154925.648 5   5575253.286 5  23539234.742    23539243.496           8.750
         8.750
   -341161.120 5   -258037.504 5  23594310.742    23594322.750           7.500
         8.000
  -2588366.280 6  -2016910.174 6  22828080.563    22828087.957          13.000
        14.750
   2483049.291 6   1934839.326 6  20806358.289    20806365.230          17.750
        21.750
 99  3  8 18 54 45.0000000  0  6G 2G 7G13G15G26G27
    140888.008 7    109780.211 6  21227530.664    21227537.707          21.500
        21.000
  -3337406.223 7  -2599012.592 6  20485349.570    20485356.309          20.000
        23.000
   7206379.676 5   5615347.197 5  23549025.945    23549035.141           8.500
         8.750
   -331217.157 5   -250288.988 5  23596203.070    23596215.242           7.500
         8.250
  -2594029.296 6  -2021322.940 6  22827002.641    22827010.402          12.500
        14.500
   2509798.868 6   1955683.116 6  20811448.656    20811455.578          17.750
        21.750
 99  3  8 18 55  0.0000000  0  6G 2G 7G13G15G26G27
    145771.650 7    113585.619 6  21228459.938    21228467.035          21.500
        21.000
  -3348918.578 7  -2607983.259 6  20483158.656    20483165.262          20.000
        23.000
   7257897.629 5   5655490.935 5  23558829.461    23558838.703           8.250
         8.750
   -321089.252 5   -242397.151 5  23598130.477    23598142.723           7.750
         8.250
  -2599519.806 6  -2025601.282 6  22825957.992    22825965.535          12.500
        14.500
   2536700.247 6   1976645.188 6  20816568.023    20816574.918          18.000
        21.750
 99  3  8 18 55 15.0000000  0  6G 2G 7G13G15G26G27
    150721.560 7    117442.668 6  21229401.961    21229408.980          21.500
        21.000
  -3360278.128 7  -2616834.852 6  20480997.133    20481003.801          20.000
        23.250
   7309475.784 5   5695681.592 5  23568644.477    23568653.922           8.250
         8.500
   -310782.990 5   -234366.325 5  23600091.875    23600103.980           7.750
         8.500
  -2604843.166 5  -2029749.392 6  22824944.633    22824952.523          11.750
        14.000
   2563751.153 6   1997723.777 6  20821715.680    20821722.582          18.000
        22.000
 99  3  8 18 55 30.0000000  0  6G 2G 7G13G15G26G27
    155738.359 7    121351.845 6  21230356.555    21230363.688          21.500
        21.000
  -3371486.378 7  -2625568.544 6  20478864.422    20478871.059          20.000
        23.250
   7361117.358 5   5735921.659 5  23578471.641    23578481.250           8.000
         8.500
   -300295.073 5   -226193.953 5  23602087.555    23602099.859           7.750
         8.500
  -2609993.138 6  -2033762.368 6  22823965.180    22823971.879          12.250
        13.000
   2590954.880 6   2018921.453 6  20826892.547    20826899.496          18.250
        22.000
 99  3  8 18 55 45.0000000  0  6G 2G 7G13G15G26G27
    160820.740 7    125312.123 6  21231323.781    21231330.809          21.500
        21.000
  -3382550.731 7  -2634190.113 6  20476758.750    20476765.523          20.250
        23.250
   7412818.912 5   5776208.446 5  23588310.516    23588319.688           8.000
         8.250
   -289628.651 5   -217882.490 5  23604117.586    23604129.945           7.750
         8.750
  -2614972.687 5  -2037642.555 6  22823016.500    22823023.910          11.250
        12.500
   2618306.603 6   2040234.447 6  20832097.289    20832104.309          18.250
        22.250
 99  3  8 18 56  0.0000000  0  6G 2G 7G13G15G26G27
    165974.058 7    129327.675 6  21232304.578    21232311.516          21.750
        21.000
  -3393468.094 7  -2642697.145 6  20474681.250    20474687.922          20.000
        23.250
   7464585.150 5   5816545.664 5  23598161.242    23598170.586           8.000
         8.250
   -278779.932 5   -209428.975 5  23606182.039    23606194.457           7.750
         8.750
  -2619782.180 5  -2041390.243 6  22822101.461    22822109.469          11.000
        13.000
   2645811.080 6   2061666.468 6  20837331.406    20837338.316          18.250
        22.250
 99  3  8 18 56 15.0000000  0  6G 2G 7G13G15G26G27
    171191.498 7    133393.190 6  21233297.508    21233304.324          21.750
        21.000
  -3404248.674 7  -2651097.594 6  20472629.906    20472636.516          20.000
        23.000
   7516408.081 5   5856927.025 5  23608022.953    23608032.324           7.750
         8.000
   -267754.906 5   -200838.082 5  23608280.133    23608292.395           7.500
         8.750
  -2624430.965 5  -2045012.696 6  22821217.086    22821224.867          11.500
        13.250
   2673463.435 6   2083213.717 6  20842593.430    20842600.414          18.500
        22.250
 99  3  8 18 56 30.0000000  0  6G 2G 7G13G15G26G27
    176479.817 7    137513.944 6  21234303.852    21234310.715          21.750
        20.750
  -3414891.282 6  -2659390.526 6  20470604.477    20470611.355          19.750
        22.750
   7568289.908 5   5897354.307 5  23617895.820    23617905.262           7.750
         8.000
   -256550.647 4   -192107.532 5  23610411.539    23610424.496           7.250
         8.500
  -2628914.985 5  -2048506.742 6  22820363.398    22820371.422          11.250
        13.000
   2701265.626 6   2104877.720 6  20847884.070    20847891.039          18.500
        22.250
 99  3  8 18 56 45.0000000  0  6G 2G 7G13G15G26G27
    181843.359 7    141693.307 6  21235324.453    21235331.406          21.750
        20.750
  -3425397.372 6  -2667577.080 6  20468605.219    20468612.043          19.750
        22.750
   7620229.082 5   5937826.272 5  23627779.492    23627789.023           7.500
         8.000
   -245167.636 4   -183237.700 5  23612577.359    23612590.617           6.750
         8.500
  -2633232.716 5  -2051871.242 6  22819541.484    22819549.836          11.000
        13.000
   2729217.315 6   2126658.227 6  20853203.172    20853210.184          18.250
        22.250
 99  3  8 18 57  0.0000000  0  6G 2G 7G13G15G26G27
    187281.506 7    145930.806 6  21236359.336    21236366.262          21.750
        20.750
  -3435768.334 6  -2675658.351 6  20466631.813    20466638.504          19.750
        22.500
   7672225.857 5   5978343.106 5  23637674.273    23637683.781           7.500
         7.750
   -233606.950 4   -174229.437 5  23614777.352    23614790.660           6.750
         8.500
  -2637384.594 5  -2055106.486 6  22818751.539    22818759.539          11.250
        12.750
   2757321.023 6   2148557.176 6  20858551.180    20858558.129          18.250
        22.000
 99  3  8 18 57 15.0000000  0  6G 2G 7G13G15G26G27
    192793.364 7    150225.742 6  21237408.219    21237415.074          22.000
        20.750
  -3446004.654 7  -2683634.696 6  20464683.680    20464690.523          20.000
        22.750
   7724278.039 5   6018903.115 5  23647579.914    23647589.059           7.500
         7.750
   -221869.949 4   -165083.770 5  23617010.844    23617024.121           6.750
         8.500
  -2641372.038 5  -2058213.606 6  22817993.055    22818001.738          11.500
        13.250
   2785579.075 6   2170576.395 6  20863928.438    20863935.371          18.250
        22.000
 99  3  8 18 57 30.0000000  0  6G 2G 7G13G15G26G27
    198381.583 7    154580.183 6  21238471.594    21238478.504          22.000
        20.750
  -3456100.934 7  -2691501.920 6  20462762.734    20462769.473          20.250
        22.750
   7776383.690 5   6059504.804 5  23657495.109    23657504.980           7.500
         7.750
   -209954.484 4   -155799.033 5  23619278.148    23619291.746           6.500
         8.250
  -2645189.695 6  -2061188.434 6  22817267.148    22817275.031          12.250
        13.000
   2813994.127 6   2192717.958 6  20869335.711    20869342.613          18.250
        22.000
 99  3  8 18 57 45.0000000  0  6G 2G 7G13G15G26G27
    204046.052 7    158994.035 6  21239549.578    21239556.359          22.000
        20.500
  -3466052.031 7  -2699256.015 6  20460869.141    20460875.875          20.500
        23.000
   7828537.181 4   6100143.751 5  23667419.609    23667429.355           7.250
         7.500
   -197862.109 4   -146376.454 5  23621579.242    23621592.820           6.500
         8.250
  -2648837.171 5  -2064030.645 5  22816572.344    22816579.773          11.750
        11.750
   2842561.736 6   2214978.388 6  20874772.023    20874778.898          18.500
        21.750
 99  3  8 18 58  0.0000000  0  6G 2G 7G13G15G26G27
    209782.350 7    163463.854 6  21240641.109    21240647.953          22.000
        20.500
  -3475863.341 7  -2706901.192 6  20459002.203    20459008.773          20.750
        23.250
   7880731.584 4   6140814.587 5  23677352.063    23677361.582           7.250
         7.500
   -185600.629 4   -136822.111 5  23623912.102    23623926.160           6.250
         8.000
  -2652327.016 6  -2066750.032 5  22815909.391    22815916.211          12.750
        11.750
   2871275.810 6   2237352.949 6  20880236.164    20880243.180          18.500
        21.750
 99  3  8 18 58 15.0000000  0  6G 2G 7G13G15G26G27
    215586.453 7    167986.520 6  21241745.773    21241752.512          22.000
        20.500
  -3485532.655 7  -2714435.713 6  20457161.883    20457168.574          20.750
        23.500
   7932964.271 4   6181515.256 5  23687291.797    23687301.398           7.000
         7.250
   -173170.135 4   -127136.057 5  23626277.578    23626291.418           6.250
         7.750
  -2655658.587 6  -2069346.061 5  22815275.758    22815282.152          13.250
        11.750
   2900137.943 6   2259842.877 6  20885728.359    20885735.332          18.500
        21.750
 99  3  8 18 58 30.0000000  0  6G 2G 7G13G15G26G27
    221459.231 7    172562.693 6  21242863.195    21242870.051          22.000
        20.750
  -3495057.834 7  -2721857.926 6  20455349.539    20455356.285          20.500
        23.500
   7985236.457 4   6222246.706 5  23697238.563    23697248.656           7.000
         7.250
   -160569.071 4   -117317.090 5  23628676.047    23628688.977           6.500
         7.500
  -2658824.471 5  -2071812.996 6  22814671.305    22814679.664          11.000
        12.000
   2929150.588 6   2282450.094 6  20891249.336    20891256.406          18.500
        21.750
 99  3  8 18 58 45.0000000  0  6G 2G 7G13G15G26G27
    227399.694 7    177191.612 6  21243993.555    21244000.527          22.000
        20.750
  -3504434.022 7  -2729164.042 6  20453565.297    20453572.102          20.250
        23.500
   8037550.204 4   6263010.531 5  23707194.078    23707203.531           6.750
         7.000
   -147797.023 4   -107364.898 5  23631106.523    23631118.969           6.500
         7.250
  -2661820.693 6  -2074147.748 6  22814102.750    22814110.418          12.000
        13.250
   2958313.657 6   2305174.521 6  20896799.031    20896805.957          18.500
        21.750
 99  3  8 18 59  0.0000000  0  6G 2G 7G13G15G26G27
    233396.441 7    181864.381 6  21245134.750    21245141.719          21.750
        20.750
  -3513664.052 7  -2736356.262 6  20451808.563    20451815.516          20.000
        23.500
   8089902.693 4   6303804.545 5  23717156.695    23717166.098           7.000
         6.750
   -134858.782 4    -97283.184 5  23633568.539    23633580.762           6.500
         6.750
  -2664653.120 6  -2076354.860 6  22813563.695    22813571.504          12.500
        14.000
   2987621.829 6   2328012.015 6  20902376.133    20902383.164          18.500
        21.750
 99  3  8 18 59 15.0000000  0  6G 2G 7G13G15G26G27
    239444.497 7    186577.140 6  21246285.648    21246292.664          21.750
        20.750
  -3522745.764 7  -2743432.913 6  20450080.469    20450087.207          20.000
        23.250
   8142294.382 4   6344629.120 5  23727126.305    23727136.180           6.750
         6.750
   -121755.098 4    -87072.580 5  23636062.227    23636074.406           6.750
         6.750
  -2667323.734 6  -2078435.884 6  22813055.273    22813063.602          12.000
        14.250
   3017073.287 6   2350961.157 6  20907980.656    20907987.707          18.500
        21.750
 99  3  8 18 59 30.0000000  0  6G 2G 7G13G15G26G27
    245543.753 7    191329.794 6  21247446.281    21247453.301          21.750
        21.000
  -3531680.302 7  -2750394.885 6  20448380.328    20448387.035          20.000
        23.000
   8194722.254 4   6385481.862 5  23737103.234    23737112.977           6.500
         6.750
   -108486.850 4    -76733.728 5  23638587.531    23638599.195           7.000
         6.500
  -2669833.920 6  -2080391.904 6  22812577.617    22812585.637          12.250
        14.250
   3046667.317 6   2374021.398 6  20913612.242    20913619.273          18.500
        21.750
 99  3  8 18 59 45.0000000  0  6G 2G 7G13G15G26G27
    251693.420 7    196121.726 6  21248616.523    21248623.594          21.750
        21.000
  -3540465.858 7  -2757240.771 6  20446708.563    20446715.223          20.250
        23.000
   8247190.874 4   6426366.368 5  23747087.602    23747097.141           6.500
         6.500
    -95051.720 4    -66264.839 5  23641144.156    23641156.102           7.250
         6.750
  -2672183.091 6  -2082222.455 6  22812130.617    22812138.816          12.250
        14.500
   3076403.976 6   2397192.774 6  20919270.945    20919277.965          18.500
        21.750
 99  3  8 19  0  0.0000000  0  6G 2G 7G13G15G26G27
    257894.603 7    200953.800 6  21249796.609    21249803.727          21.750
        21.000
  -3549103.747 7  -2763971.588 6  20445065.047    20445071.543          20.250
        22.750
   8299705.426 4   6467286.659 5  23757080.930    23757090.805           6.250
         6.500
    -81446.624 5    -55663.509 5  23643733.602    23643745.406           7.500
         7.000
  -2674374.283 6  -2083929.895 6  22811714.070    22811721.840          12.500
        14.750
   3106285.347 6   2420476.914 6  20924957.125    20924964.211          18.500
        21.750
 99  3  8 19  0 15.0000000  0  6G 2G 7G13G15G26G27
    264138.622 7    205819.254 6  21250984.859    21250991.820          21.750
        21.000
  -3557602.333 7  -2770593.862 6  20443447.648    20443454.191          20.250
        22.500
   8352262.550 4   6508240.127 5  23767082.742    23767092.207           6.250
         6.250
    -67676.045 5    -44933.234 5  23646354.391    23646365.980           7.750
         7.250
  -2676411.427 5  -2085517.310 6  22811325.750    22811334.195          11.500
        14.500
   3136306.760 6   2443870.177 6  20930670.211    20930677.254          18.500
        21.750
 99  3  8 19  0 30.0000000  0  6G 2G 7G13G15G26G27
    270426.485 7    210718.874 6  21252181.422    21252188.500          21.750
        21.000
  -3565961.497 7  -2777107.498 6  20441856.836    20441863.527          20.000
        22.500
   8404864.902 4   6549228.837 5  23777092.422    23777102.422           6.250
         6.250
    -53737.709 5    -34072.247 5  23649006.789    23649018.676           7.750
         7.500
  -2678287.459 5  -2086979.186 6  22810968.758    22810977.273          11.500
        14.500
   3166468.762 6   2467372.995 6  20936409.914    20936416.965          18.500
        22.000
 99  3  8 19  0 45.0000000  0  6G 2G 7G13G15G26G27
    276758.632 7    215653.000 6  21253386.430    21253393.469          21.750
        21.000
  -3574181.681 7  -2783512.832 6  20440292.414    20440299.090          20.000
        22.250
   8457513.635 3   6590253.700 5  23787110.969    23787121.086           6.000
         6.250
    -39631.865 5    -23080.724 5  23651690.852    23651703.234           7.750
         7.500
  -2680006.165 6  -2088318.472 6  22810642.203    22810650.395          12.750
        15.250
   3196768.412 6   2490983.068 6  20942175.695    20942182.723          18.500
        22.000
 99  3  8 19  1  0.0000000  0  6G 2G 7G13G15G26G27
    283128.931 7    220616.862 6  21254598.445    21254605.625          21.750
        21.000
  -3582271.128 7  -2789816.289 6  20438753.211    20438759.840          20.000
        22.250
   8510201.178 3   6631308.791 5  23797137.367    23797147.262           6.000
         6.000
    -25365.150 5    -11963.857 5  23654405.594    23654418.387           7.750
         7.750
  -2681578.428 6  -2089543.636 6  22810343.547    22810350.895          13.500
        14.250
   3227197.932 6   2514694.338 6  20947966.391    20947973.398          18.500
        22.250
 99  3  8 19  1 15.0000000  0  6G 2G 7G13G15G26G27
    289537.229 7    225610.319 6  21255817.961    21255825.121          21.750
        21.000
  -3590233.656 7  -2796020.859 6  20437237.984    20437244.566          20.000
        22.000
   8562924.893 3   6672392.071 5  23807170.398    23807180.402           5.750
         6.000
    -10939.421 5      -723.091 5  23657151.117    23657163.750           7.750
         7.750
  -2683007.907 6  -2090657.533 6  22810071.172    22810078.059          12.750
        13.250
   3257755.539 6   2538505.412 6  20953781.273    20953788.355          18.750
        22.250
 99  3  8 19  1 30.0000000  0  6G 2G 7G13G15G26G27
    295990.620 7    230638.926 6  21257046.109    21257053.184          21.750
        21.000
  -3598070.684 7  -2802127.636 6  20435746.656    20435753.223          20.500
        22.000
   8615684.738 3   6713503.516 5  23817210.594    23817220.215           5.750
         6.000
      3646.710 5     10642.679 5  23659927.141    23659938.980           8.000
         7.750
  -2684292.307 5  -2091658.394 6  22809826.359    22809834.297          11.750
        13.500
   3288444.920 6   2562419.174 6  20959621.445    20959628.602          18.750
        22.500
 99  3  8 19  1 45.0000000  0  6G 2G 7G13G15G26G27
    302485.619 7    235699.945 6  21258282.125    21258289.148          21.750
        21.000
  -3605792.389 7  -2808144.546 6  20434277.461    20434283.727          20.750
        21.750
   8668470.862 3   6754635.414 5  23827255.352    23827265.492           5.750
         6.000
     18385.213 5     22127.185 5  23662731.945    23662743.438           7.750
         8.000
  -2685440.785 6  -2092553.358 6  22809607.781    22809615.680          12.250
        13.750
   3319256.768 6   2586428.359 6  20965484.727    20965491.906          18.750
        22.750
 99  3  8 19  2  0.0000000  0  6G 2G 7G13G15G26G27
    309034.375 7    240802.860 6  21259528.422    21259535.422          21.750
        21.000
  -3613389.633 7  -2814064.484 6  20432831.719    20432838.129          21.000
        21.750
   8721290.554 3   6795793.480 5  23837306.875    23837316.430           5.500
         5.750
     33285.259 5     33737.554 5  23665567.180    23665579.129           7.500
         8.000
  -2686444.163 6  -2093335.234 6  22809417.977    22809425.074          13.500
        13.750
   3350199.434 6   2610539.482 6  20971372.859    20971380.121          18.750
        22.750
 99  3  8 19  2 15.0000000  0  6G 2G 7G13G15G26G27
    315636.773 7    245947.568 6  21260784.883    21260791.738          22.000
        21.000
  -3620867.039 7  -2819891.034 6  20431408.922    20431415.230          21.000
        22.000
   8774138.309 3   6836973.409 5  23847363.195    23847373.953           5.500
         5.750
     48342.610 4     45470.521 5  23668431.875    23668444.699           7.250
         8.000
  -2687302.828 6  -2094004.348 6  22809253.828    22809261.328          13.000
        12.750
   3381272.694 6   2634752.370 6  20977286.055    20977293.270          19.000
        22.750
 99  3  8 19  2 30.0000000  0  6G 2G 7G13G15G26G27
    322290.768 7    251132.486 6  21262051.172    21262057.992          22.000
        21.000
  -3628224.422 7  -2825624.062 6  20430008.727    20430015.336          20.500
        22.250
   8827011.727 3   6878173.327 5  23857425.078    23857435.453           5.500
         5.750
     63555.108 4     57324.361 5  23671326.227    23671339.668           6.500
         8.250
  -2688015.576 6  -2094559.733 5  22809118.172    22809124.566          12.750
        11.250
   3412476.444 6   2659066.938 6  20983224.117    20983231.164          19.250
        22.750
 99  3  8 19  2 45.0000000  0  6G 2G 7G13G15G26G27
    329001.900 7    256361.923 6  21263328.211    21263335.074          22.000
        21.000
  -3635459.387 7  -2831261.700 6  20428631.648    20428638.375          20.250
        22.500
   8879909.844 3   6919392.519 5  23867491.469    23867501.684           5.500
         5.750
     78923.969 4     69300.039 5  23674250.477    23674264.191           6.250
         8.250
  -2688584.419 6  -2095002.997 5  22809009.375    22809016.633          12.250
        11.500
   3443812.289 6   2683484.433 6  20989187.250    20989194.219          19.250
        22.750
 99  3  8 19  3  0.0000000  0  6G 2G 7G13G15G26G27
    335764.984 7    261631.846 6  21264615.227    21264622.121          22.000
        21.000
  -3642578.280 7  -2836808.889 6  20427277.133    20427283.852          20.250
        22.750
   8932823.236 3   6960623.597 5  23877560.625    23877570.543           5.500
         5.750
     94441.679 4     81391.706 5  23677203.648    23677217.137           6.250
         8.250
  -2689017.331 6  -2095340.358 6  22808927.773    22808934.801          13.000
        12.500
   3475272.550 6   2707998.877 6  20995173.844    20995180.941          19.500
        22.750
 99  3  8 19  3 15.0000000  0  6G 2G 7G13G15G26G27
    342577.979 7    266940.656 6  21265911.547    21265918.492          21.750
        21.000
  -3649583.108 7  -2842267.191 6  20425944.141    20425951.035          20.000
        22.750
   8985747.782 3   7001863.368 5  23887631.680    23887641.836           5.250
         5.500
    110105.636 3     93597.325 5  23680183.930    23680197.980           6.000
         8.250
  -2689316.425 6  -2095573.443 6  22808870.852    22808878.387          13.500
        12.750
   3506856.397 6   2732609.621 6  21001184.063    21001191.160          19.500
        22.750
 99  3  8 19  3 30.0000000  0  6G 2G 7G13G15G26G27
    349444.898 7    272291.487 6  21267218.242    21267225.277          21.750
        21.000
  -3656465.463 7  -2847630.062 6  20424634.578    20424641.426          20.250
        22.750
   9038687.847 3   7043115.225 5  23897705.844    23897716.492           5.250
         5.500
    125920.956 4    105920.907 5  23683194.148    23683207.707           6.250
         8.000
  -2689474.947 6  -2095696.981 6  22808841.117    22808847.719          14.000
        12.250
   3538568.601 6   2757320.384 6  21007218.695    21007225.969          19.250
        22.500
 99  3  8 19  3 45.0000000  0  6G 2G 7G13G15G26G27
    356361.553 7    277681.071 6  21268534.313    21268541.438          21.500
        21.000
  -3663227.760 7  -2852899.388 6  20423347.797    20423354.473          20.500
        22.500
   9091638.427 3   7084375.305 5  23907782.492    23907792.750           5.250
         5.750
    141883.869 4    118359.496 5  23686231.734    23686244.961           6.500
         7.750
  -2689496.943 6  -2095714.124 5  22808836.586    22808843.371          13.500
        11.750
   3570403.093 6   2782126.438 6  21013276.656    21013283.750          19.250
        22.500
 99  3  8 19  4  0.0000000  0  6G 2G 7G13G15G26G27
    363319.952 7    283103.183 6  21269858.586    21269865.641          21.500
        20.500
  -3669869.853 7  -2858075.048 6  20422083.828    20422090.438          20.750
        22.250
   9144595.443 3   7125640.358 5  23917859.797    23917870.246           5.000
         5.500
    157991.473 4    130910.810 5  23689297.844    23689309.930           7.000
         7.750
  -2689384.585 6  -2095626.574 6  22808857.969    22808865.055          13.000
        12.000
   3602354.838 6   2807023.857 6  21019356.867    21019363.977          19.250
        22.250
 99  3  8 19  4 15.0000000  0  6G 2G 7G13G15G26G27
    370310.855 7    288550.622 6  21271188.758    21271195.836          21.500
        20.500
  -3676394.626 7  -2863159.287 6  20420841.945    20420848.422          20.750
        21.750
   9197554.786 3   7166907.234 5  23927937.672    23927948.027           5.000
         5.500
    174239.070 4    143571.253 5  23692389.516    23692401.547           7.250
         7.500
  -2689141.657 6  -2095437.289 6  22808903.813    22808911.535          12.500
        12.500
   3634419.972 6   2832009.636 6  21025458.633    21025465.781          19.250
        22.250
 99  3  8 19  4 30.0000000  0  6G 2G 7G13G15G26G27
    377333.157 7    294022.534 6  21272525.086    21272532.141          21.500
        20.500
  -3682797.241 7  -2868148.344 6  20419623.719    20419630.125          20.500
        21.500
   9250521.939 3   7208180.206 5  23938017.125    23938027.297           5.000
         5.500
    190629.420 5    156342.933 5  23695508.633    23695520.113           7.500
         7.250
  -2688765.748 6  -2095144.387 6  22808975.445    22808983.523          12.250
        13.250
   3666599.189 6   2857084.307 6  21031582.172    21031589.367          19.000
        22.250
 99  3  8 19  4 45.0000000  0  6G 2G 7G13G15G26G27
    384387.351 7    299519.288 6  21273867.484    21273874.578          21.500
        20.750
  -3689078.367 7  -2873042.728 6  20418428.359    20418434.945          20.250
        21.500
   9303495.642 3   7249458.272 5  23948097.852    23948108.168           5.000
         5.500
    207162.152 4    169225.547 5  23698654.180    23698666.301           7.250
         7.000
  -2688260.240 5  -2094750.519 6  22809071.203    22809080.293          11.500
        14.250
   3698889.340 6   2882245.419 6  21037726.836    21037733.918          18.750
        22.000
 99  3  8 19  5  0.0000000  0  6G 2G 7G13G15G26G27
    391474.966 7    305042.088 6  21275216.234    21275223.352          21.500
        20.750
  -3695237.411 7  -2877841.986 6  20417256.219    20417262.910          20.000
        21.500
   9356476.556 3   7290741.982 5  23958179.938    23958190.305           5.000
         5.500
    223837.744 4    182219.491 5  23701827.859    23701839.539           7.250
         7.000
  -2687624.347 5  -2094255.053 6  22809191.891    22809200.492          10.750
        13.000
   3731288.063 6   2907491.133 6  21043892.016    21043899.223          18.750
        22.000
 99  3  8 19  5 15.0000000  0  6G 2G 7G13G15G26G27
    398597.140 7    310591.822 6  21276571.516    21276578.695          21.500
        20.500
  -3701270.750 7  -2882543.285 6  20416108.023    20416114.621          20.250
        21.250
   9409470.159 3   7332035.544 5  23968264.391    23968274.691           5.000
         5.500
    240660.157 4    195327.835 5  23705028.727    23705040.844           6.750
         7.000
  -2686853.632 5  -2093654.505 5  22809338.734    22809346.238          10.500
        11.500
   3763800.270 6   2932825.281 6  21050079.016    21050086.211          18.750
        22.000
 99  3  8 19  5 30.0000000  0  6G 2G 7G13G15G26G27
    405750.502 7    316165.851 6  21277932.898    21277940.004          21.500
        20.500
  -3707180.591 7  -2887148.359 6  20414983.711    20414990.160          20.250
        21.500
   9462474.404 2   7373337.410 5  23978350.766    23978361.594           4.750
         5.500
    257627.169 4    208548.856 5  23708257.258    23708269.969           6.500
         7.250
  -2685948.454 5  -2092949.178 5  22809510.570    22809518.746          10.000
        11.500
   3796425.377 6   2958247.392 6  21056287.344    21056294.422          18.750
        22.000
 99  3  8 19  5 45.0000000  0  6G 2G 7G13G15G26G27
    412932.153 7    321761.927 6  21279299.563    21279306.598          21.500
        20.500
  -3712976.701 7  -2891664.813 6  20413880.859    20413887.332          20.750
        21.500
   9515483.336 2   7414642.952 5  23988437.914    23988448.926           4.750
         5.500
    274732.160 4    221877.391 5  23711512.328    23711525.469           6.500
         7.500
  -2684913.497 5  -2092142.750 6  22809708.000    22809716.098          10.500
        12.000
   3829156.551 6   2983752.159 6  21062516.039    21062523.172          18.750
        22.000
 99  3  8 19  6  0.0000000  0  6G 2G 7G13G15G26G27
    420149.134 7    327385.529 6  21280672.992    21280680.008          21.500
        20.500
  -3718656.218 7  -2896090.406 6  20412800.078    20412806.586          21.250
        21.500
   9568501.245 2   7455955.469 5  23998527.391    23998537.988           4.750
         5.250
    291980.597 4    235317.702 5  23714794.734    23714808.008           6.500
         7.500
  -2683742.671 5  -2091230.435 6  22809930.672    22809938.859          10.500
        12.000
   3862002.493 6   3009346.358 6  21068766.469    21068773.617          18.750
        21.750
 99  3  8 19  6 15.0000000  0  6G 2G 7G13G15G26G27
    427401.892 7    333037.011 6  21282053.180    21282060.102          21.750
        20.500
  -3724220.622 7  -2900426.300 6  20411741.367    20411747.797          21.250
        21.500
   9621528.245 2   7497275.078 5  24008618.172    24008628.621           4.750
         5.000
    309371.981 4    248869.389 5  23718104.023    23718117.359           6.500
         7.250
  -2682436.185 5  -2090212.403 5  22810179.125    22810187.012          10.250
        11.750
   3894966.575 6   3035032.612 6  21075039.266    21075046.496          18.750
        22.000
 99  3  8 19  6 30.0000000  0  6G 2G 7G13G15G26G27
    434694.454 7    338719.513 6  21283440.945    21283447.848          21.750
        20.500
  -3729669.905 7  -2904672.499 6  20410704.422    20410710.777          21.250
        21.500
   9674566.921 2   7538603.768 5  24018710.695    24018721.418           4.750
         5.000
    326908.020 4    262533.808 5  23721441.625    23721453.984           6.750
         7.250
  -2680991.752 5  -2089086.884 6  22810454.023    22810462.961          10.500
        13.250
   3928052.163 6   3060813.546 6  21081335.289    21081342.438          18.750
        21.750
 99  3  8 19  6 45.0000000  0  6G 2G 7G13G15G26G27
    442029.380 7    344435.018 6  21284836.758    21284843.609          21.750
        20.500
  -3735006.873 7  -2908831.173 6  20409688.688    20409695.215          21.250
        21.500
   9727616.783 2   7579941.183 5  24028805.844    24028817.066           4.500
         5.000
    344588.328 4    276310.647 5  23724806.359    23724818.000           6.750
         6.750
  -2679409.372 5  -2087853.893 6  22810755.414    22810764.820          10.750
        15.000
   3961258.639 6   3086688.678 6  21087654.297    21087661.555          18.750
        21.750
 99  3  8 19  7  0.0000000  0  6G 2G 7G13G15G26G27
    449411.580 7    350187.359 6  21286241.734    21286248.539          22.000
        20.500
  -3740228.589 7  -2912900.042 6  20408694.961    20408701.406          21.250
        21.500
   9780677.588 2   7621287.152 5  24038903.313    24038914.355           4.500
         5.000
    362415.632 4    290202.033 5  23728198.680    23728210.527           6.750
         6.750
  -2677686.832 5  -2086511.680 6  22811082.508    22811092.211           9.500
        14.750
   3994588.670 6   3112660.087 6  21093996.836    21094004.082          18.750
        21.500
 99  3  8 19  7 15.0000000  0  6G 2G 7G13G15G26G27
    456840.924 7    355976.443 6  21287655.516    21287662.227          22.000
        20.500
  -3745331.242 7  -2916876.132 6  20407724.102    20407730.492          21.250
        21.500
   9833753.099 2   7662644.534 5  24049003.492    24049014.316           4.500
         5.000
    380392.428 4    304209.899 5  23731618.641    23731631.914           6.250
         7.250
  -2675821.833 5  -2085058.466 6  22811436.258    22811446.738           8.750
        14.250
   4028047.217 6   3138731.638 6  21100363.875    21100371.082          18.750
        21.500
 99  3  8 19  7 30.0000000  0  6G 2G 7G13G15G26G27
    464316.085 7    361801.225 6  21289077.984    21289084.734          22.000
        20.500
  -3750315.485 7  -2920759.953 6  20406775.641    20406781.973          21.500
        21.500
   9886839.267 2   7704010.262 5  24059105.617    24059116.559           4.500
         5.000
    398516.484 3    318332.508 5  23735066.969    23735081.219           6.000
         7.500
  -2673817.280 5  -2083496.498 6  22811819.625    22811828.684          10.500
        15.250
   4061635.770 6   3164904.493 6  21106755.547    21106762.926          18.500
        21.500
 99  3  8 19  7 45.0000000  0  6G 2G 7G13G15G26G27
    471836.643 7    367661.379 6  21290509.070    21290515.805          22.000
        20.500
  -3755180.443 7  -2924550.828 6  20405849.945    20405856.297          21.500
        21.500
   9939936.804 2   7745384.825 5  24069209.891    24069220.660           4.500
         5.000
    416787.414 4    332569.556 5  23738544.484    23738557.828           6.250
         7.500
  -2671672.572 5  -2081825.308 6  22812227.344    22812236.840          10.750
        15.750
   4095352.244 6   3191177.023 6  21113171.484    21113178.871          18.500
        21.250
 99  3  8 19  8  0.0000000  0  6G 2G 7G13G15G26G27
    479399.559 7    373554.542 6  21291948.227    21291955.051          22.000
        20.500
  -3759926.570 7  -2928249.110 6  20404946.789    20404953.160          21.750
        21.500
   9993046.007 2   7786768.486 5  24079315.984    24079327.027           4.250
         5.000
    435204.356 4    346920.392 5  23742049.898    23742062.848           6.750
         7.750
  -2669391.052 5  -2080047.541 6  22812661.750    22812670.801          11.000
        14.750
   4129193.844 6   3217547.057 6  21119611.492    21119618.730          18.250
        21.250
 99  3  8 19  8 15.0000000  0  6G 2G 7G13G15G26G27
    486992.851 7    379471.365 6  21293393.242    21293400.176          22.000
        20.500
  -3764559.828 7  -2931859.438 6  20404065.039    20404071.500          21.500
        21.500
  10046160.410 2   7828156.173 5  24089423.805    24089434.695           4.250
         5.000
    453758.693 4    361378.286 5  23745580.656    23745593.742           7.250
         8.000
  -2666981.581 6  -2078170.040 6  22813121.219    22813128.445          12.250
        13.000
   4163152.451 6   3244008.263 6  21126073.477    21126080.945          18.000
        21.000
 99  3  8 19  8 30.0000000  0  6G 2G 7G13G15G26G27
    494620.866 7    385415.254 6  21294844.859    21294851.660          22.000
        20.500
  -3769075.716 7  -2935378.308 6  20403205.594    20403212.105          21.250
        21.500
  10099285.259 2   7869552.041 5  24099532.961    24099544.211           4.250
         5.000
    472454.280 5    375946.252 5  23749138.563    23749151.352           7.500
         8.000
  -2664441.969 6  -2076191.108 6  22813604.320    22813611.727          12.250
        12.750
   4197228.373 6   3270560.888 6  21132557.680    21132565.215          18.000
        21.000
 99  3  8 19  8 45.0000000  0  6G 2G 7G13G15G26G27
    502285.243 7    391387.479 6  21296303.391    21296310.258          22.000
        20.750
  -3773473.172 7  -2938804.890 6  20402368.508    20402375.141          21.000
        21.500
  10152421.806 2   7910957.010 5  24109644.719    24109655.988           4.250
         5.000
    491292.643 4    390625.461 5  23752723.461    23752736.145           7.250
         7.750
  -2661773.873 6  -2074112.090 6  22814111.938    22814119.902          12.000
        13.500
   4231420.260 6   3297203.872 6  21139064.359    21139071.973          17.750
        21.000
 99  3  8 19  9  0.0000000  0  6G 2G 7G13G15G26G27
    509987.318 7    397389.080 6  21297768.961    21297775.895          22.000
        20.750
  -3777752.500 7  -2942139.426 6  20401554.313    20401560.938          21.000
        21.500
  10205568.501 2   7952369.877 5  24119758.680    24119769.566           4.000
         4.750
    510273.152 4    405415.441 5  23756335.258    23756347.504           7.000
         7.500
  -2658979.342 6  -2071934.552 6  22814644.406    22814651.570          13.250
        13.750
   4265727.167 6   3323936.480 6  21145592.695    21145600.309          17.750
        21.000
 99  3  8 19  9 15.0000000  0  6G 2G 7G13G15G26G27
    517718.270 7    403413.173 6  21299240.211    21299247.078          22.000
        20.500
  -3781921.121 7  -2945387.709 6  20400761.102    20400767.598          21.000
        21.500
  10258719.234 2   7993785.892 5  24129872.484    24129883.832           4.000
         4.750
    529389.097 4    420310.953 5  23759972.133    23759984.980           6.750
         7.250
  -2656064.406 6  -2069663.175 6  22815199.133    22815206.500          13.250
        13.750
   4300145.268 6   3350755.733 6  21152142.289    21152149.957          17.500
        21.000
 99  3  8 19  9 30.0000000  0  6G 2G 7G13G15G26G27
    525482.459 7    409463.169 6  21300717.602    21300724.641          21.750
        20.750
  -3785978.267 7  -2948549.115 6  20399989.180    20399995.641          21.250
        21.250
  10311878.096 2   8035208.224 5  24139988.531    24139999.703           4.000
         4.750
    548645.034 4    435315.536 5  23763636.586    23763649.660           6.750
         7.250
  -2653023.819 6  -2067293.894 6  22815777.227    22815785.023          12.000
        13.750
   4334679.351 6   3377665.361 6  21158713.961    21158721.633          17.500
        21.000
 99  3  8 19  9 45.0000000  0  6G 2G 7G13G15G26G27
    533272.634 7    415533.415 6  21302200.039    21302207.055          21.750
        20.750
  -3789932.211 7  -2951630.104 6  20399236.781    20399243.188          21.500
        21.250
  10365034.998 2   8076629.064 5  24150104.219    24150115.664           4.000
         4.750
    568034.139 4    450423.898 5  23767326.844    23767339.289           7.000
         7.250
  -2649862.420 5  -2064830.489 6  22816378.211    22816386.922          11.250
        14.500
   4369317.685 6   3404656.224 6  21165305.422    21165312.945          17.500
        21.000
 99  3  8 19 10  0.0000000  0  6G 2G 7G13G15G26G27
    541087.937 7    421623.241 6  21303687.156    21303694.234          21.750
        20.750
  -3793785.565 7  -2954632.717 6  20398503.492    20398509.879          21.500
        21.250
  10418189.953 2   8118048.368 5  24160219.461    24160230.629           3.750
         4.500
    587557.056 4    465636.514 5  23771042.078    23771054.336           7.250
         7.000
  -2646579.157 6  -2062272.129 6  22817003.977    22817011.883          13.000
        14.750
   4404057.629 6   3431726.268 6  21171916.367    21171923.969          17.500
        21.000
 99  3  8 19 10 15.0000000  0  6G 2G 7G13G15G26G27
    548935.366 7    427738.103 6  21305180.484    21305187.629          21.500
        20.750
  -3797535.128 7  -2957554.454 6  20397790.000    20397796.359          21.500
        21.500
  10471344.379 2   8159467.257 5  24170334.086    24170345.727           3.750
         4.500
    607218.388 4    480957.001 5  23774783.898    23774795.238           7.250
         6.750
  -2643171.838 6  -2059617.083 6  22817652.438    22817659.793          13.250
        14.000
   4438906.403 6   3458881.108 6  21178547.914    21178555.402          17.750
        20.750
 99  3  8 19 10 30.0000000  0  6G 2G 7G13G15G26G27
    556820.723 7    433882.508 6  21306680.867    21306688.125          21.500
        20.750
  -3801178.589 7  -2960393.516 6  20397096.586    20397103.082          21.250
        21.500
  10524499.149 2   8200886.432 5  24180449.633    24180461.383           3.750
         4.500
    627021.065 5    496387.644 5  23778552.328    23778563.988           7.500
         6.500
  -2639636.540 6  -2056862.316 6  22818325.000    22818332.328          12.500
        13.250
   4473866.734 6   3486122.876 6  21185200.758    21185208.309          17.750
        20.750
 99  3  8 19 10 45.0000000  0  6G 2G 7G13G15G26G27
    564746.436 7    440058.368 6  21308189.109    21308196.430          21.500
        20.750
  -3804716.783 7  -2963150.543 6  20396423.203    20396429.727          21.000
        21.500
                   8242303.604 4                  20396434.484           4.250

    646966.334 4    511929.374 5  23782347.211    23782359.438           7.000
         6.500
  -2635970.435 6  -2054005.620 6  22819022.125    22819029.895          12.000
        13.000
   4508937.938 6   3513451.045 6  21191874.641    21191882.172          17.750
        20.750
 99  3  8 19 11  0.0000000  0  6G 2G 7G13G15G26G27
    572704.427 7    446259.380 6  21309703.477    21309710.793          21.250
        20.750
  -3808158.393 7  -2965832.314 6  20395768.219    20395774.902          21.000
        21.750
     38967.055 1   8283712.578 4  24200676.320    24200687.844           2.750
         3.500
    667045.987 4    527575.818 5  23786168.141    23786180.223           6.750
         6.250
  -2632178.796 5  -2051051.116 6  22819743.594    22819751.469          11.500
        13.750
   4544112.655 6   3540859.866 6  21198568.250    21198575.816          17.750
        20.750
 99  3  8 19 11 15.0000000  0  6G 2G 7G13G15G26G27
    580695.131 7    452485.881 6  21311224.047    21311231.352          21.250
        20.500
  -3811499.189 7  -2968435.525 6  20395132.531    20395139.227          21.000
        21.750
     92099.918 1   8325114.672 3  24210787.930    24210799.629           2.750
         3.250
    687262.191 4    543328.671 5  23790014.813    23790026.902           6.500
         6.250
  -2628255.594 5  -2047994.089 6  22820489.859    22820498.348          11.000
        14.250
   4579395.070 6   3568352.614 6  21205282.320    21205289.906          17.750
        21.000
 99  3  8 19 11 30.0000000  0  6G 2G 7G13G15G26G27
    588715.367 7    458735.396 6  21312750.305    21312757.547          21.250
        20.750
  -3814738.905 7  -2970959.980 6  20394516.188    20394522.680          21.000
        21.750
    145220.770 1   8366507.403 4  24220896.477    24220907.914           3.000
         3.750
    707615.054 4    559187.987 5  23793887.734    23793900.902           6.500
         6.500
  -2624201.215 5  -2044834.861 6  22821261.492    22821270.102          11.250
        14.750
   4614782.298 6   3595927.028 6  21212016.156    21212023.793          17.750
        20.500
 99  3  8 19 11 45.0000000  0  6G 2G 7G13G15G26G27
    596770.212 7    465011.872 6  21314283.195    21314290.340          21.250
        20.750
  -3817869.802 7  -2973399.642 6  20393920.313    20393926.840          21.250
        21.750
    198332.976 1   8407893.406 4  24231003.469    24231014.430           3.000
         3.750
    728107.814 4    575156.329 5  23797787.789    23797800.414           6.750
         6.750
  -2620011.306 6  -2041569.991 6  22822059.328    22822067.770          12.000
        15.500
   4650274.894 6   3623583.552 6  21218770.297    21218777.715          17.500
        20.500
 99  3  8 19 12  0.0000000  0  6G 2G 7G13G15G26G27
    604858.376 7    471314.321 6  21315822.352    21315829.570          21.250
        20.750
  -3820893.211 7  -2975755.542 6  20393344.867    20393351.410          21.250
        21.500
    251435.249 1   8449271.647 3  24241108.164    24241119.953           2.750
         3.250
    748736.656 4    591230.693 5  23801713.313    23801726.566           6.750
         7.250
  -2615688.421 5  -2038201.523 6  22822881.289    22822890.738          10.750
        16.250
   4685872.062 6   3651321.557 6  21225544.227    21225551.781          17.750
        20.500
 99  3  8 19 12 15.0000000  0  6G 2G 7G13G15G26G27
    612986.537 7    477647.925 6  21317369.039    21317376.402          21.250
        20.750
  -3823807.431 7  -2978026.364 6  20392790.477    20392796.969          21.250
        21.500
    304532.985 1   8490646.365 3  24251212.641    24251224.313           2.750
         3.250
    769504.827 4    607413.637 5  23805666.094    23805678.648           7.250
         7.500
  -2611229.438 5  -2034727.034 6  22823728.766    22823738.797           9.500
        15.000
   4721580.557 6   3679146.313 6  21232339.367    21232346.836          17.750
        20.250
 99  3  8 19 12 30.0000000  0  6G 2G 7G13G15G26G27
    621151.497 7    484010.210 6  21318922.852    21318930.277          21.000
        21.000
  -3826615.499 7  -2980214.470 6  20392256.055    20392262.668          21.000
        21.500
    357621.770 1   8532014.141 3  24261315.289    24261326.547           2.750
         3.250
    790407.375 5    623701.287 5  23809643.609    23809656.508           7.500
         7.750
  -2606638.940 5  -2031150.054 6  22824603.609    22824611.969          11.000
        13.750
   4757395.723 6   3707054.186 6  21239154.852    21239162.371          17.750
        20.250
 99  3  8 19 12 45.0000000  0  6G 2G 7G13G15G26G27
    629352.458 7    490400.552 6  21320483.453    21320490.805          21.250
        21.000
  -3829317.811 7  -2982320.167 6  20391741.859    20391748.387          20.500
        21.250
    410700.373 1   8573373.931 3  24271415.484    24271427.469           2.750
         3.000
    811443.076 5    640092.681 5  23813646.453    23813659.648           7.500
         8.000
  -2601915.013 5  -2027469.070 6  22825503.016    22825510.848          11.750
        13.250
   4793313.432 6   3735041.966 6  21245989.789    21245997.137          18.000
        20.000
 99  3  8 19 13  0.0000000  0  6G 2G 7G13G15G26G27
    637588.597 7    496818.297 6  21322050.820    21322058.094          21.000
        20.750
  -3831909.836 7  -2984339.933 6  20391248.523    20391254.996          20.750
        21.000
    463772.692 1   8614728.851 3  24281515.211    24281526.898           2.500
         3.000
    832613.775 4    656589.262 5  23817675.211    23817688.137           7.250
         7.750
  -2597057.887 5  -2023684.321 6  22826426.734    22826435.242          11.250
        13.500
   4829335.817 6   3763111.310 6  21252844.719    21252852.168          18.000
        20.000
 99  3  8 19 13 15.0000000  0  6G 2G 7G13G15G26G27
    645862.586 7    503265.542 6  21323625.289    21323632.566          21.250
        20.750
  -3834386.340 7  -2986269.679 6  20390777.242    20390783.832          21.000
        20.750
    516843.853 1   8656082.845 3  24291615.227    24291626.281           2.750
         3.000
    853922.950 4    673193.761 5  23821729.930    23821743.168           7.250
         7.750
  -2592065.716 5  -2019794.345 6  22827376.828    22827384.992          11.750
        13.250
   4865467.592 6   3791265.901 6  21259720.438    21259727.809          18.000
        20.000
 99  3  8 19 13 30.0000000  0  6G 2G 7G13G15G26G27
    654172.260 7    509740.590 6  21325206.445    21325213.770          21.000
        20.750
  -3836750.327 7  -2988111.754 6  20390327.547    20390333.824          21.000
        20.750
    569909.637 1   8697432.684 3  24301712.625    24301724.383           2.750
         2.750
    875368.828 4    689904.782 5  23825811.250    23825823.965           7.250
         7.500
  -2586943.129 6  -2015802.733 6  22828351.883    22828359.734          12.500
        13.000
   4901708.282 6   3819505.354 6  21266616.813    21266624.180          18.000
        20.000
 99  3  8 19 13 45.0000000  0  6G 2G 7G13G15G26G27
    662517.569 7    516243.411 6  21326794.578    21326802.012          21.000
        21.000
  -3839002.985 7  -2989867.079 6  20389898.867    20389905.230          21.250
        20.750
    622969.338 1   8738777.773 3  24311810.125    24311821.578           2.750
         2.750
    896948.595 4    706720.135 5  23829917.742    23829930.508           7.250
         7.000
  -2581693.585 6  -2011712.182 6  22829350.898    22829358.625          12.250
        12.500
   4938054.592 6   3847827.109 6  21273533.375    21273540.727          18.000
        20.000
 99  3  8 19 14  0.0000000  0  6G 2G 7G13G15G26G27
    670904.860 7    522778.937 6  21328390.695    21328398.055          21.000
        21.000
  -3841140.748 7  -2991532.877 6  20389492.141    20389498.402          21.250
        20.750
    676029.311 1   8780123.050 3  24321907.016    24321918.973           2.750
         2.750
    918666.928 4    723643.450 5  23834050.313    23834062.516           6.750
         6.250
  -2576313.220 6  -2007519.691 6  22830375.070    22830382.699          12.500
        12.750
   4974514.845 6   3876237.650 6  21280471.570    21280478.996          18.250
        20.250
 99  3  8 19 14 15.0000000  0  6G 2G 7G13G15G26G27
    679327.261 7    529341.822 6  21329993.422    21330000.781          21.250
        21.000
  -3843172.652 7  -2993116.187 6  20389105.344    20389111.730          21.250
        21.000
    729081.349 1   8821462.161 3  24332002.461    24332014.367           2.750
         2.750
    940518.059 4    740670.260 5  23838208.734    23838220.336           6.750
         6.000
  -2570811.642 5  -2003232.759 6  22831421.219    22831430.191          11.250
        13.750
   5011082.105 6   3904731.572 6  21287430.133    21287437.656          18.250
        20.250
 99  3  8 19 14 30.0000000  0  6G 2G 7G13G15G26G27
    687787.099 7    535933.875 6  21331603.328    21331610.730          21.250
        21.000
  -3845092.834 7  -2994612.446 6  20388739.883    20388746.453          21.000
        21.000
    782129.545 1   8862798.260 3  24342097.352    24342108.836           2.500
         2.750
    962507.295 4    757804.673 5  23842393.383    23842405.043           6.750
         6.000
  -2565185.567 5  -1998848.845 6  22832492.344    22832500.914          11.750
        14.000
   5047759.325 6   3933311.184 6  21294409.563    21294417.262          18.250
        20.500
 99  3  8 19 14 45.0000000  0  5G 2G 7G15G26G27
    696277.517 7    542549.763 6  21333218.906    21333226.266          21.250
        21.000
  -3846901.944 7  -2996022.150 6  20388395.617    20388402.203          21.000
        21.250
    984630.941 4    775043.832 5  23846602.914    23846614.938           6.500
         6.000
  -2559439.180 6  -1994371.153 6  22833585.922    22833593.875          12.750
        13.250
   5084541.823 6   3961972.826 6  21301409.086    21301416.723          18.250
        20.500
 99  3  8 19 15  0.0000000  0  5G 2G 7G15G26G27
    704803.206 7    549193.133 6  21334841.367    21334848.676          21.250
        21.000
  -3848591.793 7  -2997338.928 6  20388074.125    20388080.723          20.500
        21.250
   1006895.868 4    792393.057 5  23850839.852    23850852.059           6.750
         6.250
  -2553566.765 6  -1989795.250 6  22834703.563    22834711.238          13.250
        13.000
   5121438.629 6   3990723.533 6  21308430.359    21308437.934          18.000
        20.750
 99  3  8 19 15 15.0000000  0  5G 2G 7G15G26G27
    713365.574 7    555865.078 6  21336470.742    21336478.133          21.000
        21.000
  -3850162.382 7  -2998562.773 6  20387775.328    20387781.965          20.750
        21.500
   1029303.727 5    809853.669 5  23855104.883    23855117.023           7.500
         6.500
  -2547567.886 6  -1985120.811 6  22835845.469    22835852.762          14.000
        12.750
   5158453.479 6   4019566.229 6  21315474.039    21315481.684          18.000
        20.750
 99  3  8 19 15 30.0000000  0  5G 2G 7G15G26G27
    721957.949 7    562560.415 6  21338105.758    21338113.227          21.000
        21.000
  -3851622.967 7  -2999700.900 6  20387497.336    20387504.004          21.000
        21.500
   1051846.978 5    827419.791 5  23859394.711    23859406.887           7.500
         6.750
  -2541449.530 6  -1980353.264 6  22837009.297    22837016.730          12.500
        12.500
   5195580.499 6   4048496.324 6  21322539.156    21322546.758          17.750
        20.500
 99  3  8 19 15 45.0000000  0  5G 2G 7G15G26G27
    730585.554 7    569283.198 6  21339747.414    21339754.859          21.000
        21.000
  -3852967.657 7  -3000748.718 6  20387241.469    20387247.965          21.000
        21.500
   1074529.877 5    845094.727 5  23863710.633    23863723.035           7.500
         6.500
  -2535207.757 5  -1975489.590 6  22838195.852    22838204.215          10.500
        12.250
   5232821.987 6   4077515.616 6  21329625.930    21329633.691          17.750
        20.500
 99  3  8 19 16  0.0000000  0  5G 2G 7G15G26G27
    739252.634 7    576036.747 6  21341396.789    21341404.320          21.000
        21.000
  -3854196.014 7  -3001705.893 6  20387007.852    20387014.547          21.000
        21.500
   1097354.128 5    862879.803 5  23868054.531    23868066.293           7.750
         6.500
  -2528839.771 5  -1970527.547 5  22839408.438    22839416.090          11.250
        11.750
   5270177.711 6   4106623.926 6  21336734.492    21336742.340          17.750
        20.250
 99  3  8 19 16 15.0000000  0  5G 2G 7G15G26G27
    747954.770 7    582817.607 6  21343052.938    21343060.375          21.000
        20.750
  -3855315.927 7  -3002578.567 6  20386794.625    20386801.238          20.500
        21.250
   1120315.986 5    880772.118 5  23872424.094    23872436.371           7.750
         6.750
  -2522348.857 6  -1965469.684 6  22840644.086    22840651.355          12.250
        12.250
   5307642.505 6   4135817.222 6  21343863.852    21343871.555          17.500
        20.250
 99  3  8 19 16 30.0000000  0  5G 2G 7G15G26G27
    756696.470 7    589629.298 6  21344716.414    21344723.773          21.000
        20.750
  -3856321.268 7  -3003361.958 6  20386603.227    20386609.879          20.500
        21.000
   1143420.023 4    898775.210 5  23876820.758    23876832.957           7.250
         7.250
  -2515728.793 6  -1960311.187 6  22841904.023    22841912.273          12.250
        14.250
   5345218.313 6   4165097.027 6  21351014.344    21351022.016          17.500
        20.000
 99  3  8 19 16 45.0000000  0  5G 2G 7G15G26G27
    765477.140 7    596471.351 6  21346387.320    21346394.590          21.000
        20.500
  -3857212.373 7  -3004056.335 6  20386433.563    20386440.195          20.250
        21.000
   1166664.810 4    916887.985 5  23881243.250    23881256.719           6.500
         7.500
  -2508977.176 5  -1955050.214 6  22843188.664    22843197.543          11.750
        16.250
   5382905.653 6   4194463.741 6  21358186.094    21358193.563          17.500
        19.750
 99  3  8 19 17  0.0000000  0  5G 2G 7G15G26G27
    774299.471 7    603345.876 6  21348066.102    21348073.453          21.000
        20.500
  -3857989.460 7  -3004661.862 6  20386285.555    20386292.156          20.500
        21.000
   1190050.762 4    935110.740 5  23885693.484    23885706.965           6.500
         7.500
  -2502092.594 6  -1949685.655 6  22844499.180    22844507.781          12.250
        17.000
   5420706.697 6   4223919.051 6  21365379.367    21365386.922          17.750
        19.500
 99  3  8 19 17 15.0000000  0  5G 2G 7G15G26G27
    783164.442 7    610253.615 6  21349753.234    21349760.539          21.000
        20.250
  -3858659.058 7  -3005183.641 6  20386158.313    20386164.879          20.500
        21.250
   1213575.751 4    953441.815 5  23890170.039    23890183.820           6.250
         7.250
  -2495076.571 6  -1944218.670 6  22845834.438    22845842.410          12.750
        16.250
   5458619.873 6   4253461.739 6  21372594.016    21372601.637          17.500
        19.500
 99  3  8 19 17 30.0000000  0  5G 2G 7G15G26G27
    792077.826 7    617199.086 6  21351449.344    21351456.582          21.000
        20.250
  -3859219.501 7  -3005620.364 6  20386051.883    20386058.477          20.750
        21.250
   1237242.740 3    971883.579 5  23894673.883    23894687.121           6.000
         7.250
  -2487924.690 6  -1938645.806 6  22847194.961    22847202.883          12.000
        14.500
   5496646.420 6   4283092.765 6  21379830.281    21379837.922          17.500
        19.500
 99  3  8 19 17 45.0000000  0  5G 2G 7G15G26G27
    801037.390 7    624180.536 6  21353154.242    21353161.656          21.000
        20.250
  -3859673.504 7  -3005974.141 6  20385965.539    20385972.133          21.000
        21.250
   1261048.227 4    990433.252 5  23899204.313    23899217.184           6.250
         6.750
  -2480640.518 5  -1932969.842 6  22848581.188    22848588.840          11.250
        13.500
   5534781.700 6   4312808.520 6  21387087.281    21387094.875          17.250
        19.500
 99  3  8 19 18  0.0000000  0  5G 2G 7G15G26G27
    810045.732 7    631200.001 6  21354868.484    21354875.875          21.000
        20.250
  -3860023.803 7  -3006247.108 6  20385898.742    20385905.254          21.000
        21.250
   1284991.605 4   1009090.359 5  23903760.500    23903773.512           6.750
         6.750
  -2473221.926 5  -1927189.151 6  22849992.500    22850000.402          11.250
        13.000
   5573024.532 6   4342608.078 6  21394364.617    21394372.316          17.000
        19.750
 99  3  8 19 18 15.0000000  0  5G 2G 7G15G26G27
    819103.783 7    638258.197 6  21356592.188    21356599.645          20.750
        20.250
  -3860268.453 7  -3006437.749 6  20385852.102    20385858.648          21.000
        21.250
   1309076.213 4   1027857.564 5  23908344.117    23908356.945           7.000
         6.750
  -2465665.123 5  -1921300.742 6  22851430.867    22851438.570          11.000
        13.250
   5611379.199 6   4372494.779 6  21401663.289    21401671.039          16.750
        19.750
 99  3  8 19 18 30.0000000  0  5G 2G 7G15G26G27
    828205.043 7    645350.062 6  21358324.016    21358331.555          20.750
        20.500
  -3860406.108 7  -3006545.026 6  20385826.070    20385832.625          21.000
        21.000
   1333297.801 4   1046731.468 5  23912952.938    23912965.441           6.750
         6.250
  -2457972.254 5  -1915306.336 6  22852894.250    22852902.770           9.750
        13.500
   5649843.369 6   4402466.813 6  21408982.898    21408990.484          17.250
        19.000
 99  3  8 19 18 45.0000000  0  5G 2G 7G15G26G27
    837351.010 7    652476.765 6  21360064.445    21360071.969          21.000
        20.250
  -3860434.424 7  -3006567.096 6  20385820.711    20385827.191          20.500
        21.000
   1357656.049 4   1065711.885 5  23917588.133    23917600.711           6.500
         6.500
  -2450144.309 5  -1909206.701 6  22854384.156    22854392.566          10.750
        14.000
   5688419.854 6   4432526.357 6  21416323.773    21416331.391          17.250
        19.000
 99  3  8 19 19  0.0000000  0  5G 2G 7G15G26G27
    846543.802 7    659639.960 6  21361813.859    21361821.359          21.000
        20.250
  -3860351.638 7  -3006502.596 6  20385836.492    20385842.941          21.000
        21.000
   1382152.385 4   1084799.887 5  23922249.461    23922262.625           6.250
         6.500
  -2442181.027 6  -1903001.588 6  22855900.148    22855907.313          12.000
        12.750
   5727109.584 6   4462674.139 6  21423686.219    21423693.922          17.250
        19.000
 99  3  8 19 19 15.0000000  0  5G 2G 7G15G26G27
    855781.694 7    666838.292 6  21363571.773    21363579.270          21.000
        20.250
  -3860161.277 7  -3006354.266 6  20385872.773    20385879.199          21.000
        21.000
   1406785.083 4   1103994.146 5  23926937.492    23926950.266           6.500
         6.500
  -2434086.276 5  -1896694.004 5  22857440.031    22857447.121          11.750
        11.500
   5765910.471 6   4492908.547 6  21431069.859    21431077.566          17.250
        19.250
 99  3  8 19 19 30.0000000  0  5G 2G 7G15G26G27
    865063.715 7    674071.015 6  21365338.180    21365345.613          21.000
        20.250
  -3859859.837 7  -3006119.387 6  20385930.148    20385936.480          21.000
        20.750
   1431555.976 4   1123296.089 5  23931651.523    23931664.102           6.500
         6.500
  -2425857.390 5  -1890281.893 6  22859005.969    22859013.672          11.750
        12.500
   5804821.319 6   4523228.635 6  21438474.438    21438482.082          17.250
        19.000
 99  3  8 19 19 45.0000000  0  5G 2G 7G15G26G27
    874381.720 7    681331.776 6  21367111.281    21367118.633          21.000
        20.250
  -3859448.290 7  -3005798.709 6  20386008.500    20386014.988          21.250
        20.750
   1456460.358 4   1142702.075 5  23936389.805    23936402.910           6.250
         6.500
  -2417500.370 6  -1883769.957 6  22860596.844    22860604.742          13.000
        14.500
   5843837.624 6   4553630.901 6  21445898.953    21445906.840          17.000
        19.250
 99  3  8 19 20  0.0000000  0  5G 2G 7G15G26G27
    883740.092 7    688623.991 6  21368892.273    21368899.730          21.000
        20.250
  -3858920.640 7  -3005387.562 6  20386108.867    20386115.332          21.000
        21.000
   1481504.662 3   1162217.053 5  23941155.367    23941169.227           5.750
         7.000
  -2409008.990 6  -1877153.318 6  22862212.609    22862220.391          13.250
        14.750
   5882966.516 6   4584120.892 6  21453344.883    21453352.887          17.000
        19.250
 99  3  8 19 20 15.0000000  0  5G 2G 7G15G26G27
    893131.739 7    695942.133 6  21370679.492    21370686.805          21.250
        20.000
  -3858279.747 7  -3004888.173 6  20386230.508    20386237.137          20.750
        21.000
   1506685.150 3   1181838.125 5  23945947.039    23945961.488           5.500
         7.500
  -2400388.271 6  -1870435.898 6  22863852.906    22863860.961          12.750
        14.750
   5922202.722 6   4614694.494 6  21460811.375    21460819.324          16.750
        19.750
 99  3  8 19 20 30.0000000  0  5G 2G 7G15G26G27
    902554.005 7    703284.141 6  21372472.555    21372479.879          21.250
        20.000
  -3857524.315 7  -3004299.522 6  20386374.125    20386380.836          20.500
        21.000
   1532000.689 3   1201564.456 5  23950764.422    23950779.035           5.750
         7.750
  -2391640.223 6  -1863619.266 6  22865517.742    22865525.984          12.500
        15.250
   5961545.865 6   4645351.439 6  21468298.125    21468306.055          16.500
        19.750
 99  3  8 19 20 45.0000000  0  5G 2G 7G15G26G27
    912016.183 7    710657.241 6  21374273.258    21374280.438          21.500
        20.250
  -3856650.525 7  -3003618.659 6  20386540.422    20386547.082          20.500
        21.000
   1557456.757 3   1221400.257 5  23955608.797    23955622.977           6.000
         7.250
  -2382760.619 5  -1856700.137 6  22867206.453    22867215.602          10.750
        15.000
   6001002.208 6   4676096.587 6  21475806.414    21475814.469          16.750
        20.000
 99  3  8 19 21  0.0000000  0  5G 2G 7G15G26G27
    921516.408 7    718059.993 6  21376081.023    21376088.156          21.750
        20.250
  -3855664.848 7  -3002850.603 6  20386728.164    20386734.723          20.500
        21.000
   1583051.941 4   1241344.498 5  23960479.766    23960492.809           6.500
         6.500
  -2373751.727 5  -1849680.278 6  22868921.203    22868929.590          11.000
        14.000
   6040567.104 6   4706926.320 6  21483335.547    21483343.578          16.500
        20.000
 99  3  8 19 21 15.0000000  0  6G 2G 7G 4G15G26G27
    931054.100 7    725491.932 6  21377895.961    21377903.199          21.500
        20.250
  -3854566.741 7  -3001994.940 6  20386937.352    20386943.762          20.750
        20.500
    -47174.989 4     -5248.84415  24012605.813    24012619.211           6.250
         7.500
   1608788.197 5   1261398.673 5  23965378.836    23965390.031           7.500
         6.250
  -2364611.307 6  -1842557.895 6  22870661.203    22870668.984          12.750
        14.250
   6080242.854 6   4737842.422 6  21490885.625    21490893.672          16.750
        19.750
 99  3  8 19 21 30.0000000  0  6G 2G 7G 4G15G26G27
    940625.945 7    732950.490 6  21379717.406    21379724.699          21.750
        20.250
  -3853361.108 7  -3001055.495 6  20387166.852    20387173.141          21.000
        20.500
    -97716.933 4    -44632.063 5  24002988.227    24003001.367           6.250
         7.500
   1634660.647 5   1281558.997 5  23970301.773    23970312.867           7.750
         6.000
  -2355344.244 6  -1835336.827 6  22872424.633    22872432.598          13.000
        14.250
   6120024.819 6   4768841.301 6  21498455.859    21498463.934          16.500
        20.000
 99  3  8 19 21 45.0000000  0  6G 2G 7G 4G15G26G27
    950232.290 7    740435.936 6  21381545.469    21381552.715          21.750
        20.000
  -3852044.375 7  -3000029.474 6  20387417.445    20387423.758          21.250
        20.500
   -148252.565 4    -84010.355 5  23993371.586    23993384.828           6.500
         7.500
   1660669.319 4   1301825.446 5  23975250.492    23975262.414           6.500
         5.750
  -2345951.265 6  -1828017.638 6  22874212.188    22874219.996          13.500
        14.000
   6159912.916 6   4799922.878 6  21506046.344    21506054.324          16.500
        19.500
 99  3  8 19 22  0.0000000  0  5G 2G 7G 4G26G27
    959880.839 7    747954.262 6  21383381.703    21383388.934          21.750
        20.000
  -3850613.449 7  -2998914.477 6  20387689.727    20387696.238          21.000
        21.000
   -198778.752 4   -123381.286 5  23983756.438    23983769.637           6.250
         7.250
  -2336429.571 6  -1820598.144 6  22876023.914    22876032.078          12.750
        14.000
   6199912.005 6   4831090.940 6  21513658.117    21513666.066          16.750
        19.500
 99  3  8 19 22 15.0000000  0  5G 2G 7G 4G26G27
    969578.384 7    755510.775 6  21385226.977    21385234.148          21.750
        20.000
  -3849065.143 7  -2997708.003 6  20387984.297    20387990.941          21.000
        21.000
   -249290.600 4   -162741.021 5  23974144.281    23974157.676           6.500
         7.500
  -2326774.823 5  -1813074.997 6  22877860.164    22877869.371          10.750
        13.750
   6240025.004 6   4862347.767 6  21521291.203    21521299.293          16.750
        19.000
 99  3  8 19 22 30.0000000  0  5G 2G 7G 4G26G27
    979319.197 7    763100.993 6  21387080.664    21387088.012          21.750
        20.000
  -3847406.192 7  -2996415.320 6  20388299.969    20388306.676          21.000
        21.250
   -299797.328 4   -202096.789 5  23964532.938    23964546.402           6.500
         7.500
  -2316994.838 5  -1805454.270 6  22879721.195    22879730.199          10.250
        13.250
   6280244.378 6   4893687.478 6  21528944.797    21528952.945          16.750
        18.750
 99  3  8 19 22 45.0000000  0  5G 2G 7G 4G26G27
    989090.186 7    770714.725 6  21388940.008    21388947.266          21.750
        20.000
  -3845651.437 7  -2995047.981 6  20388633.883    20388640.617          21.000
        21.250
   -350317.585 4   -241463.070 5  23954919.406    23954932.676           6.500
         7.500
  -2307105.646 5  -1797748.420 6  22881603.133    22881612.438          10.250
        14.250
   6320556.091 6   4925099.149 6  21536615.945    21536624.035          16.750
        18.750
 99  3  8 19 23  0.0000000  0  5G 2G 7G 4G26G27
    998888.048 7    778349.400 6  21390804.508    21390811.789          21.750
        20.000
  -3843804.549 7  -2993608.850 6  20388985.469    20388992.090          21.000
        21.250
   -400853.567 4   -280841.615 5  23945302.516    23945315.637           6.500
         7.500
  -2297110.549 5  -1789960.079 6  22883504.188    22883514.832           9.000
        15.250
   6360956.862 6   4956580.208 6  21544303.945    21544312.113          16.750
        18.750
 99  3  8 19 23 15.0000000  0  5G 2G 7G 4G26G27
   1008708.463 7    786001.648 6  21392673.242    21392680.535          21.500
        20.000
  -3841865.321 7  -2992097.767 6  20389354.555    20389361.063          21.250
        21.250
   -451405.781 4   -320232.801 5  23935682.641    23935695.730           6.500
         7.500
  -2287010.816 5  -1782090.220 6  22885427.453    22885437.145          10.500
        16.000
   6401444.902 6   4988129.273 6  21552008.641    21552016.668          16.750
        18.500
 99  3  8 19 23 30.0000000  0  5G 2G 7G 4G26G27
   1018560.543 7    793678.569 6  21394548.172    21394555.379          21.500
        20.000
  -3839826.009 7  -2990508.696 6  20389742.656    20389749.051          21.250
        21.000
   -501967.083 4   -359631.064 5  23926060.906    23926073.941           6.500
         7.500
  -2276799.715 6  -1774133.543 6  22887371.406    22887380.188          12.500
        15.500
   6442027.713 6   5019752.184 6  21559731.328    21559739.340          16.750
        18.250
 99  3  8 19 23 45.0000000  0  5G 2G 7G 4G26G27
   1028449.852 7    801384.500 6  21396429.875    21396437.258          21.500
        20.000
  -3837678.820 7  -2988835.573 6  20390151.156    20390157.590          21.250
        21.000
   -552530.229 4   -399030.762 5  23916438.914    23916451.762           6.500
         7.500
  -2266469.398 5  -1766083.971 6  22889336.953    22889344.941          11.750
        13.000
   6482710.094 6   5051452.682 6  21567472.930    21567480.973          16.750
        18.250
 99  3  8 19 24  0.0000000  0  5G 2G 7G 4G26G27
   1038378.935 7    809121.424 6  21398319.359    21398326.645          21.500
        20.000
  -3835422.380 7  -2987077.313 6  20390580.477    20390586.953          21.000
        20.750
   -603090.630 4   -438428.324 5  23906817.672    23906830.645           6.750
         7.500
  -2256015.781 5  -1757938.317 5  22891326.031    22891333.426          10.500
        10.750
   6523497.307 6   5083234.862 6  21575234.516    21575242.535          16.750
        18.250
 99  3  8 19 24 15.0000000  0  5G 2G 7G 4G26G27
   1048350.453 7    816891.414 6  21400216.969    21400224.320          21.500
        20.000
  -3833057.109 7  -2985234.252 6  20391030.414    20391037.004          20.500
        20.500
   -653643.704 4   -477820.180 5  23897197.367    23897210.633           6.500
         7.750
  -2245434.851 5  -1749693.461 5  22893339.156    22893346.965          10.000
        10.750
   6564391.324 6   5115100.275 6  21583016.461    21583024.578          16.750
        18.250
 99  3  8 19 24 30.0000000  0  5G 2G 7G 4G26G27
   1058360.131 7    824691.139 6  21402121.703    21402129.164          21.500
        20.000
  -3830586.643 7  -2983309.225 6  20391500.391    20391507.156          20.250
        20.500
   -704189.002 4   -517205.960 5  23887578.883    23887591.766           6.500
         7.500
  -2234727.963 5  -1741350.465 5  22895377.156    22895384.711          10.750
        11.000
   6605390.566 6   5147047.681 6  21590818.500    21590826.617          16.750
        18.250
 99  3  8 19 24 45.0000000  0  5G 2G 7G 4G26G27
   1068413.047 7    832524.554 6  21404034.680    21404042.188          21.500
        20.000
  -3828003.170 7  -2981296.131 6  20391992.125    20391998.805          20.250
        20.500
   -754718.550 4   -556579.495 5  23877963.320    23877976.402           6.750
         7.500
  -2223887.847 5  -1732903.643 5  22897440.039    22897447.227          11.750
        10.750
   6646501.790 6   5179082.336 6  21598641.609    21598649.609          16.750
        18.000
 99  3  8 19 25  0.0000000  0  5G 2G 7G 4G26G27
   1078509.178 7    840391.644 6  21405956.031    21405963.402          21.250
        20.000
  -3825307.209 7  -2979195.392 6  20392505.180    20392511.859          20.500
        20.500
   -805228.627 4   -595937.831 5  23868351.313    23868364.473           6.500
         7.500
  -2212911.101 6  -1724350.347 5  22899529.211    22899536.379          12.750
        11.000
   6687725.282 6   5211204.480 6  21606486.297    21606494.438          16.750
        18.000
 99  3  8 19 25 15.0000000  0  5G 2G 7G 4G26G27
   1088654.286 7    848296.900 6  21407886.516    21407893.902          21.250
        20.000
  -3822493.113 7  -2977002.597 6  20393040.859    20393047.273          21.000
        20.500
   -855708.944 4   -635272.984 5  23858745.188    23858758.195           6.500
         7.500
  -2201788.738 6  -1715683.579 6  22901645.961    22901653.477          13.250
        12.500
   6729068.036 6   5243419.552 6  21614353.828    21614361.844          16.750
        18.000
 99  3  8 19 25 30.0000000  0  5G 2G 7G 4G26G27
   1098847.775 7    856239.855 6  21409826.375    21409833.816          21.250
        20.000
  -3819563.860 7  -2974720.070 6  20393598.258    20393604.750          21.000
        20.500
   -906163.403 4   -674588.007 5  23849143.984    23849156.730           6.500
         7.500
  -2190525.350 6  -1706906.948 6  22903789.031    22903797.129          12.500
        13.500
   6770525.985 6   5275724.382 6  21622242.883    21622251.035          16.500
        18.000
 99  3  8 19 25 45.0000000  0  5G 2G 7G 4G26G27
   1109095.110 7    864224.768 6  21411776.328    21411783.883          21.500
        20.000
  -3816514.603 7  -2972344.041 6  20394178.531    20394184.906          21.000
        20.250
   -956586.547 4   -713878.619 5  23839548.320    23839561.391           6.250
         7.500
  -2179118.700 5  -1698018.703 6  22905959.352    22905967.645          11.750
        13.750
   6812101.952 6   5308121.178 6  21630154.586    21630162.742          16.500
        18.000
 99  3  8 19 26  0.0000000  0  5G 2G 7G 4G26G27
   1119393.595 7    872249.538 6  21413736.133    21413743.688          21.250
        20.000
  -3813349.017 7  -2969877.353 6  20394780.906    20394787.375          20.500
        20.250
  -1006980.484 4   -753146.468 5  23829958.828    23829971.559           6.500
         7.750
  -2167572.335 6  -1689021.584 6  22908156.664    22908164.906          12.000
        13.500
   6853794.950 6   5340609.173 6  21638088.586    21638096.746          16.500
        18.000
 99  3  8 19 26 15.0000000  0  5G 2G 7G 4G26G27
   1129753.771 7    880322.379 6  21415707.555    21415715.051          21.250
        20.000
  -3810058.606 7  -2967313.415 6  20395406.953    20395413.426          20.500
        20.000
  -1057335.192 4   -792383.756 5  23820376.625    23820389.383           6.500
         7.750
  -2155877.951 5  -1679909.111 6  22910381.805    22910389.910          11.750
        12.500
   6895612.928 6   5373194.548 6  21646046.484    21646054.688          16.250
        18.000
 99  3  8 19 26 30.0000000  0  5G 2G 7G 4G26G27
   1140175.170 7    888442.928 6  21417690.594    21417698.039          21.250
        20.000
  -3806642.631 7  -2964651.625 6  20396057.133    20396063.570          20.500
        20.000
  -1107650.136 4   -831590.064 5  23810801.695    23810814.309           6.500
         7.750
  -2144034.009 5  -1670680.086 5  22912635.469    22912643.359          11.500
        11.000
   6937558.025 6   5405878.972 6  21654028.305    21654036.488          16.250
        18.000
 99  3  8 19 26 45.0000000  0  5G 2G 7G 4G26G27
   1150661.691 7    896614.219 6  21419686.367    21419693.719          21.250
        20.000
  -3803094.576 7  -2961886.914 6  20396732.359    20396738.793          21.000
        20.250
  -1157922.329 4   -870763.053 5  23801235.313    23801247.992           6.500
         7.750
  -2132038.129 6  -1661332.663 5  22914918.672    22914926.125          12.500
        10.750
   6979633.852 6   5438665.269 6  21662035.016    21662043.328          16.000
        17.750
 99  3  8 19 27  0.0000000  0  5G 2G 7G 4G26G27
   1161218.193 7    904840.035 6  21421695.250    21421702.652          21.500
        20.000
  -3799412.649 7  -2959017.893 6  20397432.984    20397439.520          21.250
        20.500
  -1208151.177 4   -909902.276 5  23791677.016    23791689.582           6.250
         7.750
  -2119889.609 6  -1651866.301 5  22917230.711    22917237.941          14.000
        11.750
   7021845.497 6   5471557.394 6  21670067.555    21670075.973          16.000
        17.750
 99  3  8 19 27 15.0000000  0  5G 2G 7G 4G26G27
   1171848.553 7    913123.410 6  21423718.070    21423725.441          21.250
        20.000
  -3795594.410 7  -2956042.651 6  20398159.688    20398166.227          21.250
        20.500
  -1258335.807 4   -949007.048 5  23782127.008    23782139.551           6.250
         7.750
  -2107588.177 6  -1642280.788 6  22919571.930    22919579.539          14.250
        13.000
   7064198.229 6   5504559.461 6  21678127.234    21678135.551          16.000
        17.500
 99  3  8 19 27 30.0000000  0  5G 2G 7G 4G26G27
   1182553.315 7    921464.756 6  21425755.148    21425762.684          21.250
        20.000
  -3791639.858 7  -2952961.196 6  20398912.133    20398918.719          21.250
        20.750
  -1308478.648 4   -988079.267 5  23772585.211    23772597.629           6.250
         8.000
  -2095138.567 6  -1632579.817 6  22921940.492    22921948.961          12.000
        13.500
   7106690.749 6   5537670.446 6  21686213.281    21686221.676          16.000
        17.500
 99  3  8 19 27 45.0000000  0  5G 2G 7G 4G26G27
   1193330.036 7    929862.179 6  21427805.797    21427813.414          21.000
        20.000
  -3787549.089 7  -2949773.593 6  20399690.430    20399697.109          21.250
        21.000
  -1358582.060 4  -1027120.762 5  23763050.531    23763063.027           6.250
         8.000
  -2082543.963 5  -1622765.890 6  22924336.813    22924345.723          10.500
        13.500
   7149321.063 6   5570888.811 6  21694325.594    21694333.984          16.000
        17.250
 99  3  8 19 28  0.0000000  0  5G 2G 7G 4G26G27
   1204179.005 7    938315.894 6  21429870.227    21429877.938          20.750
        20.000
  -3783321.036 7  -2946479.018 6  20400495.008    20400501.727          21.000
        21.000
  -1408644.970 4  -1066130.693 5  23753523.719    23753536.273           6.250
         8.000
  -2069799.892 5  -1612835.489 6  22926762.453    22926770.785          11.250
        14.000
   7192091.961 6   5604216.721 6  21702464.680    21702473.008          16.000
        17.000
 99  3  8 19 28 15.0000000  0  5G 2G 7G 4G26G27
   1215106.262 7    946830.617 6  21431949.422    21431957.191          20.500
        20.000
  -3778947.806 7  -2943071.310 6  20401327.172    20401333.992          20.750
        20.500
  -1458663.154 3  -1105105.780 5  23744005.445    23744018.039           6.000
         8.000
  -2056897.422 5  -1602781.647 6  22929217.734    22929226.324          11.750
        14.750
   7235010.299 6   5637659.528 6  21710631.766    21710640.262          15.750
        17.000
 99  3  8 19 28 30.0000000  0  5G 2G 7G 4G26G27
   1226113.174 7    955407.407 6  21434044.047    21434051.863          20.500
        19.750
  -3774423.997 7  -2939546.278 6  20402188.102    20402194.770          20.750
        20.500
  -1508634.614 4  -1144044.457 5  23734496.453    23734508.828           6.250
         8.000
  -2043835.473 5  -1592603.544 6  22931703.195    22931712.082          11.750
        15.750
   7278076.322 6   5671217.399 6  21718827.016    21718835.426          15.750
        16.750
 99  3  8 19 28 45.0000000  0  5G 2G 7G 4G26G27
   1237203.235 7    964048.990 6  21436154.414    21436162.160          20.500
        20.000
  -3769748.760 7  -2935903.244 6  20403077.945    20403084.461          21.000
        20.250
  -1558556.970 4  -1182944.869 5  23724996.078    23725008.777           6.250
         8.250
  -2030615.686 5  -1582302.467 6  22934218.789    22934227.707          11.500
        15.250
   7321290.129 6   5704890.437 6  21727050.227    21727058.770          15.500
        16.750
 99  3  8 19 29  0.0000000  0  5G 2G 7G 4G26G27
   1248381.273 7    972759.131 6  21438281.617    21438289.406          20.500
        20.000
  -3764918.474 7  -2932139.397 6  20403997.070    20404003.543          21.000
        20.250
  -1608426.175 4  -1221803.877 5  23715506.328    23715518.500           6.250
         8.250
  -2017237.787 5  -1571878.166 6  22936764.602    22936773.039          11.750
        14.000
   7364650.314 6   5738677.528 6  21735301.484    21735310.059          15.250
        16.750
 99  3  8 19 29 15.0000000  0  5G 2G 7G 4G26G27
   1259646.048 7    981536.850 6  21440425.281    21440433.000          20.500
        19.750
  -3759935.327 7  -2928256.439 6  20404945.352    20404951.895          20.750
        20.250
  -1658243.634 4  -1260622.562 5  23706025.953    23706038.539           6.250
         8.250
  -2003701.944 5  -1561330.793 6  22939340.375    22939348.418          11.250
        12.000
   7408154.694 6   5772576.977 6  21743580.016    21743588.684          15.000
        16.750
 99  3  8 19 29 30.0000000  0  5G 2G 7G 4G26G27
   1271002.373 7    990385.913 6  21442586.367    21442594.152          20.500
        20.000
  -3754794.468 7  -2924250.583 6  20405923.508    20405930.188          20.500
        20.250
  -1708002.314 4  -1299395.442 5  23696557.289    23696569.777           6.500
         8.500
  -1989999.585 5  -1550653.645 5  22941948.039    22941955.645          11.500
        11.250
   7451801.817 6   5806587.663 6  21751885.883    21751894.527          14.750
        16.500
 99  3  8 19 29 45.0000000  0  6G 2G 7G 4G 9G26G27
   1282453.659 7    999308.970 6  21444765.531    21444773.324          20.750
        20.000
  -3749494.358 7  -2920120.633 6  20406932.070    20406938.852          20.000
        20.500
  -1757696.999 4  -1338118.458 5  23687100.742    23687113.078           6.500
         8.250
    -43044.775 5                                  24127686.813           7.500

  -1976125.408 5  -1539842.608 5  22944588.234    22944596.008          11.500
        11.250
   7495590.595 6   5840708.722 6  21760218.609    21760227.457          14.750
        16.500
 99  3  8 19 30  0.0000000  0  5G 2G 7G 4G26G27
   1294012.629 7   1008315.932 6  21446965.031    21446972.652          21.000
        20.000
  -3744023.979 7  -2915858.009 6  20407972.984    20407979.734          20.000
        20.250
  -1807315.527 4  -1376782.136 5  23677658.539    23677670.883           6.750
         8.750
  -1962065.058 5  -1528886.521 5  22947263.125    22947271.242           9.750
        11.500
   7539533.574 6   5874949.938 6  21768580.711    21768589.566          14.750
        16.750
 99  3  8 19 30 15.0000000  0  6G 2G 7G 4G 9G26G27
   1305673.104 7   1017401.991 6  21449183.945    21449191.574          21.000
        20.000
  -3738391.062 7  -2911468.732 6  20409044.891    20409051.637          20.250
        20.500
  -1856863.389 4  -1415390.746 5  23668229.883    23668241.980           7.000
         8.750
    -42885.612 4     -4768.88215  24110180.883    24110190.887           7.250
         5.750
  -1947824.730 5  -1517790.217 5  22949972.227    22949981.543           8.500
        11.750
   7583622.987 6   5909305.253 6  21776970.750    21776979.438          14.750
        16.500
 99  3  8 19 30 30.0000000  4  2
END OF STATIC OBSERVATION                                   COMMENT
1.324                                                       COMMENT
 99  3  8 19 30 30.0000000  0  6G 2G 7G 4G 9G26G27
   1317437.573 7   1026569.084 6  21451422.703    21451430.277          21.000
        20.000
  -3732594.993 7  -2906952.327 6  20410147.734    20410154.273          20.500
        20.250
  -1906335.285 4  -1453940.157 5  23658815.703    23658827.684           7.250
         8.750
    -88754.560 5    -40510.909 5  24101452.688    24101462.336           7.750
         5.500
  -1933405.194 5  -1506554.269 6  22952717.172    22952725.715          10.000
        12.750
   7627858.450 6   5943774.377 6  21785388.602    21785397.219          14.750
        16.500
 99  3  8 19 30 45.0000000  0  6G 2G 7G 4G 9G26G27
   1329313.186 7   1035822.791 6  21453682.695    21453690.332          21.000
        20.000
  -3726635.233 7  -2902308.373 6  20411282.148    20411288.555          20.750
        20.250
  -1955725.034 4  -1492425.565 5  23649416.719    23649429.211           7.250
         8.750
   -134530.031 4    -76180.118 5  24092741.273    24092751.316           6.750
         5.750
  -1918801.333 6  -1495174.661 6  22955496.539    22955505.195          12.000
        14.000
   7672246.967 6   5978362.769 6  21793835.461    21793844.277          15.000
        16.500
 99  3  8 19 31  0.0000000  0  6G 2G 7G 4G 9G26G27
   1341300.441 7   1045163.478 6  21455963.859    21455971.504          21.000
        20.000
  -3720511.583 7  -2897536.709 6  20412447.500    20412453.852          21.000
        20.000
  -2005033.125 4  -1530847.333 5  23640033.891    23640046.352           7.250
         9.000
   -180207.539 3   -111772.928 5  24084049.336    24084059.891           6.000
         6.500
  -1904010.283 6  -1483649.191 6  22958311.492    22958320.113          13.000
        15.250
   7716789.750 6   6013071.363 6  21802311.828    21802320.512          15.000
        16.500
 99  3  8 19 31 15.0000000  0  6G 2G 7G 4G 9G26G27
   1353395.852 7   1054588.448 6  21458265.500    21458273.348          21.000
        20.000
  -3714224.459 7  -2892637.670 6  20413643.906    20413650.305          20.750
        20.000
  -2054261.551 5  -1569207.030 5  23630665.930    23630677.949           7.500
         8.750
   -225787.181 4   -147289.487 5  24075376.461    24075386.379           6.750
         7.000
  -1889028.713 6  -1471975.283 6  22961162.227    22961171.133          12.000
        16.250
   7761487.028 6   6047900.339 6  21810817.594    21810826.133          15.250
        16.750
 99  3  8 19 31 30.0000000  0  6G 2G 7G 4G 9G26G27
   1365594.866 7   1064094.154 6  21460586.938    21460594.719          21.000
        20.250
  -3707778.077 7  -2887614.525 6  20414870.516    20414877.004          20.500
        20.250
  -2103412.979 5  -1607506.709 5  23621312.828    23621324.828           7.500
         8.750
   -271271.700 5   -182731.919 5  24066720.906    24066731.402           7.500
         7.500
  -1873856.640 5  -1460152.930 6  22964049.344    22964058.277          11.500
        16.250
   7806336.948 6   6082848.271 6  21819352.273    21819360.859          15.500
        16.750
 99  3  8 19 31 45.0000000  0  6G 2G 7G 4G 9G26G27
   1377904.449 7   1073686.013 6  21462929.281    21462937.199          21.000
        20.250
  -3701165.836 7  -2882462.139 6  20416128.727    20416135.367          20.250
        20.250
  -2152479.506 5  -1645740.236 5  23611975.438    23611987.480           7.750
         8.750
   -316649.518 5   -218091.224 5  24058085.852    24058095.965           7.750
         7.750
  -1858488.301 6  -1448177.647 6  22966974.406    22966982.758          12.500
        16.000
   7851347.895 6   6117921.664 6  21827917.750    21827926.273          15.750
        16.750
 99  3  8 19 32  0.0000000  0  6G 2G 7G 4G 9G26G27
   1390341.233 7   1083376.989 6  21465296.031    21465303.867          21.000
        20.250
  -3694368.190 7  -2877165.280 6  20417422.242    20417428.953          20.250
        20.250
  -2201443.721 5  -1683894.033 5  23602657.883    23602669.664           8.000
         8.750
   -361901.865 5   -253352.748 5  24049474.680    24049484.523           7.750
         7.750
  -1842908.304 6  -1436037.429 6  22969939.047    22969947.543          12.250
        15.750
   7896542.299 6   6153138.021 6  21836518.156    21836526.695          15.750
        16.750
 99  3  8 19 32 15.0000000  0  6G 2G 7G 4G 9G26G27
   1402918.034 7   1093177.072 6  21467689.359    21467697.172          21.000
        20.250
  -3687371.861 7  -2871713.603 6  20418753.586    20418760.211          20.250
        20.250
  -2250291.941 5  -1721957.437 5  23593362.172    23593374.223           7.750
         8.500
   -407014.943 4   -288505.750 5  24040889.820    24040899.574           7.250
         7.250
  -1827105.462 5  -1423723.570 6  22972945.531    22972954.648          10.750
        15.000
   7941935.071 6   6188508.944 6  21845156.102    21845164.719          15.750
        16.750
 99  3  8 19 32 30.0000000  0  6G 2G 7G 4G 9G26G27
   1415645.117 7   1103094.254 6  21470111.516    21470119.180          21.250
        20.250
  -3680166.555 7  -2866099.095 6  20420124.555    20420131.203          20.250
        20.500
  -2299013.842 5  -1759922.419 5  23584090.766    23584102.352           8.000
         8.250
   -451976.430 4   -323540.640 5  24032333.828    24032343.609           7.000
         7.250
  -1811068.785 5  -1411227.505 6  22975997.438    22976006.086          10.500
        13.250
   7987536.847 6   6224042.725 6  21853833.961    21853842.340          15.750
        16.750
 99  3  8 19 32 45.0000000  0  6G 2G 7G 4G 9G26G27
   1428516.702 7   1113124.034 6  21472560.781    21472568.426          21.250
        20.250
  -3672758.463 7  -2860326.567 6  20421534.328    20421540.980          20.500
        20.500
  -2347617.757 5  -1797795.439 5  23574841.844    23574853.648           8.250
         8.500
   -496792.346 5   -358462.086 5  24023805.461    24023815.465           7.500
         7.500
  -1794805.001 5  -1398554.462 5  22979092.492    22979100.313          10.750
        11.500
   8033343.856 6   6259736.434 6  21862550.945    21862559.324          15.750
        16.750
 99  3  8 19 33  0.0000000  0  6G 2G 7G 4G 9G26G27
   1441526.706 7   1123261.679 6  21475036.586    21475044.051          21.500
        20.250
  -3665150.194 7  -2854398.052 6  20422982.133    20422988.844          20.500
        20.750
  -2396107.822 5  -1835579.756 5  23565613.922    23565625.738           8.250
         8.250
   -541470.432 5   -393276.129 5  24015303.930    24015313.984           8.250
         8.250
  -1778317.824 5  -1385707.313 5  22982229.703    22982237.418          11.250
        10.750
   8079351.943 6   6295586.817 6  21871305.781    21871314.398          15.250
        16.750
 99  3  8 19 33 15.0000000  0  6G 2G 7G 4G 9G26G27
   1454676.709 7   1133508.405 6  21477539.000    21477546.500          21.250
        20.000
  -3657337.103 7  -2848309.940 6  20424469.008    20424475.801          20.250
        20.750
  -2444479.897 5  -1873272.121 5  23556409.148    23556420.762           8.000
         8.250
   -586011.655 5   -427983.531 5  24006827.836    24006838.008           8.250
         8.250
  -1761606.030 6  -1372685.151 6  22985410.234    22985418.344          12.500
        12.250
   8125563.491 6   6331595.744 6  21880099.406    21880108.188          15.000
        16.750
 99  3  8 19 33 30.0000000  0  6G 2G 7G 4G 9G26G27
   1467970.003 7   1143866.790 6  21480068.500    21480076.129          21.250
        20.000
  -3649318.035 7  -2842061.320 6  20425995.086    20426001.840          20.250
        20.750
  -2492729.511 5  -1910869.073 5  23547227.484    23547239.090           8.250
         8.000
   -630415.038 4   -462583.522 5  23998378.063    23998387.988           7.250
         7.500
  -1744669.055 6  -1359487.534 6  22988633.625    22988641.945          13.250
        14.000
   8171984.340 6   6367767.765 6  21888933.266    21888941.930          15.000
        16.500
 99  3  8 19 33 45.0000000  0  6G 2G 7G 4G 9G26G27
   1481401.051 7   1154332.513 6  21482624.344    21482631.996          21.250
        20.000
  -3641100.923 7  -2835658.383 6  20427558.688    20427565.434          20.250
        20.750
  -2540864.647 5  -1948376.805 5  23538067.508    23538078.902           8.250
         8.000
   -674688.089 4   -497081.961 5  23989952.531    23989962.387           6.750
         6.500
  -1727516.204 6  -1346121.714 6  22991897.570    22991906.188          12.750
        14.750
   8218608.659 6   6404098.333 6  21897805.445    21897814.156          14.750
        16.500
 99  3  8 19 34  0.0000000  0  6G 2G 7G 4G 9G26G27
   1494968.683 7   1164904.665 6  21485206.258    21485213.801          21.250
        20.000
  -3632686.797 7  -2829101.924 6  20429159.977    20429166.730          20.250
        20.500
  -2588885.934 5  -1985795.836 5  23528929.320    23528940.711           8.250
         8.000
   -718831.406 5   -531479.326 5  23981552.930    23981562.410           7.750
         7.250
  -1710153.047 5  -1332592.029 6  22995201.633    22995210.336          11.750
        14.750
   8265435.451 6   6440586.662 6  21906716.195    21906725.227          14.250
        16.500
 99  3  8 19 34 15.0000000  0  6G 2G 7G 4G 9G26G27
   1508672.861 7   1175583.219 6  21487814.086    21487821.727          21.000
        20.000
  -3624076.547 7  -2822392.651 6  20430798.523    20430805.141          20.500
        20.500
  -2636793.480 5  -2023126.214 5  23519812.758    23519824.125           8.250
         8.000
   -762845.239 5   -565775.773 5  23973177.133    23973187.258           8.000
         8.250
  -1692581.387 5  -1318899.863 6  22998545.227    22998553.840          11.250
        14.250
   8312462.601 6   6477231.128 6  21915665.070    21915674.133          14.250
        16.500
 99  3  8 19 34 30.0000000  0  6G 2G 7G 4G 9G26G27
   1522498.022 7   1186356.043 6  21490444.938    21490452.645          21.000
        20.000
  -3615286.458 7  -2815543.238 6  20432471.414    20432477.934          21.000
        20.500
  -2684603.154 5  -2060380.340 5  23510714.555    23510725.816           8.250
         8.000
   -806745.514 4   -599983.717 5  23964822.563    23964833.582           6.750
         8.250
  -1674815.391 5  -1305056.270 6  23001926.039    23001934.648          10.750
        13.750
   8359672.859 6   6514018.264 6  21924649.266    21924658.180          14.250
        16.500
 99  3  8 19 34 45.0000000  0  6G 2G 7G 4G 9G26G27
   1536458.645 7   1197234.426 6  21493101.563    21493109.324          21.000
        20.000
  -3606300.761 7  -2808541.404 6  20434181.336    20434187.785          21.000
        20.500
  -2732298.067 5  -2097545.046 5  23501638.391    23501649.492           8.250
         7.750
   -850518.093 4   -634092.142 5  23956493.211    23956503.266           7.250
         7.500
  -1656839.026 5  -1291048.741 6  23005346.648    23005355.305          10.250
        13.000
   8407080.158 6   6550958.946 6  21933670.492    21933679.480          14.250
        16.250
 99  3  8 19 35  0.0000000  0  6G 2G 7G 4G 9G26G27
   1550546.582 7   1208212.008 6  21495782.313    21495790.238          21.000
        20.000
  -3597126.944 7  -2801392.986 6  20435926.945    20435933.516          21.000
        20.500
  -2779882.703 5  -2134623.813 5  23492583.188    23492594.645           8.000
         8.000
   -894173.292 5   -668109.149 5  23948185.961    23948195.699           7.750
         7.000
  -1638662.003 5  -1276884.861 6  23008805.234    23008814.156           9.250
        12.750
   8454675.988 6   6588046.531 6  21942727.664    21942736.672          14.500
        16.250
 99  3  8 19 35 15.0000000  0  6G 2G 7G 4G 9G26G27
   1564766.286 7   1219292.273 6  21498488.250    21498496.227          21.000
        20.000
  -3587763.380 7  -2794096.708 6  20437708.805    20437715.344          21.000
        20.500
  -2827353.445 5  -2171613.837 5  23483549.844    23483561.180           8.250
         8.000
   -937707.316 5   -702031.729 5  23939901.281    23939911.918           7.750
         7.500
  -1620281.456 5  -1262562.398 6  23012302.961    23012311.996           9.000
        13.000
   8502461.316 6   6625281.778 6  21951821.055    21951830.133          14.500
        16.000
 99  3  8 19 35 30.0000000  0  6G 2G 7G 4G 9G26G27
   1579113.296 7   1230471.736 6  21501218.422    21501226.457          21.000
        20.250
  -3578217.075 7  -2786658.034 6  20439525.313    20439531.980          21.000
        20.500
  -2874716.160 5  -2208519.682 5  23474536.883    23474548.211           8.250
         8.000
   -981123.540 5   -735862.511 5  23931639.906    23931650.313           8.000
         8.250
  -1601702.878 5  -1248085.633 6  23015838.570    23015847.477           9.750
        13.500
   8550428.320 6   6662658.585 6  21960949.156    21960957.941          14.750
        16.000
 99  3  8 19 35 45.0000000  0  6G 2G 7G 4G 9G26G27
   1593591.435 7   1241753.371 6  21503973.570    21503981.449          20.750
        20.250
  -3568484.486 7  -2779074.211 6  20441377.500    20441384.031          21.000
        20.500
  -2921967.578 5  -2245338.812 5  23465544.969    23465556.051           8.000
         8.000
  -1024416.142 5   -769596.956 5  23923401.031    23923412.172           7.500
         8.750
  -1582921.490 5  -1233450.836 6  23019412.711    23019421.258          10.500
        13.500
   8598575.770 6   6700176.005 6  21970111.469    21970120.113          14.750
        15.750
 99  3  8 19 36  0.0000000  0  6G 2G 7G 4G 9G26G27
   1608188.289 7   1253127.521 6  21506751.281    21506759.160          20.750
        20.000
  -3558577.341 7  -2771354.361 6  20443262.656    20443269.250          20.750
        20.500
  -2969119.860 5  -2282080.678 5  23456571.969    23456583.555           8.000
         8.250
  -1067596.688 5   -803244.060 5  23915184.297    23915195.141           7.500
         8.500
  -1563949.713 5  -1218667.663 6  23023022.563    23023031.645           9.500
        13.000
   8646886.716 6   6737820.825 6  21979304.773    21979313.375          14.750
        15.500
 99  3  8 19 36 15.0000000  0  6G 2G 7G 4G 9G26G27
   1622905.810 7   1264595.687 6  21509551.867    21509559.766          20.750
        20.000
  -3548492.052 7  -2763495.708 6  20445181.695    20445188.211          20.750
        20.250
  -3016167.460 5  -2318740.980 5  23447619.273    23447630.531           8.000
         8.500
  -1110662.391 5   -836801.718 5  23906989.047    23906999.707           7.500
         7.750
  -1544785.827 5  -1203734.809 6  23026669.414    23026678.355           9.250
        12.500
   8695360.978 6   6775592.898 6  21988528.922    21988537.629          15.000
        15.250
 99  3  8 19 36 30.0000000  0  6G 2G 7G 4G 9G26G27
   1637732.836 7   1276149.187 6  21512373.281    21512381.254          20.750
        20.000
  -3538238.650 7  -2755506.046 6  20447132.742    20447139.328          20.750
        20.250
  -3063121.585 5  -2355328.452 5  23438683.977    23438695.309           8.000
         8.750
  -1153623.557 4   -870277.894 5  23898812.742    23898823.820           6.250
         6.750
  -1525435.911 5  -1188656.997 6  23030352.266    23030360.539          10.750
        12.250
   8743987.631 6   6813483.725 6  21997782.797    21997791.348          15.000
        15.250
 99  3  8 19 36 45.0000000  0  6G 2G 7G 4G 9G26G27
   1652667.098 7   1287786.245 6  21515215.273    21515223.098          20.750
        20.000
  -3527819.435 7  -2747387.189 6  20449115.578    20449122.051          20.500
        20.250
  -3109982.100 5  -2391842.983 5  23429766.563    23429777.793           7.750
         8.750
  -1196482.723 4   -903674.619 5  23890657.586    23890668.031           6.750
         6.750
  -1505900.825 6  -1173434.880 6  23034070.141    23034077.863          12.750
        12.000
   8792766.124 6   6851492.865 6  22007064.922    22007073.566          14.750
        15.000
 99  3  8 19 37  0.0000000  0  6G 2G 7G 4G 9G26G27
   1667718.099 7   1299514.266 6  21518079.398    21518087.309          20.750
        20.000
  -3517224.805 7  -2739131.650 6  20451131.813    20451138.293          20.500
        20.250
  -3156739.193 5  -2428276.930 5  23420868.984    23420879.902           8.000
         9.000
  -1239229.312 5   -936983.621 5  23882523.367    23882533.719           7.500
         7.000
  -1486174.728 6  -1158063.913 5  23037824.039    23037831.656          14.000
        11.250
   8841707.481 6   6889628.902 6  22016378.281    22016386.953          14.750
        14.750
 99  3  8 19 37 15.0000000  0  6G 2G 7G 4G 9G26G27
   1682874.328 7   1311324.284 6  21520963.641    21520971.445          21.000
        20.250
  -3506468.605 7  -2730750.209 6  20453178.578    20453185.238          20.500
        20.500
  -3203406.982 5  -2464641.282 5  23411987.930    23411999.473           7.750
         9.250
  -1281872.747 5   -970212.219 5  23874408.109    23874419.035           7.500
         7.750
  -1466270.395 6  -1142554.048 5  23041611.555    23041619.145          13.000
        10.750
   8890798.276 6   6927881.394 6  22025719.859    22025728.379          14.750
        14.750
 99  3  8 19 37 30.0000000  0  6G 2G 7G 4G 9G26G27
   1698122.902 7   1323206.259 6  21523865.547    21523873.445          21.000
        20.250
  -3495561.791 7  -2722251.400 6  20455254.156    20455260.898          20.500
        20.750
  -3249997.380 5  -2500945.333 5  23403122.078    23403133.352           8.000
         9.500
  -1324422.888 5  -1003368.123 5  23866311.813    23866322.492           8.250
         8.250
  -1446199.081 5  -1126914.089 5  23045430.516    23045438.707          11.000
        11.000
   8940027.262 6   6966241.560 6  22035088.000    22035096.598          14.750
        14.750
 99  3  8 19 37 45.0000000  0  6G 2G 7G 4G 9G26G27
   1713465.262 7   1335161.314 6  21526785.109    21526792.977          21.000
        20.250
  -3484501.731 7  -2713633.185 6  20457358.703    20457365.617          20.500
        21.000
  -3296507.389 5  -2537186.755 5  23394271.438    23394282.500           8.000
         9.500
  -1366876.075 5  -1036448.477 5  23858233.250    23858243.602           8.500
         8.000
  -1425959.519 5  -1111143.051 6  23049281.750    23049290.469          10.500
        12.250
   8989396.667 6   7004711.154 6  22044482.688    22044491.453          14.750
        14.500
 99  3  8 19 38  0.0000000  0  6G 2G 7G 4G 9G26G27
   1728897.550 7   1347186.440 6  21529721.656    21529729.668          21.000
        20.250
  -3473291.437 7  -2704897.904 6  20459492.102    20459498.988          20.500
        21.000
  -3342941.415 5  -2573368.975 5  23385435.164    23385446.309           8.250
         9.750
  -1409237.813 5  -1069457.584 5  23850172.047    23850181.898           7.750
         7.250
  -1405556.708 6  -1095244.798 6  23053164.945    23053173.484          12.250
        13.000
   9038905.531 6   7043289.407 6  22053903.977    22053912.504          14.750
        14.500
 99  3  8 19 38 15.0000000  0  6G 2G 7G 4G 9G26G27
   1744415.061 7   1359277.974 6  21532674.625    21532682.551          20.750
        20.250
  -3461936.609 7  -2696049.995 6  20461652.766    20461659.730          20.250
        21.000
  -3389302.598 5  -2609494.435 5  23376612.773    23376624.039           8.000
        10.000
  -1451513.383 5  -1102399.534 5  23842127.234    23842137.109           7.750
         7.250
  -1384997.499 6  -1079224.662 6  23057077.086    23057085.875          12.500
        13.250
   9088552.566 6   7081975.328 6  22063351.594    22063360.176          14.750
        14.500
 99  3  8 19 38 30.0000000  0  6G 2G 7G 4G 9G26G27
   1760021.799 7   1371439.036 6  21535644.492    21535652.414          20.500
        20.250
  -3450434.849 7  -2687087.596 6  20463841.484    20463848.297          20.250
        21.000
  -3435587.767 5  -2645560.676 5  23367805.141    23367816.141           8.250
        10.000
  -1493699.001 5  -1135271.415 5  23834100.031    23834109.273           9.000
         7.500
  -1364276.940 5  -1063078.795 6  23061019.570    23061029.055          11.000
        14.000
   9138343.461 6   7120773.352 6  22072826.469    22072835.207          14.750
        14.250
 99  3  8 19 38 45.0000000  0  6G 2G 7G 4G 9G26G27
   1775708.373 7   1383662.305 6  21538629.586    21538637.539          20.500
        20.250
  -3438797.027 7  -2678019.180 6  20466056.125    20466062.938          20.500
        20.500
  -3481807.404 5  -2681575.843 5  23359009.563    23359020.535           8.250
        10.250
  -1535805.223 5  -1168081.440 5  23826087.180    23826097.020           8.750
         8.250
  -1343405.840 5  -1046815.645 6  23064990.531    23065000.766           9.500
        14.500
   9188269.696 6   7159676.832 6  22082327.070    22082335.855          14.750
        14.250
 99  3  8 19 39  0.0000000  0  6G 2G 7G 4G 9G26G27
   1791472.407 7   1395945.939 6  21541629.414    21541637.379          20.750
        20.250
  -3427027.649 7  -2668848.248 6  20468295.805    20468302.414          20.500
        20.500
  -3527965.705 5  -2717543.220 5  23350225.859    23350236.762           8.500
        10.500
  -1577835.949 4  -1200832.579 5  23818088.344    23818099.074           7.250
         8.750
  -1322392.783 5  -1030441.900 6  23068989.453    23068999.410           9.750
        14.750
   9238327.241 6   7198682.625 6  22091852.977    22091861.566          14.500
        14.250
 99  3  8 19 39 15.0000000  0  6G 2G 7G 4G 9G26G27
   1807320.878 7   1408295.360 6  21544645.164    21544653.184          20.500
        20.250
  -3415122.416 7  -2659571.462 6  20470561.164    20470567.813          20.500
        20.500
  -3574060.470 5  -2753461.107 5  23341454.180    23341465.277           8.500
        10.500
  -1619785.042 5  -1233520.125 5  23810106.391    23810115.934           8.500
         7.750
  -1301233.624 5  -1013954.298 6  23073016.453    23073025.809          10.750
        14.250
   9288518.473 6   7237792.590 6  22101404.070    22101412.930          14.250
        14.250
 99  3  8 19 39 30.0000000  0  6G 2G 7G 4G 9G26G27
   1823240.010 7   1420699.848 6  21547674.672    21547682.680          20.500
        20.250
  -3403093.637 7  -2650198.407 6  20472850.070    20472856.645          20.500
        20.500
  -3620104.602 5  -2789339.521 5  23332692.563    23332703.328           8.750
        10.750
  -1661668.258 5  -1266156.383 5  23802136.141    23802145.059           8.750
         6.750
  -1279940.432 5   -997362.257 6  23077068.891    23077077.570          11.750
        13.000
   9338828.885 6   7276995.430 6  22110977.609    22110986.551          14.000
        14.250
 99  3  8 19 39 45.0000000  0  6G 2G 7G 4G 9G26G27
   1839238.641 7   1433166.281 6  21550719.047    21550727.070          20.500
        20.250
  -3390931.317 7  -2640721.291 6  20475164.664    20475171.367          20.250
        20.500
  -3666089.649 5  -2825171.916 5  23323941.430    23323952.406           8.750
        10.750
  -1703481.438 5  -1298738.055 5  23794179.094    23794188.535           8.250
         7.750
  -1258505.628 6   -980659.831 5  23081147.805    23081155.910          14.000
        11.750
   9389267.628 6   7316298.262 6  22120575.930    22120584.832          14.000
        14.250
 99  3  8 19 40  0.0000000  0  6G 2G 7G 4G 9G26G27
   1855323.024 7   1445699.530 6  21553779.961    21553788.012          20.500
        20.250
  -3378628.630 7  -2631134.799 6  20477505.781    20477512.582          20.250
        20.750
  -3712009.045 5  -2860953.148 5  23315203.156    23315214.129           9.000
        10.750
  -1745216.472 5  -1331258.807 5  23786237.016    23786246.883           8.250
         8.250
  -1236920.148 6   -963839.981 5  23085255.969    23085263.648          15.000
        11.500
   9439840.850 6   7355705.883 6  22130199.703    22130208.762          14.000
        14.250
 99  3  8 19 40 15.0000000  0  6G 2G 7G 4G 9G26G27
   1871479.775 7   1458289.172 6  21556854.438    21556862.445          20.750
        20.250
  -3366200.367 7  -2621450.455 6  20479870.664    20479877.656          20.250
        21.000
  -3757874.956 5  -2896692.718 5  23306475.070    23306485.934           9.000
        10.750
  -1786888.819 5  -1363730.706 5  23778306.984    23778316.809           8.500
         8.000
  -1215198.242 6   -946913.828 6  23089389.359    23089397.613          13.750
        12.000
   9490534.305 6   7395207.195 6  22139846.414    22139855.508          13.750
        14.250
 99  3  8 19 40 30.0000000  0  6G 2G 7G 4G 9G26G27
   1887704.336 7   1470931.654 6  21559941.945    21559949.898          20.750
        20.250
  -3353650.562 7  -2611671.405 6  20482258.914    20482265.855          20.250
        21.000
  -3803689.325 5  -2932392.121 5  23297756.883    23297767.781           9.250
        10.750
  -1828499.022 5  -1396154.201 5  23770388.984    23770398.633           9.000
         8.250
  -1193343.196 5   -929883.957 5  23093547.820    23093556.441          11.000
        11.750
   9541343.325 6   7434798.549 6  22149515.094    22149524.313          13.500
        14.250
 99  3  8 19 40 45.0000000  0  6G 2G 7G 4G 9G26G27
   1904001.673 7   1483630.844 6  21563043.203    21563051.145          20.750
        20.000
  -3340973.268 7  -2601793.009 6  20484671.367    20484678.238          20.250
        21.000
  -3849447.543 5  -2968047.784 5  23289049.375    23289060.141           9.250
        11.000
  -1870039.253 5  -1428523.149 5  23762483.898    23762494.152           8.750
         8.750
  -1171350.058 5   -912746.499 5  23097732.578    23097740.984          10.000
        11.000
   9592272.463 6   7474483.510 6  22159206.695    22159215.828          13.500
        14.250
 99  3  8 19 41  0.0000000  0  6G 2G 7G 4G 9G26G27
   1920367.224 7   1496383.186 6  21566157.555    21566165.652          20.750
        20.000
  -3328174.439 7  -2591819.917 6  20487107.063    20487113.738          20.500
        20.500
  -3895155.276 5  -3003664.102 5  23280351.516    23280361.949           9.250
        10.750
  -1911513.940 5  -1460841.036 5  23754592.078    23754601.477           9.750
         8.250
  -1149222.774 5   -895504.489 5  23101943.727    23101951.523          10.500
        10.500
   9643315.856 6   7514257.498 6  22168919.844    22168929.039          13.250
        14.000
 99  3  8 19 41 15.0000000  0  6G 2G 7G 4G 9G26G27
   1936803.128 7   1509190.347 6  21569285.328    21569293.348          20.750
        20.000
  -3315250.616 7  -2581749.431 6  20489566.391    20489572.898          20.500
        20.500
  -3940809.273 5  -3039238.552 5  23271663.758    23271674.332           9.250
        10.750
  -1952920.816 5  -1493106.098 5  23746712.609    23746721.691           9.750
         8.000
  -1126957.050 5   -878154.596 5  23106180.398    23106188.645          10.250
        10.750
   9694474.484 6   7554121.275 6  22178655.188    22178664.457          13.000
        14.000
 99  3  8 19 41 30.0000000  0  6G 2G 7G 4G 9G26G27
   1953305.730 7   1522049.490 6  21572425.773    21572433.625          21.000
        20.000
  -3302201.965 7  -2571581.671 6  20492049.367    20492055.781          20.500
        20.250
  -3986409.158 5  -3074770.847 5  23262986.227    23262996.844           9.250
        10.750
  -1994264.976 5  -1525322.276 5  23738844.633    23738854.391           9.500
         8.500
  -1104550.794 5   -860695.206 6  23110444.234    23110452.969           9.750
        12.000
   9745745.545 6   7594072.665 6  22188411.820    22188421.039          13.000
        14.000
 99  3  8 19 41 45.0000000  0  6G 2G 7G 4G 9G26G27
   1969869.108 7   1534955.984 6  21575577.633    21575585.586          21.000
        20.000
  -3289034.092 7  -2561321.014 6  20494555.242    20494561.707          20.500
        20.000
  -4031958.585 5  -3110263.819 5  23254318.383    23254329.152           9.250
        10.750
  -2035552.849 5  -1557494.597 5  23730987.563    23730997.352           9.000
         8.500
  -1082008.607 5   -843129.915 6  23114733.969    23114743.023          10.000
        14.000
   9797123.327 6   7634107.218 6  22198188.883    22198198.016          12.750
        13.750
 99  3  8 19 42  0.0000000  0  6G 2G 7G 4G 9G26G27
   1986489.241 7   1547906.707 6  21578740.328    21578748.230          21.000
        19.750
  -3275756.232 7  -2550974.647 6  20497081.891    20497088.441          20.500
        20.000
  -4077463.105 5  -3145721.788 5  23245658.961    23245669.660           9.250
        10.500
  -2076785.764 5  -1589624.088 5  23723140.648    23723150.711           8.000
         8.250
  -1059334.349 5   -825461.717 6  23119048.750    23119058.184          10.500
        15.750
   9848600.256 6   7674219.032 6  22207984.336    22207994.000          12.750
        13.750
 99  3  8 19 42 15.0000000  0  6G 2G 7G 4G 9G26G27
   2003167.619 7   1560902.815 6  21581914.180    21581922.023          21.000
        19.750
  -3262370.150 7  -2540543.954 6  20499629.195    20499635.809          20.500
        20.000
  -4122919.649 5  -3181142.397 5  23237008.875    23237019.660           9.250
        10.500
  -2117963.795 5  -1621710.805 5  23715305.250    23715315.164           9.250
         9.000
  -1036529.680 5   -807691.892 6  23123388.586    23123397.754          11.000
        16.250
   9900176.308 6   7714408.077 6  22217799.078    22217808.652          12.750
        13.750
 99  3  8 19 42 30.0000000  0  6G 2G 7G 4G 9G26G27
   2019913.595 7   1573951.594 6  21585100.867    21585108.852          21.000
        19.750
  -3248870.401 7  -2530024.691 6  20502198.234    20502204.910          20.500
        20.250
  -4168321.708 5  -3216520.539 5  23228369.055    23228379.641           9.250
        10.250
  -2159080.812 5  -1653749.984 5  23707481.133    23707491.320           9.500
         9.500
  -1013589.632 5   -789816.580 6  23127753.914    23127762.871          11.250
        15.750
   9951858.674 6   7754679.954 6  22227633.984    22227643.438          12.750
        13.500
 99  3  8 19 42 45.0000000  0  6G 2G 7G 4G 9G26G27
   2036720.469 7   1587047.831 6  21588299.094    21588306.883          21.000
        19.750
  -3235262.333 7  -2519421.020 6  20504787.898    20504794.379          20.500
        20.250
  -4213677.398 5  -3251862.565 5  23219738.211    23219748.816           9.250
        10.000
  -2200140.849 5  -1685744.755 5  23699667.641    23699678.152           9.250
         9.750
   -990521.578 5   -771841.501 6  23132143.570    23132152.547          11.000
        15.000
  10003641.461 6   7795030.098 6  22237488.016    22237497.250          12.750
        13.500
 99  3  8 19 43  0.0000000  0  6G 2G 7G 4G 9G26G27
   2053587.204 7   1600190.710 6  21591508.703    21591516.371          21.000
        19.500
  -3221549.002 7  -2508735.327 6  20507397.398    20507403.898          20.750
        20.250
  -4258990.200 5  -3287171.166 5  23211115.383    23211126.164           9.250
        10.000
  -2241149.018 5  -1717699.091 5  23691863.703    23691873.965           9.000
         9.000
   -967327.878 5   -753768.529 6  23136557.289    23136566.211          10.250
        14.500
  10055520.700 6   7835455.388 6  22247360.195    22247369.680          12.500
        13.750
 99  3  8 19 43 15.0000000  0  6G 2G 7G 4G 9G26G27
   2070517.506 7   1613383.124 6  21594730.398    21594738.219          21.000
        19.500
  -3207727.231 7  -2497965.135 6  20510027.570    20510034.066          20.750
        20.250
  -4304253.994 5  -3322441.569 5  23202502.031    23202512.320           9.250
         9.750
  -2282105.045 5  -1749612.849 5  23684070.070    23684078.758           8.750
         7.500
   -944005.069 5   -735594.959 6  23140995.398    23141004.363          10.000
        14.250
  10107500.923 6   7875959.373 6  22257251.945    22257261.449          12.750
        13.500
 99  3  8 19 43 30.0000000  0  6G 2G 7G 4G 9G26G27
   2087507.438 7   1626621.997 6  21597963.563    21597971.402          21.000
        19.500
  -3193801.563 7  -2487113.989 6  20512677.633    20512684.172          20.500
        20.500
  -4349470.461 5  -3357675.116 5  23193897.547    23193908.012           9.500
         9.750
  -2323011.749 5  -1781488.159 5  23676285.844    23676295.336           9.000
         8.000
   -920559.631 5   -717325.832 6  23145457.227    23145466.023          10.750
        13.750
  10159577.106 6   7916538.127 6  22267162.070    22267171.375          12.750
        13.500
 99  3  8 19 43 45.0000000  0  6G 2G 7G 4G 9G26G27
   2104559.977 7   1639909.667 6  21601208.664    21601216.352          21.000
        19.500
  -3179773.305 7  -2476182.891 6  20515346.992    20515353.672          20.250
        20.500
  -4394634.614 5  -3392867.881 5  23185303.195    23185313.422           9.500
         9.500
  -2363861.698 5  -1813319.236 5  23668513.406    23668522.391          11.000
         9.250
   -896991.086 5   -698960.768 6  23149941.883    23149950.684          10.750
        13.000
  10211752.712 6   7957194.358 6  22277090.656    22277100.031          12.750
        13.750
 99  3  8 19 44  0.0000000  0  6G 2G 7G 4G 9G26G27
   2121670.383 7   1653242.422 6  21604464.711    21604472.348          20.750
        19.500
  -3165647.797 7  -2465176.020 6  20518034.969    20518041.688          20.250
        20.500
  -4439750.265 5  -3428022.866 5  23176717.820    23176728.109           9.500
         9.500
  -2404653.544 5  -1845105.053 5  23660749.961    23660759.313           9.750
         8.750
   -873305.817 5   -680504.753 6  23154449.453    23154458.008          10.250
        12.500
  10264024.103 6   7997925.224 6  22287037.547    22287046.977          12.750
        13.500
 99  3  8 19 44 15.0000000  0  6G 2G 7G 4G 9G26G27
   2138826.485 7   1666610.781 6  21607729.359    21607737.141          20.750
        19.500
  -3151434.345 7  -2454100.617 6  20520739.656    20520746.602          20.250
        20.750
  -4484823.999 5  -3463145.186 5  23168140.367    23168150.723           9.500
         9.500
  -2445396.377 5  -1876852.652 5  23652996.633    23653005.848           9.000
         8.250
   -849517.288 5   -661968.269 6  23158975.742    23158984.566          10.000
        12.250
  10316383.351 6   8038724.554 6  22297001.164    22297010.633          12.500
        13.500
 99  3  8 19 44 30.0000000  0  6G 2G 7G 4G 9G26G27
   2156038.116 7   1680022.415 6  21611004.531    21611012.367          20.500
        19.500
  -3137120.542 7  -2442947.018 6  20523463.547    20523470.414          20.250
        21.000
  -4529844.395 5  -3498225.950 5  23159573.258    23159583.711           9.500
         9.500
  -2486078.214 5  -1908552.741 5  23645254.859    23645264.461           9.000
         8.750
   -825616.014 5   -643343.927 6  23163524.281    23163532.965          10.250
        12.500
  10368844.889 6   8079603.579 6  22306984.422    22306993.887          12.500
        13.750
 99  3  8 19 44 45.0000000  0  6G 2G 7G 4G 9G26G27
   2173299.146 7   1693472.537 6  21614289.125    21614297.109          20.500
        19.500
  -3122707.631 7  -2431716.192 6  20526206.266    20526213.195          20.250
        21.000
  -4574815.479 5  -3533268.279 5  23151015.688    23151025.770           9.750
         9.500
  -2526697.786 5  -1940204.286 5  23637525.063    23637535.238           8.750
         9.250
   -801604.301 5   -624633.551 6  23168093.719    23168102.461          10.750
        12.750
  10421406.475 6   8120560.568 6  22316986.711    22316996.180          12.500
        13.750
 99  3  8 19 45  0.0000000  0  6G 2G 7G 4G 9G26G27
   2190604.725 7   1706957.380 6  21617582.328    21617590.422          20.250
        19.500
  -3108198.611 7  -2420410.474 6  20528967.289    20528974.113          20.500
        21.000
  -4619738.532 5  -3568273.191 5  23142466.938    23142476.957           9.750
         9.500
  -2567259.742 5  -1971810.945 5  23629806.430    23629816.082           9.500
         8.750
   -777484.712 5   -605839.110 6  23172683.594    23172692.453          10.500
        12.500
  10474063.136 6   8161591.649 6  22327007.070    22327016.465          12.750
        14.000
 99  3  8 19 45 15.0000000  0  6G 2G 7G 4G 9G26G27
   2207952.468 7   1720475.075 6  21620883.398    21620891.652          20.250
        19.500
  -3093596.309 7  -2409032.066 6  20531746.109    20531752.918          20.500
        21.000
  -4664614.199 5  -3603241.176 5  23133927.242    23133937.363          10.000
         9.500
  -2607768.734 5  -2003376.358 5  23622098.148    23622107.262          10.000
         8.750
   -753257.937 5   -586961.134 5  23177293.313    23177302.480           9.250
        11.750
  10526810.777 6   8202693.609 6  22337044.773    22337053.992          12.750
        13.750
 99  3  8 19 45 30.0000000  0  6G 2G 7G 4G 9G26G27
   2225341.903 7   1734025.256 6  21624192.539    21624200.699          20.250
        19.500
  -3078898.314 7  -2397579.092 6  20534543.188    20534549.902          20.750
        21.000
  -4709441.876 5  -3638171.773 5  23125396.656    23125406.969          10.000
         9.500
  -2648221.313 5  -2034897.811 5  23614399.828    23614409.648           9.500
         9.250
   -728922.571 5   -567998.554 5  23181923.805    23181933.336           8.250
        11.750
  10579647.937 6   8243865.342 6  22347099.430    22347108.914          12.750
        14.000
 99  3  8 19 45 45.0000000  0  6G 2G 7G 4G 9G26G27
   2242777.546 7   1747611.446 6  21627510.484    21627518.738          20.000
        19.500
  -3064099.390 7  -2386047.470 6  20537359.313    20537366.012          20.750
        21.000
  -4754219.398 5  -3673063.286 5  23116875.773    23116886.223          10.000
         9.750
  -2688610.647 5  -2066369.945 5  23606713.766    23606723.859           9.000
         9.000
   -704473.497 5   -548947.383 6  23186576.734    23186586.055           8.500
        12.500
  10632576.601 6   8285108.354 6  22357171.445    22357180.953          12.750
        14.000
 99  3  8 19 46  0.0000000  0  6G 2G 7G 4G 9G26G27
   2260247.427 7   1761224.314 6  21630834.938    21630843.125          20.250
        19.500
  -3049209.814 7  -2374445.210 6  20540192.633    20540199.305          21.000
        21.000
  -4798961.856 5  -3707927.460 5  23108361.680    23108371.836          10.000
        10.000
  -2728951.856 5  -2097804.604 5  23599037.141    23599047.066           9.000
         9.250
   -679924.119 5   -529818.055 6  23191248.297    23191257.719           9.250
        13.000
  10685584.008 6   8326412.737 6  22367258.672    22367268.102          13.000
        14.000
 99  3  8 19 46 15.0000000  0  6G 2G 7G 4G 9G26G27
   2277758.705 7   1774869.439 6  21634167.203    21634175.414          20.250
        19.500
  -3034222.446 7  -2362766.751 6  20543044.555    20543051.152          21.250
        20.750
  -4843668.268 5  -3742763.560 5  23099854.016    23099864.379          10.000
        10.000
  -2769243.667 5  -2129200.754 5  23591369.766    23591379.887           9.000
         9.500
   -655268.795 5   -510606.172 6  23195940.492    23195949.621          11.000
        13.500
  10738673.922 6   8367781.409 6  22377361.227    22377370.598          13.000
        13.750
 99  3  8 19 46 30.0000000  0  6G 2G 7G 4G 9G26G27
   2295316.474 7   1788550.789 6  21637508.281    21637516.461          20.250
        19.500
  -3019135.808 7  -2351010.941 6  20545915.477    20545921.918          21.250
        20.500
  -4888338.446 5  -3777571.432 5  23091353.531    23091363.988          10.000
        10.500
  -2809486.216 5  -2160558.530 5  23583711.828    23583721.340           9.000
         9.000
   -630503.493 6   -491308.564 6  23200653.500    23200662.395          12.250
        13.250
  10791848.749 6   8409216.254 6  22387480.180    22387489.594          13.000
        13.750
 99  3  8 19 46 45.0000000  0  6G 2G 7G 4G 9G26G27
   2312919.366 7   1802267.299 6  21640858.070    21640866.254          20.250
        19.500
  -3003952.549 7  -2339179.838 6  20548804.789    20548811.121          21.250
        20.500
  -4932979.952 5  -3812356.953 5  23082858.547    23082868.961          10.000
        10.750
  -2849686.461 5  -2191883.355 5  23576062.375    23576071.457           9.000
         8.750
   -605629.331 6   -471926.132 6  23205386.805    23205395.859          12.500
        12.250
  10845101.367 6   8450711.712 6  22397613.820    22397623.137          13.000
        13.750
 99  3  8 19 47  0.0000000  0  6G 2G 7G 4G 9G26G27
   2330583.406 7   1816031.461 6  21644219.578    21644227.691          20.250
        19.500
  -2988657.377 7  -2327261.528 6  20551715.344    20551721.781          21.250
        20.500
  -4977576.573 5  -3847107.507 5  23074371.984    23074382.559          10.000
        11.000
  -2889830.860 5  -2223164.655 5  23568422.586    23568432.141           8.500
         8.750
   -580631.933 5   -452447.667 5  23210143.688    23210152.152          11.750
        10.750
  10898442.201 6   8492275.903 6  22407764.523    22407773.902          13.000
        13.750
 99  3  8 19 47 15.0000000  0  6G 2G 7G 4G 9G26G27
   2348300.062 7   1829836.620 6  21647591.031    21647599.012          20.500
        19.500
  -2973262.624 7  -2315265.627 6  20554645.156    20554651.406          21.500
        20.250
  -5022139.239 5  -3881831.591 5  23065891.734    23065902.309           9.750
        11.250
  -2929931.499 5  -2254411.866 5  23560791.477    23560800.727           8.500
         8.250
   -555520.876 5   -432880.637 5  23214921.766    23214930.516          10.500
         9.500
  10951859.030 6   8533899.315 6  22417929.570    22417938.984          13.000
        13.500
 99  3  8 19 47 30.0000000  0  6G 2G 7G 4G 9G26G27
   2366074.168 7   1843686.552 6  21650973.289    21650981.414          20.500
        19.500
  -2957763.310 7  -2303188.242 6  20557594.563    20557600.836          21.250
        20.250
  -5066664.622 5  -3916526.623 5  23057418.828    23057429.469           9.750
        11.500
  -2969982.069 5  -2285620.059 5  23553170.688    23553180.688           9.250
         9.250
   -530294.276 5   -413223.567 5  23219721.945    23219731.266           9.250
         9.500
  11005358.119 6   8575586.828 6  22428110.047    22428119.676          13.000
        13.500
 99  3  8 19 47 45.0000000  0  6G 2G 7G 4G 9G26G27
   2383899.545 7   1857576.425 6  21654365.352    21654373.449          20.500
        19.500
  -2942167.129 7  -2291035.377 6  20560562.266    20560568.633          21.250
        20.250
  -5111158.395 5  -3951197.031 5  23048951.852    23048962.348           9.750
        11.750
  -3009987.764 5  -2316793.259 5  23545558.063    23545567.539           9.250
         9.250
   -504960.970 5   -393483.368 5  23224542.953    23224552.152           9.500
        10.250
  11058934.240 6   8617334.359 6  22438305.516    22438314.883          13.000
        13.500
 99  3  8 19 48  0.0000000  0  6G 2G 7G 4G 9G26G27
   2401773.975 7   1871504.531 6  21657766.844    21657774.891          20.750
        19.500
  -2926478.948 7  -2278810.823 6  20563547.656    20563554.125          21.000
        20.500
  -5155619.712 5  -3985842.142 5  23040491.141    23040501.637           9.500
        11.750
  -3049952.865 5  -2347934.866 5  23537952.031    23537961.871           8.500
         8.500
   -479526.344 5   -373664.214 5  23229383.492    23229392.379          10.500
        11.250
  11112588.046 6   8659142.438 6  22448515.359    22448524.852          12.750
        13.500
 99  3  8 19 48 15.0000000  0  6G 2G 7G 4G 9G26G27
   2419705.558 7   1885477.160 6  21661179.211    21661187.191          20.750
        19.500
  -2910690.769 7  -2266508.356 6  20566551.875    20566558.531          20.750
        20.500
  -5200035.836 5  -4020452.042 6  23032038.922    23032049.496           9.500
        12.250
  -3089865.811 5  -2379035.812 5  23530357.445    23530367.344           8.750
         9.000
   -453981.184 5   -353758.942 6  23234244.539    23234253.461          10.500
        12.500
  11166330.334 6   8701019.444 6  22458742.195    22458751.645          12.500
        13.500
 99  3  8 19 48 30.0000000  0  6G 2G 7G 4G 9G26G27
   2437682.710 7   1899485.306 6  21664600.273    21664608.176          21.000
        19.500
  -2894812.856 7  -2254135.954 6  20569573.203    20569579.965          20.500
        20.500
  -5244411.130 5  -4055030.135 6  23023594.680    23023605.160           9.500
        12.250
  -3129734.047 5  -2410101.925 5  23522771.344    23522780.359           9.500
         9.250
   -428333.348 5   -333773.661 6  23239125.141    23239134.383          10.000
        13.000
  11220153.500 6   8742959.486 6  22468984.461    22468994.230          12.250
        13.500
 99  3  8 19 48 45.0000000  0  6G 2G 7G 4G 9G26G27
   2455708.549 7   1913531.383 6  21668030.344    21668038.203          21.000
        19.500
  -2878841.268 7  -2241690.562 6  20572612.578    20572619.180          20.500
        20.750
  -5288734.884 5  -4089568.050 6  23015160.031    23015170.609           9.500
        12.250
  -3169551.067 5  -2441128.129 5  23515193.750    23515203.871           9.250
         9.750
   -402578.747 5   -313705.194 6  23244026.016    23244035.406           9.750
        13.250
  11274062.713 6   8784966.562 6  22479243.078    22479253.031          12.250
        13.500
 99  3  8 19 49  0.0000000  0  6G 2G 7G 4G 9G26G27
   2473779.290 7   1927612.462 6  21671469.281    21671477.129          21.000
        19.500
  -2862777.566 7  -2229173.397 6  20575669.578    20575676.180          20.750
        21.000
  -5333005.782 5  -4124064.786 6  23006735.422    23006746.086           9.250
        12.500
  -3209314.058 5  -2472112.223 5  23507626.641    23507636.551           8.750
         9.250
   -376722.931 5   -293557.856 6  23248946.211    23248955.617           9.750
        13.000
  11328056.901 6   8827039.877 6  22489517.781    22489527.695          12.000
        13.500
 99  3  8 19 49 15.0000000  0  6G 2G 7G 4G 9G26G27
   2491887.523 7   1941722.741 6  21674915.172    21674923.168          21.000
        19.250
  -2846629.669 7  -2216590.629 6  20578742.508    20578748.945          21.000
        21.000
  -5377228.779 5  -4158524.194 6  22998320.117    22998330.805           9.250
        12.500
  -3249025.177 5  -2503055.916 5  23500070.141    23500079.512           8.750
         8.750
   -350772.978 5   -273337.160 6  23253884.422    23253893.652          10.000
        12.750
  11382132.190 5   8869176.369 6  22499808.297    22499817.828          11.750
        13.500
 99  3  8 19 49 30.0000000  0  6G 2G 7G 4G 9G26G27
   2510028.344 7   1955858.418 6  21678367.195    21678375.270          20.750
        19.250
  -2830403.390 7  -2203946.778 6  20581830.266    20581836.789          21.000
        21.000
  -5421406.872 5  -4192948.610 6  22989913.352    22989923.828           9.250
        12.500
  -3288689.196 5  -2533962.880 5  23492522.109    23492532.324           8.750
         9.500
   -324734.185 5   -253047.234 6  23258839.656    23258848.695          10.000
        12.500
  11436287.233 5   8911375.005 6  22510113.570    22510123.563          11.500
        13.500
 99  3  8 19 49 45.0000000  0  6G 2G 7G 4G 9G26G27
   2528206.590 7   1970023.256 6  21681826.320    21681834.414          20.500
        19.500
  -2814095.110 7  -2191239.032 6  20584933.523    20584940.078          21.000
        21.000
  -5465533.952 5  -4227333.283 6  22981516.289    22981526.648           9.500
        12.500
  -3328300.647 5  -2564828.900 5  23484985.070    23484993.926           9.750
         9.500
   -298602.905 5   -232685.246 5  23263812.070    23263821.375           9.250
        11.750
  11490526.428 5   8953639.212 6  22520434.938    22520444.934          11.250
        13.500
 99  3  8 19 50  0.0000000  0  6G 2G 7G 4G 9G26G27
   2546414.189 7   1984210.971 6  21685291.047    21685299.371          20.500
        19.250
  -2797714.271 7  -2178474.748 6  20588050.633    20588057.262          21.000
        21.000
  -5509615.686 5  -4261682.616 6  22973127.523    22973137.945           9.500
        12.500
  -3367865.790 5  -2595658.830 5  23477455.766    23477465.516           9.750
         9.750
   -272384.907 5   -212255.685 5  23268801.016    23268810.422           9.000
        11.000
  11544842.466 5   8995963.309 6  22530770.984    22530781.004          11.250
        13.500
 99  3  8 19 50 15.0000000  0  6G 2G 7G 4G 9G26G27
   2564652.306 7   1998422.459 6  21688761.602    21688769.816          20.500
        19.250
  -2781258.869 7  -2165652.365 6  20591181.742    20591188.414          20.750
        21.000
  -5553652.579 5  -4295997.000 6  22964747.742    22964758.125           9.750
        12.500
  -3407381.270 5  -2626450.061 5  23469936.117    23469945.559           9.500
         9.500
   -246078.736 5   -191757.407 5  23273806.727    23273816.027           9.000
         9.250
  11599235.462 5   9038347.365 6  22541121.539    22541131.762          11.000
        13.250
 99  3  8 19 50 30.0000000  0  6G 2G 7G 4G 9G26G27
   2582922.613 7   2012659.027 6  21692238.242    21692246.426          20.250
        19.250
  -2764730.465 7  -2152773.092 6  20594326.953    20594333.711          20.500
        21.250
  -5597648.086 5  -4330279.153 6  22956375.484    22956385.828          10.000
        12.250
  -3446846.149 5  -2657201.866 5  23462425.930    23462435.313           9.000
         9.000
   -219685.383 5   -171191.182 5  23278829.703    23278838.195           9.500
         8.000
  11653702.898 5   9080789.420 6  22551486.375    22551496.621          11.000
        13.250
 99  3  8 19 50 45.0000000  0  6G 2G 7G 4G 9G26G27
   2601228.750 7   2026923.524 6  21695721.875    21695730.008          20.250
        19.250
  -2748126.972 7  -2139835.318 6  20597486.633    20597493.273          20.750
        21.250
  -5641601.516 5  -4364528.508 6  22948011.555    22948021.750          10.250
        12.250
  -3486259.733 5  -2687913.709 5  23454925.961    23454935.105           9.500
         9.000
   -193203.654 5   -150556.084 5  23283869.234    23283877.371          10.250
         8.000
  11708245.708 5   9123290.222 6  22561865.695    22561875.930          11.000
        13.250
 99  3  8 19 51  0.0000000  0  6G 2G 7G 4G 9G26G27
   2619571.741 7   2041216.734 6  21699212.484    21699220.730          20.250
        19.250
  -2731448.167 7  -2126838.854 6  20600660.734    20600667.367          21.000
        21.250
  -5685516.688 5  -4398748.052 6  22939654.695    22939664.871          10.500
        12.250
  -3525620.559 5  -2718584.438 5  23447435.883    23447445.254           9.750
         9.750
   -166636.311 5   -129854.270 5  23288925.156    23288933.172          11.000
         9.250
  11762862.170 5   9165848.404 6  22572258.773    22572269.082          10.750
        13.000
 99  3  8 19 51 15.0000000  0  6G 2G 7G 4G 9G26G27
   2637952.050 7   2055539.023 6  21702710.219    21702718.520          20.250
        19.250
  -2714693.380 7  -2113783.188 6  20603849.141    20603855.828          20.750
        21.250
  -5729395.595 5  -4432939.339 6  22931304.727    22931314.730          10.750
        12.000
  -3564928.345 5  -2749213.836 5  23439955.563    23439965.652           9.750
        10.250
   -139980.984 5   -109083.930 5  23293997.219    23294006.047          11.250
        11.250
  11817552.543 5   9208464.179 6  22582666.156    22582676.270          11.000
        13.000
 99  3  8 19 51 30.0000000  0  6G 2G 7G 4G 9G26G27
   2656374.616 7   2069894.238 6  21706215.930    21706224.148          20.250
        19.000
  -2697857.747 7  -2100664.524 6  20607052.836    20607059.609          21.000
        21.250
  -5773234.059 5  -4467099.116 6  22922962.781    22922972.715          10.750
        12.000
  -3604182.687 5  -2779801.587 5  23432485.969    23432495.156          10.000
         9.750
   -113229.732 5    -88238.859 6  23299087.727    23299096.852          11.250
        13.250
  11872319.710 5   9251139.799 6  22593088.086    22593098.293          11.000
        13.000
 99  3  8 19 51 45.0000000  0  6G 2G 7G 4G 9G26G27
   2674839.322 7   2084282.295 6  21709729.750    21709737.848          20.250
        19.250
  -2680943.401 7  -2087484.523 6  20610271.594    20610278.273          20.750
        21.250
  -5817033.521 5  -4501228.491 5  22914627.875    22914637.711          11.000
        11.750
  -3643386.689 5  -2810350.120 5  23425025.039    23425036.059           9.500
        11.000
    -86384.134 5    -67320.271 6  23304196.438    23304205.641          11.250
        14.250
  11927158.893 5   9293871.529 6  22603523.797    22603534.129          11.000
        13.000
 99  3  8 19 52  0.0000000  0  6G 2G 7G 4G 9G26G27
   2693350.575 7   2098706.624 6  21713252.141    21713260.398          20.250
        19.000
  -2663946.134 7  -2074239.909 6  20613506.063    20613512.723          21.000
        21.250
  -5860792.201 5  -4535326.093 5  22906300.930    22906310.602          11.250
        11.750
  -3682536.086 5  -2840856.055 5  23417575.539    23417585.508          10.000
        10.750
    -59440.953 5    -46325.640 6  23309323.781    23309332.766          11.750
        14.250
  11982071.223 5   9336660.267 6  22613973.469    22613983.668          11.000
        12.750
 99  3  8 19 52 15.0000000  0  6G 2G 7G 4G 9G26G27
   2711906.582 7   2113165.824 6  21716783.438    21716791.500          20.250
        18.750
  -2646864.371 7  -2060929.461 6  20616756.625    20616763.164          20.750
        21.000
  -5904511.499 5  -4569393.014 5  22897981.398    22897991.070          11.250
        11.750
  -3721633.828 5  -2871321.800 5  23410135.836    23410145.027          10.750
         9.750
    -32402.019 6    -25256.403 6  23314468.906    23314478.043          12.500
        12.750
  12037052.981 5   9379503.101 6  22624436.008    22624446.313          11.000
        12.750
 99  3  8 19 52 30.0000000  0  6G 2G 7G 4G 9G26G27
   2730513.076 7   2127664.359 6  21720324.195    21720332.230          20.500
        18.750
  -2629692.914 7  -2047549.119 6  20620024.148    20620030.555          20.500
        21.000
  -5948187.681 5  -4603426.334 6  22889669.984    22889679.855          11.250
        12.000
  -3760676.011 5  -2901744.222 5  23402705.031    23402715.484           9.250
        10.500
     -5263.880 6     -4109.837 5  23319633.383    23319642.281          12.750
        11.000
  12092106.893 5   9422402.154 6  22634912.523    22634922.641          11.000
        12.500
 99  3  8 19 52 45.0000000  0  6G 2G 7G 4G 9G26G27
   2749175.902 7   2142206.796 6  21723875.742    21723883.793          20.500
        18.750
  -2612424.207 7  -2034092.994 6  20623310.148    20623316.480          20.750
        21.000
  -5991811.823 5  -4637419.096 6  22881368.531    22881378.266          11.500
        12.000
  -3799658.580 5  -2932120.179 5  23395287.766    23395297.391          10.000
        10.250
     21983.288 6     17121.707 5  23324818.453    23324826.762          12.250
         9.000
  12147242.204 5   9465364.638 6  22645404.656    22645414.793          11.000
        12.500
 99  3  8 19 53  0.0000000  0  6G 2G 7G 4G 9G26G27
   2767895.957 7   2156793.817 6  21727438.102    21727445.918          20.500
        18.750
  -2595054.937 7  -2020558.519 6  20626615.469    20626622.016          20.500
        20.750
  -6035379.704 5  -4671368.022 6  22873077.602    22873087.441          11.500
        12.250
  -3838580.633 5  -2962449.010 5  23387881.148    23387890.301          10.500
         9.750
     49341.557 5     38439.843 5  23330023.891    23330032.816          10.500
         8.500
  12202461.854 5   9508392.838 6  22655912.555    22655922.977          10.750
        12.500
 99  3  8 19 53 15.0000000  0  6G 2G 7G 4G 9G26G27
   2786670.336 7   2171423.182 6  21731010.750    21731018.668          20.500
        18.750
  -2577591.111 7  -2006950.355 6  20629938.672    20629945.195          20.250
        20.750
  -6078896.179 5  -4705276.887 6  22864796.742    22864806.445          11.500
        12.250
  -3877447.249 5  -2992734.638 5  23380484.945    23380495.109          10.500
        10.750
     76806.881 5     59841.363 5  23335250.234    23335259.660           8.500
         9.500
  12257760.875 5   9551482.883 6  22666435.594    22666445.977          10.750
        12.250
 99  3  8 19 53 30.0000000  0  6G 2G 7G 4G 9G26G27
   2805495.892 7   2186092.413 6  21734593.211    21734601.176          20.500
        18.750
  -2560035.989 7  -1993271.056 6  20633279.164    20633285.738          20.250
        20.750
  -6122363.040 5  -4739147.094 6  22856525.242    22856535.004          11.250
        12.250
  -3916262.428 5  -3022980.163 5  23373098.391    23373109.465           9.750
        11.500
    104377.342 5     81324.778 5  23340496.875    23340506.430           8.000
        11.250
  12313136.393 5   9594632.547 6  22676973.438    22676983.703          10.750
        12.250
 99  3  8 19 53 45.0000000  0  6G 2G 7G 4G 9G26G27
   2824381.253 7   2200808.251 6  21738186.836    21738194.777          20.500
        18.750
  -2542384.471 7  -1979516.644 6  20636638.172    20636644.922          20.000
        21.000
  -6165772.846 5  -4772972.842 6  22848264.586    22848274.359          11.250
        12.500
  -3955018.456 5  -3053179.585 5  23365723.336    23365733.168           9.750
        10.250
    132055.455 5    102892.067 6  23345763.992    23345773.613           8.750
        13.000
  12368594.741 5   9637846.741 6  22687526.883    22687537.246          10.500
        12.250
 99  3  8 19 54  0.0000000  0  6G 2G 7G 4G 9G26G27
   2843314.392 7   2215561.318 6  21741789.648    21741797.707          20.500
        18.750
  -2524650.428 7  -1965697.919 6  20640012.914    20640019.672          20.000
        21.000
  -6209137.431 5  -4806763.351 6  22840012.570    22840022.285          11.000
        12.750
  -3993726.605 5  -3083341.753 5  23358357.859    23358367.508          10.500
        10.000
    159825.347 5    124530.886 6  23351048.563    23351058.215          10.000
        14.000
  12424122.912 5   9681115.344 6  22698093.586    22698104.059          10.500
        12.250
 99  3  8 19 54 15.0000000  0  6G 2G 7G 4G 9G26G27
   2862299.224 7   2230354.666 6  21745402.273    21745410.383          20.250
        18.750
  -2506828.259 6  -1951810.532 6  20643404.422    20643411.258          19.750
        21.000
  -6252449.532 5  -4840512.971 6  22831770.328    22831780.141          10.750
        12.750
  -4032379.264 5  -3113460.641 5  23351001.602    23351012.168           9.500
        10.500
    187693.822 5    146246.530 6  23356351.891    23356361.516          10.750
        14.250
  12479728.973 5   9724444.651 6  22708675.156    22708685.527          10.250
        12.250
 99  3  8 19 54 30.0000000  0  6G 2G 7G 4G 9G26G27
   2881336.985 7   2245189.259 6  21749025.148    21749033.355          20.250
        19.000
  -2488919.340 6  -1937855.545 6  20646812.477    20646819.207          19.750
        21.250
  -6295707.093 5  -4874220.081 6  22823538.680    22823548.492          10.750
        13.000
  -4070975.244 5  -3143535.381 5  23343657.805    23343667.164          10.750
        10.000
    215661.561 5    168039.546 6  23361674.016    23361683.508          10.500
        13.500
  12535414.981 5   9767836.245 6  22719271.836    22719282.406          10.000
        12.000
 99  3  8 19 54 45.0000000  0  6G 2G 7G 4G 9G26G27
   2900427.072 7   2260064.621 6  21752657.953    21752666.203          20.250
        19.000
  -2470927.775 6  -1923836.156 6  20650236.148    20650243.016          19.750
        21.250
  -6338911.875 5  -4907886.057 6  22815317.125    22815326.711          10.750
        13.000
  -4109514.708 5  -3173566.092 5  23336323.289    23336333.797          10.250
        10.750
    243728.330 5    189909.717 6  23367014.977    23367024.195           9.250
        12.500
  12591182.259 5   9811291.164 6  22729884.336    22729894.750          10.250
        12.250
 99  3  8 19 55  0.0000000  0  6G 2G 7G 4G 9G26G27
   2919577.085 7   2274986.684 6  21756302.156    21756310.480          20.250
        19.250
  -2452847.416 6  -1909747.582 6  20653676.781    20653683.563          19.750
        21.250
  -6382055.823 5  -4941504.646 6  22807106.820    22807116.660          10.500
        13.000
  -4147990.449 5  -3203547.116 5  23329001.836    23329012.258          10.000
        11.250
    271900.983 5    211862.383 6  23372375.945    23372385.301           7.750
        12.250
  12647034.798 5   9854812.519 6  22740512.219    22740523.094          10.000
        12.000
 99  3  8 19 55 15.0000000  0  6G 2G 7G 4G 9G26G27
   2938787.985 7   2289956.190 6  21759957.734    21759966.188          20.250
        19.250
  -2434677.179 6  -1895588.969 6  20657134.422    20657141.238          19.750
        21.250
  -6425136.494 5  -4975073.919 6  22798908.898    22798918.637          10.500
        13.250
  -4186397.608 5  -3233474.724 5  23321692.789    23321702.387           9.750
        10.000
    300178.615 4    233896.839 6  23377757.047    23377766.402           7.250
        12.500
  12702970.217 5   9898398.447 6  22751156.633    22751167.453          10.000
        12.000
 99  3  8 19 55 30.0000000  0  6G 2G 7G 4G 9G26G27
   2958055.829 7   2304970.072 6  21763624.234    21763632.711          20.250
        19.250
  -2416420.830 7  -1881363.256 6  20660608.531    20660615.285          20.000
        21.500
  -6468157.000 5  -5008596.311 6  22790722.109    22790731.969          10.250
        13.250
  -4224736.856 5  -3263349.409 5  23314397.203    23314406.918           9.750
        10.750
    328560.349 5    256012.409 6  23383157.695    23383167.465           7.750
        13.250
  12758984.856 5   9942046.114 5  22761816.188    22761826.750          10.000
        11.750
 99  3  8 19 55 45.0000000  0  6G 2G 7G 4G 9G26G27
   2977384.789 7   2320031.570 6  21767302.594    21767311.176          20.250
        19.250
  -2398073.858 6  -1867066.929 6  20664099.664    20664106.535          19.750
        21.500
  -6511112.454 5  -5042068.027 6  22782547.828    22782557.809          10.500
        13.250
  -4263003.496 5  -3293167.502 5  23307115.211    23307125.215          10.000
        11.000
    357050.983 5    278212.843 6  23388579.336    23388589.078           8.250
        14.000
  12815080.444 5   9985756.864 6  22772490.766    22772501.637          10.000
        12.000
 99  3  8 19 56  0.0000000  0  6G 2G 7G 4G 9G26G27
   2996770.944 7   2335137.637 6  21770991.734    21771000.336          20.250
        19.250
  -2379640.190 7  -1852703.045 6  20667607.672    20667614.535          20.000
        21.500
  -6554006.096 5  -5075491.562 6  22774385.430    22774395.445          10.500
        13.250
  -4301200.345 5  -3322931.226 5  23299846.258    23299855.633           9.750
         9.750
    385645.821 5    300494.495 6  23394021.164    23394030.852           9.250
        14.500
  12871252.501 5  10029527.188 6  22783180.117    22783190.992           9.750
        12.250
 99  3  8 19 56 15.0000000  0  6G 2G 7G 4G 9G26G27
   3016201.137 7   2350278.027 6  21774689.188    21774697.813          20.250
        19.250
  -2361129.264 7  -1838278.962 6  20671130.258    20671137.152          20.000
        21.500
  -6596848.009 5  -5108874.805 6  22766232.938    22766242.855          10.500
        13.250
  -4339338.174 5  -3352648.973 5  23292589.602    23292599.031          10.750
        10.750
    414337.378 5    322851.503 6  23399481.109    23399490.656           9.500
        14.750
  12927491.513 5  10073349.686 5  22793882.078    22793892.652          10.000
        11.750
 99  3  8 19 56 30.0000000  0  6G 2G 7G 4G 9G26G27
   3035678.412 7   2365455.098 6  21778395.516    21778404.027          20.250
        19.250
  -2342536.310 6  -1823790.959 6  20674668.305    20674675.160          19.750
        21.500
  -6639635.598 5  -5142215.711 6  22758090.695    22758100.547          10.750
        13.250
  -4377413.306 5  -3382317.839 5  23285343.063    23285353.012           9.750
        10.500
    443129.665 5    345287.003 6  23404960.016    23404969.559           8.750
        14.500
  12983800.233 5  10117226.513 6  22804597.289    22804608.355          10.000
        12.250
 99  3  8 19 56 45.0000000  0  6G 2G 7G 4G 9G26G27
   3055215.939 7   2380679.111 6  21782113.352    21782121.906          20.250
        19.250
  -2323846.240 6  -1809227.276 6  20678225.000    20678231.695          19.750
        21.500
  -6682356.366 5  -5175504.552 6  22749961.219    22749971.113          11.000
        13.250
  -4415412.043 5  -3411927.206 5  23278113.266    23278122.195          10.750
        10.500
    472033.772 5    367809.621 6  23410460.195    23410469.980           7.750
        14.000
  13040191.299 5  10161167.487 6  22815328.117    22815339.313           9.750
        12.250
 99  3  8 19 57  0.0000000  0  6G 2G 7G 4G 9G26G27
   3074801.744 7   2395940.756 6  21785840.477    21785849.000          20.250
        19.250
  -2305064.422 6  -1794592.109 6  20681798.828    20681805.613          19.750
        21.500
  -6725017.083 5  -5208746.606 6  22741843.016    22741852.922          11.000
        13.250
  -4453339.660 5  -3441481.142 5  23270894.500    23270904.941           9.750
        10.500
    501040.266 4    390412.006 6  23415979.922    23415989.809           6.750
        13.000
  13096653.165 5  10205163.635 6  22826072.844    22826083.832          10.000
        12.250
 99  3  8 19 57 15.0000000  0  6G 2G 7G 4G 9G26G27
   3094431.022 7   2411236.271 6  21789575.883    21789584.336          20.250
        19.000
  -2286192.841 6  -1779886.988 6  20685389.992    20685396.891          19.500
        21.500
  -6767619.745 5  -5241943.420 6  22733736.086    22733745.852          11.250
        13.250
  -4491198.117 5  -3470981.185 5  23263691.211    23263700.262          10.750
        10.000
    530142.615 4    413089.086 6  23421518.008    23421527.734           7.000
        12.250
  13153181.064 5  10249211.237 6  22836829.672    22836840.656          10.000
        12.250
 99  3  8 19 57 30.0000000  0  6G 2G 7G 4G 9G26G27
   3114113.137 7   2426572.960 6  21793321.344    21793329.758          20.250
        19.000
  -2267224.459 6  -1765106.437 6  20688999.602    20689006.516          19.250
        21.500
  -6810158.473 5  -5275090.411 6  22725641.133    22725650.723          11.250
        13.000
  -4528981.150 5  -3500422.464 5  23256500.500    23256510.305          10.000
        10.000
    559346.591 5    435845.377 5  23427075.461    23427084.852           8.000
        11.250
  13209785.815 5  10293318.719 6  22847601.313    22847612.078          10.250
        12.250
 99  3  8 19 57 45.0000000  0  6G 2G 7G 4G 9G26G27
   3133838.784 7   2441943.573 6  21797075.055    21797083.371          20.500
        19.000
  -2248168.014 6  -1750257.272 6  20692625.922    20692632.934          19.000
        21.500
  -6852643.636 5  -5308195.686 6  22717556.359    22717566.090          11.500
        13.000
  -4566699.572 5  -3529813.390 5  23249324.297    23249333.344          11.250
        10.500
    588641.357 5    458672.414 5  23432650.109    23432659.434           9.000
        10.500
  13266460.153 5  10337480.438 6  22858386.273    22858397.066          10.500
        12.250
 99  3  8 19 58  0.0000000  0  6G 2G 7G 4G 9G26G27
   3153611.362 7   2457350.750 6  21800837.820    21800845.957          20.500
        18.750
  -2229018.665 6  -1735335.712 6  20696269.766    20696276.879          18.750
        21.750
  -6895068.708 5  -5341254.123 6  22709482.961    22709492.883          11.750
        13.000
  -4604348.824 5  -3559150.432 5  23242159.148    23242168.090          11.000
        10.000
    618028.253 5    481571.263 5  23438242.227    23438251.625           9.750
        10.250
  13323209.461 5  10381700.551 6  22869185.391    22869196.316          10.500
        12.250
 99  3  8 19 58 15.0000000  0  6G 2G 7G 4G 9G26G27
   3173431.623 7   2472795.080 6  21804609.469    21804617.742          20.500
        18.750
  -2209772.002 6  -1720338.319 6  20699932.398    20699939.406          18.750
        21.750
  -6937429.159 5  -5374262.214 6  22701422.180    22701431.777          11.750
        12.750
  -4641926.162 5  -3588431.436 5  23235008.813    23235017.758          11.250
        10.250
    647508.514 5    504542.852 5  23443852.242    23443861.598          10.000
        10.250
  13380040.235 5  10425984.170 6  22879999.820    22880011.043          10.500
        12.250
 99  3  8 19 58 30.0000000  0  6G 2G 7G 4G 9G26G27
   3193301.780 7   2488278.295 6  21808390.672    21808398.918          20.250
        18.750
  -2190424.964 6  -1705262.717 6  20703614.055    20703621.066          18.750
        21.750
  -6979721.490 6  -5407217.222 6  22693374.328    22693383.910          12.000
        13.000
  -4679430.789 5  -3617655.761 5  23227871.469    23227880.508          11.000
        10.250
    677085.186 5    527589.579 5  23449480.375    23449490.035           9.750
        10.500
  13436954.156 5  10470332.566 6  22890830.453    22890841.531          10.500
        12.250
 99  3  8 19 58 45.0000000  0  6G 2G 7G 4G 9G26G27
   3213232.356 7   2503808.591 6  21812183.250    21812191.457          20.250
        18.750
  -2170968.310 6  -1690101.692 6  20707316.469    20707323.586          18.750
        22.000
  -7021936.735 6  -5440112.168 6  22685340.766    22685350.445          12.000
        13.000
  -4716854.293 5  -3646816.907 5  23220750.273    23220758.590          11.500
         9.750
    706763.378 5    550715.401 5  23455128.125    23455137.824           9.500
        11.000
  13493957.895 5  10514750.939 6  22901678.000    22901689.223          10.500
        12.250
 99  3  8 19 59  0.0000000  0  6G 2G 7G 4G 9G26G27
   3233218.792 7   2519382.407 6  21815986.422    21815994.703          20.250
        18.500
  -2151409.098 6  -1674860.759 6  20711038.453    20711045.605          18.750
        22.000
  -7064076.949 6  -5472948.655 6  22677321.602    22677331.293          12.250
        13.000
  -4754201.077 5  -3675918.265 5  23213642.977    23213652.383          11.500
        10.750
    736538.085 5    573916.425 5  23460794.031    23460803.910           9.000
        11.250
  13551046.919 5  10559235.775 6  22912541.641    22912552.926          10.250
        12.250
 99  3  8 19 59 15.0000000  0  6G 2G 7G 4G 9G26G27
   3253263.957 7   2535001.993 6  21819801.070    21819809.199          20.250
        18.500
  -2131752.706 6  -1659544.100 6  20714778.922    20714786.055          18.750
        22.000
  -7106144.492 6  -5505728.503 6  22669316.492    22669325.875          12.250
        12.750
  -4791477.043 5  -3704964.410 5  23206549.617    23206559.344          11.000
        11.000
    766409.900 5    597193.115 5  23466478.656    23466488.219           9.000
        11.000
  13608219.926 5  10603786.058 6  22923421.523    22923432.633          10.250
        12.250
 99  3  8 19 59 30.0010000  0  6G 2G 7G 4G 9G26G27
   3273382.354 7   2550678.638 6  21823629.411    21823637.646          20.000
        18.500
  -2111991.924 6  -1644146.096 6  20718539.396    20718546.591          18.500
        22.250
  -7148133.449 6  -5538447.126 6  22661326.200    22661335.548          12.250
        12.750
  -4828680.670 5  -3733954.209 5  23199470.403    23199479.696          11.750
        11.000
    796390.822 5    620554.818 5  23472183.786    23472193.360           9.000
        11.000
  13665493.501 5  10648414.696 6  22934320.130    22934331.548          10.000
        12.500
 99  3  8 19 59 45.0010000  0  6G 2G 7G 4G 9G26G27
   3293565.672 7   2566405.868 6  21827470.231    21827478.544          20.000
        18.500
  -2092132.582 6  -1628671.295 6  20722318.450    20722325.692          18.500
        22.250
  -7190039.968 6  -5571101.506 6  22653351.630    22653361.024          12.250
        13.000
  -4865810.140 5  -3762886.215 5  23192405.192    23192414.212          11.500
        11.250
    826473.992 5    643996.207 5  23477908.513    23477918.106           8.750
        10.750
  13722857.922 5  10693114.123 6  22945236.474    22945247.747           9.750
        12.500
 99  3  8 20  0  0.0010000  0  6G 2G 7G 4G 9G26G27
   3313809.114 7   2582179.951 6  21831322.528    21831330.798          20.000
        18.250
  -2072179.653 6  -1613123.564 6  20726115.442    20726122.778          18.500
        22.500
  -7231868.536 6  -5603695.157 6  22645391.919    22645401.345          12.250
        13.000
  -4902871.685 5  -3791765.301 5  23185352.114    23185360.642          11.000
        10.000
    856657.795 5    667515.996 5  23483652.138    23483661.622           8.750
        10.750
  13780309.561 5  10737881.510 6  22956169.114    22956180.747           9.750
        12.500
 99  3  8 20  0 15.0010000  0  6G 2G 7G 4G 9G26G27
   3334116.891 7   2598004.167 6  21835186.786    21835195.044          20.000
        18.250
  -2052131.607 6  -1597501.720 6  20729930.364    20729937.735          18.750
        22.750
  -7273615.046 6  -5636224.857 6  22637447.872    22637457.306          12.250
        13.000
  -4939862.233 5  -3820589.073 5  23178313.177    23178321.747          11.000
        10.000
    886947.311 5    691118.154 5  23489416.411    23489425.985           9.000
        11.000
  13837848.635 5  10782717.030 6  22967118.583    22967130.220           9.500
        12.500
 99  3  8 20  0 30.0010000  0  6G 2G 7G 4G 9G26G27
   3354490.430 7   2613879.626 6  21839063.896    21839072.087          20.000
        18.250
  -2031988.424 6  -1581805.746 6  20733763.325    20733770.599          18.750
        22.750
  -7315281.891 6  -5668692.484 6  22629518.771    22629528.212          12.250
        13.250
  -4976782.617 5  -3849358.166 5  23171287.935    23171296.321          11.750
        10.500
    917343.617 5    714803.545 5  23495200.724    23495210.349           9.250
        11.250
  13895471.441 5  10827617.797 6  22978083.841    22978095.614           9.250
        12.500
 99  3  8 20  0 45.0010000  0  6G 2G 7G 4G 9G26G27
   3374931.941 7   2629808.051 6  21842953.763    21842961.958          20.000
        18.250
  -2011752.533 6  -1566037.528 6  20737614.310    20737621.556          18.750
        22.750
  -7356870.083 6  -5701098.829 6  22621604.630    22621614.200          12.250
        13.500
  -5013630.401 5  -3878070.687 5  23164274.747    23164283.606          10.750
        10.250
    947847.025 5    738572.379 5  23501005.380    23501014.759           9.500
        11.500
  13953173.961 5  10872580.671 6  22989064.388    22989076.118           9.000
        12.500
 99  3  8 20  1  0.0010000  0  6G 2G 7G 4G 9G26G27
   3395436.354 6   2645785.491 6  21846855.521    21846863.845          19.750
        18.250
  -1991434.104 6  -1550204.998 6  20741480.872    20741488.067          19.000
        22.750
  -7398388.871 6  -5733451.089 6  22613704.122    22613713.630          12.250
        13.750
  -5050408.977 5  -3906729.271 5  23157276.278    23157286.423          11.000
        11.500
    978451.118 5    762419.667 5  23506828.958    23506838.704           9.500
        11.750
  14010949.806 5  10917600.691 6  23000058.896    23000070.747           9.000
        12.750
 99  3  8 20  1 15.0010000  0  6G 2G 7G 4G 9G26G27
   3416013.386 6   2661819.515 6  21850771.255    21850779.552          19.750
        18.000
  -1971024.525 6  -1534301.441 6  20745364.685    20745371.774          19.250
        22.750
  -7439829.693 6  -5765742.593 6  22605818.231    22605827.782          12.250
        13.750
  -5087106.361 5  -3935324.580 5  23150292.817    23150302.388          10.750
        11.000
   1009170.098 5    786356.481 5  23512674.810    23512684.376           9.750
        11.750
  14068809.237 5  10962685.829 6  23011069.294    23011081.048           8.750
        12.500
 99  3  8 20  1 30.0010000  0  6G 2G 7G 4G 9G26G27
   3436662.637 6   2677909.807 6  21854700.614    21854709.044          19.750
        18.000
  -1950520.762 6  -1518324.498 6  20749266.521    20749273.513          19.250
        22.500
  -7481193.338 6  -5797973.968 6  22597946.591    22597956.399          12.250
        13.750
  -5123719.381 5  -3963854.169 5  23143326.138    23143334.798          11.500
        10.500
   1040002.590 5    810381.735 5  23518542.138    23518551.626          10.500
        11.750
  14126753.352 5  11007836.960 6  23022095.606    23022107.489           8.500
        12.500
 99  3  8 20  1 45.0010000  0  6G 2G 7G 4G 9G26G27
   3457374.826 6   2694049.145 6  21858642.021    21858650.524          19.500
        18.000
  -1929922.050 6  -1502273.568 6  20753186.349    20753193.306          19.250
        22.250
  -7522481.349 6  -5830146.394 6  22590089.849    22590099.427          12.250
        14.000
  -5160247.074 5  -3992317.267 5  23136374.958    23136384.224          11.250
        10.750
   1070941.463 5    834489.902 5  23524429.708    23524439.337          11.250
        11.500
  14184777.180 5  11053050.201 6  23033137.349    23033149.224           8.500
        12.500
 99  3  8 20  2  0.0010000  0  6G 2G 7G 4G 9G26G27
   3478150.513 6   2710237.970 6  21862595.536    21862604.071          19.500
        18.250
  -1909225.965 6  -1486146.757 6  20757124.599    20757131.688          19.250
        22.500
  -7563695.225 6  -5862261.067 6  22582247.146    22582256.567          12.500
        14.000
  -5196684.090 5  -4020709.712 5  23129440.896    23129450.118          11.250
        10.750
   1101990.115 5    858683.604 5  23530338.028    23530347.544          11.750
        10.750
  14242879.212 5  11098324.397 6  23044193.864    23044206.021           8.250
        12.500
 99  3  8 20  2 15.0010000  0  6G 2G 7G 4G 9G26G27
   3499000.925 6   2726485.015 6  21866563.286    21866571.825          19.500
        18.250
  -1888423.936 6  -1469937.398 6  20761083.083    20761090.185          19.000
        22.250
  -7604828.502 6  -5894312.927 6  22574419.763    22574429.306          12.500
        14.000
  -5233022.553 5  -4049025.354 5  23122526.169    23122535.481          11.500
        11.250
   1133158.493 6    882970.607 5  23536269.130    23536278.860          12.250
        10.000
  14301066.966 5  11143665.366 6  23055266.935    23055278.638           8.250
        12.250
 99  3  8 20  2 30.0010000  0  6G 2G 7G 4G 9G26G27
   3519921.590 6   2742786.798 6  21870544.435    21870553.013          19.750
        18.250
  -1867519.178 6  -1453647.996 6  20765061.185    20765068.251          18.750
        22.500
  -7645888.166 6  -5926307.431 6  22566606.192    22566615.724          12.500
        14.000
  -5269266.172 5  -4077267.090 5  23115629.239    23115638.310          11.750
        11.250
   1164440.011 6    907345.780 5  23542221.927    23542231.290          12.500
         9.500
  14359336.777 5  11189070.277 6  23066354.888    23066366.989           8.250
        12.250
 99  3  8 20  2 45.0010000  0  6G 2G 7G 4G 9G26G27
   3540914.395 6   2759144.807 6  21874539.255    21874547.708          19.750
        18.250
  -1846514.350 6  -1437280.611 6  20769058.169    20769065.384          18.750
        22.500
  -7686873.864 6  -5958244.300 6  22558806.935    22558816.411          12.500
        14.000
  -5305414.698 6  -4105434.737 5  23108750.130    23108759.880          12.000
        11.750
   1195831.398 6    931806.555 5  23548195.435    23548205.114          12.500
         9.000
  14417691.334 5  11234541.225 5  23077459.974    23077471.771           8.250
        11.750
 99  3  8 20  3  0.0010000  0  6G 2G 7G 4G 9G26G27
   3561973.301 6   2775554.311 6  21878546.763    21878555.106          19.750
        18.250
  -1825417.589 6  -1420841.588 6  20773072.778    20773080.005          18.500
        22.750
  -7727790.243 6  -5990127.144 6  22551020.614    22551030.165          12.500
        14.000
  -5341475.387 6  -4133533.933 5  23101889.028    23101897.677          12.750
        11.750
   1227324.456 5    956346.566 5  23554188.513    23554198.255          11.750
         8.750
  14476127.482 5  11280075.763 5  23088579.896    23088591.771           8.250
        11.500
 99  3  8 20  3 15.0010000  0  6G 2G 7G 4G 9G26G27
   3583098.839 6   2792015.746 6  21882566.966    21882575.224          19.750
        18.250
  -1804226.533 6  -1404329.096 6  20777105.192    20777112.657          18.500
        22.750
  -7768634.373 6  -6021953.701 6  22543248.427    22543257.860          12.750
        14.000
  -5377450.113 5  -4161566.135 5  23095041.778    23095051.513          11.250
        11.250
   1258919.536 5    980966.081 5  23560200.896    23560210.185          11.000
         8.250
  14534648.375 5  11325676.326 5  23099716.388    23099728.142           8.500
        11.250
 99  3  8 20  3 30.0010000  0  6G 2G 7G 4G 9G26G27
   3604292.092 6   2808529.934 6  21886599.810    21886608.146          19.750
        18.250
  -1782935.838 6  -1387738.960 6  20781156.708    20781164.075          18.500
        23.000
  -7809398.691 6  -6053718.062 6  22535491.021    22535500.657          12.750
        14.000
  -5413336.641 5  -4189529.623 5  23088213.388    23088221.981          11.750
        10.750
   1290617.656 5   1005665.876 5  23566232.841    23566242.438          10.000
         8.500
  14593256.549 5  11371344.895 5  23110869.224    23110881.036           8.500
        11.250
 99  3  8 20  3 45.0010000  0  6G 2G 7G 4G 9G26G27
   3625550.945 6   2825095.247 6  21890645.239    21890653.587          19.750
        18.250
  -1761549.544 6  -1371074.327 6  20785226.341    20785233.735          18.500
        22.750
  -7850081.690 6  -6085419.060 6  22527749.622    22527758.845          12.750
        14.000
  -5449140.451 6  -4217428.648 5  23081400.138    23081408.759          12.000
        10.750
   1322412.959 5   1030441.411 5  23572283.263    23572292.888           9.500
         8.750
  14651947.447 5  11417077.939 5  23122037.771    23122049.505           8.500
        10.750
 99  3  8 20  4  0.0010000  0  6G 2G 7G 4G 9G26G27
   3646881.588 6   2841716.499 6  21894704.364    21894712.657          19.750
        18.250
  -1740064.907 6  -1354333.060 6  20789314.903    20789322.228          18.500
        23.000
  -7890678.490 6  -6117052.885 6  22520023.974    22520033.470          12.750
        13.750
  -5484857.350 6  -4245259.973 5  23074603.481    23074611.938          12.500
        11.000
   1354312.499 5   1055298.160 5  23578353.622    23578363.200           8.250
         9.250
  14710724.200 5  11462877.868 5  23133222.872    23133234.423           8.750
        10.500
 99  3  8 20  4 15.0010000  0  6G 2G 7G 4G 9G26G27
   3668290.509 6   2858398.741 6  21898778.263    21898786.665          19.750
        18.250
  -1718485.367 6  -1337517.856 6  20793421.544    20793428.751          18.750
        23.000
  -7931185.346 6  -6148616.626 6  22512315.677    22512325.060          13.000
        13.750
  -5520488.774 6  -4273024.656 5  23067823.060    23067832.188          12.500
        11.500
   1386316.526 5   1080236.308 5  23584443.849    23584453.575           7.500
         9.500
  14769586.486 5  11508744.449 5  23144423.817    23144435.560           8.750
        10.250
 99  3  8 20  4 30.0010000  0  6G 2G 7G 4G 9G26G27
   3689775.035 6   2875139.902 6  21902866.716    21902875.204          19.750
        18.250
  -1696814.134 6  -1320631.197 6  20797545.419    20797552.638          18.750
        23.000
  -7971600.818 6  -6180109.151 6  22504624.958    22504634.298          13.000
        13.500
  -5556038.438 6  -4300725.665 5  23061058.935    23061066.724          13.250
        11.250
   1418419.429 4   1105251.498 5  23590552.708    23590562.524           6.750
        10.250
  14828530.680 5  11554674.852 5  23155640.856    23155652.353           9.000
        10.000
 99  3  8 20  4 45.0010000  0  6G 2G 7G 4G 9G26G27
   3711333.031 6   2891938.304 6  21906969.106    21906977.489          19.500
        18.000
  -1675053.889 6  -1303675.174 6  20801686.325    20801693.481          19.000
        23.000
  -8011924.011 6  -6211529.786 6  22496951.864    22496960.946          13.250
        13.500
  -5591507.482 6  -4328363.848 6  23054308.591    23054317.771          12.250
        12.000
   1450617.648 4   1130340.957 5  23596679.997    23596689.767           6.750
        10.750
  14887556.009 5  11600668.490 5  23166873.349    23166884.813           9.250
        10.000
 99  3  8 20  5  0.0010000  0  6G 2G 7G 4G 9G26G27
   3732962.243 6   2908792.205 6  21911084.903    21911093.286          19.750
        18.000
  -1653203.910 6  -1286649.229 6  20805844.216    20805851.411          19.250
        23.000
  -8052152.168 6  -6242876.353 6  22489296.669    22489305.856          13.500
        13.500
  -5626895.982 5  -4355939.233 5  23047573.427    23047582.794          11.000
        11.500
   1482911.939 4   1155505.267 5  23602825.864    23602835.306           7.250
        11.250
  14946661.107 5  11646724.284 5  23178120.536    23178132.118           9.000
         9.750
 99  3  8 20  5 15.0010000  0  6G 2G 7G 4G 9G26G27
   3754657.543 6   2925697.606 6  21915213.677    21915221.899          19.750
        18.000
  -1631261.780 6  -1269551.479 6  20810019.700    20810026.942          19.000
        23.000
  -8092285.591 6  -6274149.099 6  22481659.521    22481668.716          13.500
        13.500
  -5662203.791 6  -4383451.772 5  23040855.333    23040863.431          12.250
        11.000
   1515301.034 5   1180743.445 5  23608989.255    23608998.751           7.500
        11.750
  15005842.094 5  11692839.200 5  23189382.513    23189393.845           9.250
         9.500
 99  3  8 20  5 30.0010000  0  6G 2G 7G 4G 9G26G27
   3776414.395 6   2942650.961 6  21919353.802    21919362.075          19.750
        18.000
  -1609227.870 6  -1252382.214 6  20814212.646    20814219.798          19.250
        23.000
  -8132325.570 6  -6305349.036 6  22474040.263    22474049.360          13.750
        13.500
  -5697429.507 6  -4410900.345 5  23034152.302    23034160.849          12.500
        11.500
   1547782.749 5   1206053.803 6  23615170.278    23615179.919           7.750
        12.250
  15065093.639 5  11739009.101 5  23200657.989    23200669.517           9.250
         9.500
 99  3  8 20  5 45.0010000  0  6G 2G 7G 4G 9G26G27
   3798231.313 6   2959651.127 6  21923505.317    21923513.642          19.750
        18.000
  -1587103.397 6  -1235142.382 6  20818422.817    20818429.896          19.250
        23.000
  -8172275.648 6  -6336478.912 6  22466437.974    22466446.903          14.000
        13.500
  -5732575.579 6  -4438286.842 5  23027464.091    23027472.751          12.250
        11.750
   1580352.915 5   1231433.087 6  23621368.224    23621377.606           8.500
        12.250
  15124413.492 5  11785232.220 5  23211946.388    23211957.685           9.250
         9.500
 99  3  8 20  6  0.0010000  0  6G 2G 7G 4G 9G26G27
   3820119.721 6   2976706.995 6  21927670.692    21927679.114          19.500
        18.000
  -1564876.566 6  -1217822.787 6  20822652.388    20822659.485          19.250
        22.750
  -8212126.538 6  -6367531.509 6  22458854.419    22458863.489          14.000
        13.750
  -5767631.713 6  -4465603.264 6  23020792.802    23020802.243          12.250
        12.500
   1613022.525 5   1256889.869 6  23627585.099    23627594.536           9.250
        12.500
  15183812.963 5  11831517.390 5  23223249.833    23223261.110           9.250
         9.500
 99  3  8 20  6 15.0010000  0  6G 2G 7G 4G 9G26G27
   3842079.656 6   2993818.596 6  21931849.622    21931858.056          19.500
        18.250
  -1542548.023 6  -1200423.940 6  20826901.419    20826908.454          19.250
        22.750
  -8251880.706 6  -6398508.734 6  22451289.622    22451298.466          14.250
        14.000
  -5802596.810 6  -4492848.733 6  23014139.481    23014148.509          12.500
        12.500
   1645791.449 5   1282424.041 6  23633820.763    23633830.415           9.500
        12.750
  15243293.362 5  11877865.617 5  23234568.513    23234579.966           9.250
         9.500
 99  3  8 20  6 30.0010000  0  6G 2G 7G 4G 9G26G27
   3864104.329 6   3010980.646 6  21936040.614    21936049.149          19.500
        18.250
  -1520124.065 6  -1182950.742 6  20831168.396    20831175.481          19.250
        22.750
  -8291541.469 6  -6429413.171 6  22443742.255    22443751.337          14.250
        14.000
  -5837475.941 6  -4520027.225 6  23007501.825    23007510.849          12.250
        12.500
   1678654.697 5   1308031.699 6  23640074.489    23640084.157           9.750
        12.750
  15302851.703 5  11924274.568 5  23245901.966    23245913.571           9.250
         9.500
 99  3  8 20  6 45.0010000  0  6G 2G 7G 4G 9G26G27
   3886183.702 6   3028185.323 6  21940242.208    21940250.817          19.500
        18.250
  -1497609.988 6  -1165407.319 6  20835452.505    20835459.681          19.000
        22.750
  -8331119.045 6  -6460252.786 6  22436210.747    22436219.833          14.250
        14.000
  -5872273.739 6  -4547142.345 6  23000880.661    23000888.868          13.250
        12.250
   1711605.541 5   1333707.632 6  23646344.583    23646354.454          10.000
        12.500
  15362482.134 5  11970739.710 5  23257249.560    23257261.134           9.250
         9.750
 99  3  8 20  7  0.0010000  0  6G 2G 7G 4G 9G26G27
   3908317.550 6   3045432.440 6  21944454.278    21944462.896          19.500
        18.250
  -1475007.290 6  -1147794.845 6  20839753.794    20839761.009          19.000
        22.750
  -8370615.871 6  -6491029.481 6  22428694.817    22428703.677          14.250
        14.250
  -5906989.978 6  -4574193.915 5  22994273.786    22994281.739          12.750
        11.750
   1744642.713 5   1359450.826 6  23652631.489    23652641.157          10.250
        12.250
  15422182.065 5  12017258.991 5  23268610.263    23268621.915           9.000
         9.750
 99  3  8 20  7 15.0010000  0  6G 2G 7G 4G 9G26G27
   3930497.824 6   3062715.744 6  21948674.974    21948683.716          19.500
        18.250
  -1452323.663 6  -1130119.314 6  20844070.310    20844077.610          18.750
        22.750
  -8410042.281 6  -6521751.303 6  22421192.122    22421201.079          14.250
        14.250
  -5941631.993 5  -4601187.645 6  22987681.067    22987689.864          11.750
        12.000
   1777757.714 5   1385254.665 6  23658933.075    23658942.860          10.500
        12.000
  15481941.193 5  12063824.403 5  23279982.255    23279993.931           9.000
         9.750
 99  3  8 20  7 30.0010000  0  6G 2G 7G 4G 9G26G27
   3952736.703 6   3080044.701 6  21952906.950    21952915.669          19.500
        18.250
  -1429551.469 6  -1112374.766 6  20848403.802    20848411.087          18.750
        22.750
  -8449391.278 6  -6552412.807 6  22413704.177    22413713.228          14.250
        14.250
  -5976189.093 6  -4628115.203 6  22981105.763    22981114.317          12.500
        12.500
   1810962.292 5   1411128.309 6  23665251.935    23665261.591          10.750
        12.250
  15541769.051 5  12110443.361 5  23291366.981    23291378.739           8.750
         9.750
 99  3  8 20  7 45.0010000  0  6G 2G 7G 4G 9G26G27
   3975028.741 6   3097415.088 6  21957148.942    21957157.677          19.500
        18.500
  -1406703.226 6  -1094570.954 6  20852751.724    20852758.954          19.000
        22.750
  -8488672.240 6  -6583021.294 6  22406229.138    22406238.192          14.000
        14.500
  -6010671.095 6  -4654984.243 6  22974544.138    22974552.407          13.000
        12.500
   1844249.581 5   1437066.393 6  23671586.169    23671596.212          10.750
        12.000
  15601657.902 5  12157109.869 5  23302763.794    23302775.360           8.750
         9.750
 99  3  8 20  8  0.0010000  0  6G 2G 7G 4G 9G26G27
   3997381.076 6   3114832.466 6  21961402.364    21961411.208          19.500
        18.500
  -1383774.782 6  -1076704.658 6  20857114.669    20857121.774          19.000
        22.750
  -8527875.351 6  -6613569.117 6  22398768.966    22398778.161          14.000
        14.500
  -6045070.882 6  -4681789.232 6  22967997.950    22968006.146          12.750
        12.500
   1877627.525 5   1463075.125 5  23677937.849    23677947.665          10.750
        11.750
  15661616.921 5  12203831.030 5  23314173.419    23314185.540           8.250
        10.000
 99  3  8 20  8 15.0010000  0  6G 2G 7G 4G 9G26G27
   4019800.302 6   3132301.955 6  21965668.638    21965677.571          19.500
        18.500
  -1360762.820 6  -1058773.279 6  20861493.958    20861501.005          19.000
        22.750
  -8566992.216 6  -6644049.728 6  22391325.286    22391334.302          14.000
        14.500
  -6079378.180 6  -4708522.140 6  22961469.278    22961478.267          12.500
        13.000
   1911106.472 5   1489162.551 5  23684308.692    23684318.536          10.750
        11.500
  15721651.927 5  12250611.396 5  23325597.997    23325610.044           8.250
        10.500
 99  3  8 20  8 30.0010000  0  6G 2G 7G 4G 9G26G27
   4042284.245 6   3149821.876 6  21969947.356    21969956.212          19.250
        18.500
  -1337670.363 6  -1040779.174 6  20865888.302    20865895.411          19.250
        22.750
  -8606024.438 6  -6674464.385 6  22383897.575    22383906.708          13.750
        14.750
  -6113595.651 6  -4735185.052 6  22954958.122    22954966.599          13.250
        12.750
   1944683.086 5   1515326.095 5  23690698.294    23690708.224          10.500
        11.250
  15781759.708 5  12297448.478 5  23337036.481    23337048.278           8.250
        10.500
 99  3  8 20  8 45.0010000  0  6G 2G 7G 4G 9G26G27
   4064831.698 6   3167391.292 6  21974238.052    21974246.794          19.500
        18.250
  -1314492.467 6  -1022718.500 6  20870299.083    20870306.161          19.250
        22.750
  -8644972.974 6  -6704813.829 6  22376485.864    22376494.985          13.750
        14.750
  -6147721.826 6  -4761776.847 6  22948464.060    22948472.938          13.250
        13.250
   1978357.886 5   1541566.138 5  23697106.372    23697116.282          10.250
        11.000
  15841938.878 5  12344341.185 5  23348488.263    23348500.157           8.000
        10.500
 99  3  8 20  9  0.0010000  0  6G 2G 7G 4G 9G26G27
   4087431.808 6   3185001.733 6  21978538.677    21978547.485          19.250
        18.250
  -1291240.923 6  -1004600.430 6  20874723.692    20874730.876          19.500
        23.000
  -8683850.944 6  -6735108.295 6  22369087.700    22369096.688          13.750
        14.750
  -6181768.788 6  -4788306.882 6  22941985.372    22941994.911          13.500
        14.250
   2012116.893 5   1567871.805 5  23703530.591    23703540.474           9.750
        10.750
  15902174.574 5  12391277.942 5  23359950.599    23359962.829           8.000
        10.750
 99  3  8 20  9 15.0010000  0  6G 2G 7G 4G 9G26G27
   4110095.594 6   3202661.792 6  21982851.341    21982860.329          19.250
        18.250
  -1267906.974 6   -986418.163 6  20879164.106    20879171.204          19.500
        23.000
  -8722645.933 6  -6765338.100 6  22361705.091    22361714.091          14.000
        14.750
  -6215726.996 6  -4814767.789 6  22935523.528    22935531.825          13.750
        13.250
   2045972.476 5   1594252.720 5  23709973.286    23709983.149           9.500
        10.500
  15962478.390 5  12438267.769 5  23371426.091    23371438.470           7.750
        10.750
 99  3  8 20  9 30.0010000  0  6G 2G 7G 4G 9G26G27
   4132818.302 6   3220367.766 6  21987175.474    21987184.169          19.250
        18.000
  -1244494.873 6   -968174.988 6  20883619.341    20883626.423          19.750
        23.250
  -8761359.721 6  -6795504.629 6  22354338.185    22354347.005          14.000
        15.000
  -6249600.735 6  -4841162.862 6  22929076.950    22929086.063          13.000
        13.000
   2079922.216 5   1620707.013 5  23716433.567    23716443.653           9.250
        10.500
  16022849.890 5  12485310.348 5  23382914.677    23382926.899           7.750
        11.000
 99  3  8 20  9 45.0010000  0  6G 2G 7G 4G 9G26G27
   4155592.911 6   3238114.181 6  21991509.403    21991518.099          19.500
        18.000
  -1221013.270 6   -949877.657 6  20888087.841    20888094.927          19.750
        23.250
  -8799998.604 6  -6825612.785 6  22346985.388    22346994.130          14.250
        15.000
  -6283397.723 6  -4867498.141 6  22922645.778    22922653.849          13.500
        12.250
   2113960.183 5   1647230.040 5  23722911.114    23722920.782           9.000
        10.000
  16083282.614 5  12532400.623 5  23394414.513    23394426.962           7.500
        10.750
 99  3  8 20 10  0.0010000  0  6G 2G 7G 4G 9G26G27
   4178420.209 6   3255901.656 6  21995853.294    21995862.052          19.250
        18.000
  -1197458.883 6   -931523.615 6  20892569.974    20892577.177          19.750
        23.250
  -8838559.869 6  -6855660.464 6  22339647.263    22339656.259          14.500
        15.000
  -6317117.132 6  -4893772.966 6  22916228.583    22916237.942          13.000
        13.000
   2148084.711 5   1673820.525 5  23729404.372    23729414.626           8.500
         9.750
  16143778.847 4  12579540.384 5  23405926.466    23405938.892           7.250
        10.750
 99  3  8 20 10 15.0010000  0  6G 2G 7G 4G 9G26G27
   4201305.908 6   3273734.635 6  22000208.302    22000216.919          19.500
        18.000
  -1173823.420 6   -913106.394 6  20897067.591    20897074.763          19.750
        23.250
  -8877039.232 6  -6885644.324 6  22332324.942    22332333.817          14.500
        15.000
  -6350754.465 6  -4919983.832 6  22909827.294    22909836.497          12.750
        12.750
   2182299.707 5   1700481.517 5  23735915.474    23735925.501           8.000
         9.250
  16204341.155 5  12626731.644 5  23417451.841    23417464.239           7.500
        11.000
 99  3  8 20 10 30.0010000  0  6G 2G 7G 4G 9G26G27
   4224255.291 6   3291617.239 6  22004575.419    22004584.040          19.250
        17.750
  -1150103.648 6   -894623.481 6  20901581.161    20901588.274          19.500
        23.000
  -8915436.289 6  -6915564.056 6  22325018.247    22325027.052          14.750
        15.000
  -6384307.407 6  -4946128.939 6  22903442.786    22903452.021          13.250
        13.250
   2216604.483 5   1727212.439 5  23742443.364    23742453.325           7.750
         8.750
  16264968.316 4  12673973.432 5  23428988.685    23429001.259           7.250
        11.000
 99  3  8 20 10 45.0010000  0  6G 2G 7G 4G 9G26G27
   4247255.626 6   3309539.547 6  22008952.286    22008960.989          19.500
        17.750
  -1126312.967 6   -876085.314 6  20906108.458    20906115.630          19.500
        23.000
  -8953763.456 6  -6945429.315 6  22317724.810    22317733.505          15.000
        15.000
  -6417787.759 6  -4972217.473 6  22897071.653    22897080.782          13.250
        13.500
   2250983.702 5   1754001.391 5  23748985.513    23748995.591           7.500
         8.250
  16325647.491 4  12721255.739 5  23440535.247    23440548.247           7.000
        11.000
 99  3  8 20 11  0.0010000  0  6G 2G 7G 4G 9G26G27
   4270299.846 6   3327496.049 6  22013337.442    22013346.036          19.500
        17.750
  -1102465.217 6   -857502.671 6  20910646.583    20910653.739          19.250
        22.750
  -8992031.312 6  -6975248.371 6  22310442.614    22310451.353          15.000
        15.000
  -6451204.514 6  -4998256.471 6  22890712.849    22890721.517          13.250
        13.000
   2285426.037 4   1780839.524 5  23755540.005    23755550.032           7.250
         8.000
  16386367.510 4  12768569.879 5  23452090.419    23452103.021           7.250
        10.750
 99  3  8 20 11 15.0010000  0  6G 2G 7G 4G 9G26G27
   4293407.963 6   3345502.349 6  22017734.864    22017743.454          19.500
        17.750
  -1078545.074 6   -838863.630 6  20915198.419    20915205.634          19.250
        22.750
  -9030216.370 6  -7005002.916 6  22303176.247    22303184.864          15.250
        15.250
  -6484538.225 6  -5024230.773 6  22884369.403    22884377.802          13.250
        12.500
   2319949.679 4   1807741.018 5  23762109.528    23762119.747           6.750
         7.750
  16447148.393 4  12815931.448 5  23463656.653    23463669.446           7.250
        10.750
 99  3  8 20 11 30.0010000  0  6G 2G 7G 4G 9G26G27
   4316574.996 6   3363554.548 6  22022143.380    22022151.915          19.250
        17.750
  -1054557.490 6   -820172.028 6  20919763.060    20919770.247          19.250
        22.500
  -9068324.890 6  -7034697.800 6  22295924.419    22295933.235          15.250
        15.250
  -6517792.540 6  -5050143.193 6  22878040.864    22878050.200          13.000
        13.000
   2354548.391 4   1834701.001 5  23768693.685    23768703.509           6.500
         7.250
  16507986.844 4  12863337.862 5  23475234.106    23475246.731           7.250
        10.750
 99  3  8 20 11 45.0010000  0  6G 2G 7G 4G 9G26G27
   4339807.792 6   3381657.995 6  22026564.364    22026573.036          19.250
        17.750
  -1030490.511 6   -801418.563 6  20924342.919    20924350.204          19.250
        22.250
  -9106348.601 6  -7064326.611 6  22288688.591    22288697.317          15.250
        15.250
  -6550956.367 6  -5075985.106 6  22871729.755    22871739.583          12.750
        13.500
   2389227.677 4   1861723.757 5  23775292.833    23775302.954           6.250
         6.500
  16568890.831 4  12910795.352 5  23486823.513    23486836.524           7.250
        10.750
 99  3  8 20 12  0.0010000  0  6G 2G 7G 4G 9G26G27
   4363099.573 6   3399807.407 6  22030996.661    22031005.431          19.250
        17.750
  -1006352.254 6   -782609.558 6  20928936.200    20928943.513          19.250
        22.250
  -9144296.304 6  -7093896.196 6  22281467.481    22281476.087          15.000
        15.250
  -6584038.296 6  -5101763.193 6  22865435.013    22865444.001          13.250
        13.250
   2423975.412 3   1888799.860 5  23781905.310    23781915.267           6.000
         6.000
  16629848.419 4  12958294.604 5  23498423.591    23498436.216           7.250
        10.500
 99  3  8 20 12 15.0010000  0  6G 2G 7G 4G 9G26G27
   4386453.643 6   3418005.355 6  22035440.700    22035449.642          19.250
        17.750
   -982140.278 6   -763743.112 6  20933543.724    20933550.923          19.250
        22.500
  -9182162.190 6  -7123402.023 6  22274261.677    22274270.419          14.750
        15.250
  -6617033.774 6  -5127473.928 6  22859156.028    22859165.146          13.000
        13.250
   2458792.458 3   1915929.976 5  23788530.755    23788540.517           5.250
         5.500
  16690861.613 5  13005837.189 5  23510034.310    23510047.142           7.500
        10.250
 99  3  8 20 12 30.0010000  0  6G 2G 7G 4G 9G26G27
   4409863.627 6   3436246.868 6  22039895.700    22039904.614          19.250
        17.750
   -957863.368 6   -744826.064 6  20938163.247    20938170.630          19.250
        22.500
  -9219952.673 6  -7152849.097 6  22267070.231    22267079.013          14.500
        15.250
  -6649947.161 6  -5153120.688 6  22852892.474    22852902.091          12.750
        13.500
   2493672.284 2   1943108.981 5  23795168.294    23795178.345           4.750
         5.000
  16751922.949 5  13053417.291 5  23521653.989    23521666.806           7.500
        10.250
 99  3  8 20 12 45.0010000  0  6G 2G 7G 4G 9G26G27
   4433330.598 6   3454532.786 6  22044361.450    22044370.271          19.500
        17.750
   -933518.791 6   -725856.286 6  20942796.021    20942803.423          19.250
        22.500
  -9257663.620 6  -7182234.192 6  22259893.958    22259902.794          14.500
        15.250
  -6682771.927 6  -5178698.390 6  22846646.278    22846655.677          13.000
        13.500
   2528619.920 2   1970340.853 5  23801818.552    23801828.298           4.500
         4.500
  16813041.342 4  13101041.856 5  23533284.560    23533297.052           7.250
         9.750
 99  3  8 20 13  0.0010000  0  6G 2G 7G 4G 9G26G27
   4456854.898 6   3472863.384 6  22048838.130    22048846.899          19.500
        17.750
   -909102.472 6   -706830.603 6  20947442.458    20947449.806          19.250
        22.750
  -9295293.790 6  -7211556.342 6  22252733.106    22252742.017          14.250
        15.250
  -6715509.322 6  -5204208.014 6  22840416.224    22840426.071          13.000
        14.000
   2563639.420 2   1997628.733 5  23808482.036    23808492.493           4.000
         4.500
  16874219.740 5  13148713.170 5  23544926.606    23544939.466           7.500
         9.750
 99  3  8 20 13 15.0010000  0  6G 2G 7G 4G 9G26G27
   4480446.290 6   3491246.255 6  22053327.380    22053336.103          19.500
        18.000
   -884597.604 6   -687735.928 6  20952105.528    20952112.974          19.250
        22.750
  -9332830.846 6  -7240805.935 6  22245590.067    22245598.997          14.000
        15.250
  -6748147.113 6  -5229640.031 6  22834205.778    22834215.239          13.000
        14.000
   2598744.092 1   2024982.987 5  23815162.919    23815172.813           3.500
         4.500
  16935471.762 5  13196441.851 5  23556582.630    23556595.376           7.500
         9.500
 99  3  8 20 13 30.0010000  0  6G 2G 7G 4G 9G26G27
   4504096.928 6   3509675.296 6  22057828.052    22057836.747          19.750
        18.000
   -860007.940 6   -668575.171 6  20956784.856    20956792.341          19.250
        22.750
  -9370279.812 6  -7269986.895 6  22238463.481    22238472.485          14.000
        15.250
  -6780691.143 6  -5254998.988 6  22828012.606    22828021.825          13.000
        13.750
   2633930.420 1   2052400.835 4  23821858.513    23821868.540           3.000
         4.250
  16996790.937 5  13244222.861 5  23568251.294    23568264.302           7.500
         9.500
 99  3  8 20 13 45.0010000  0  6G 2G 7G 4G 9G26G27
   4527800.704 6   3528145.752 6  22062338.724    22062347.481          19.750
        18.000
   -835338.007 6   -649351.864 6  20961479.263    20961486.899          19.000
        23.000
  -9407646.076 6  -7299103.398 6  22231353.021    22231361.966          13.500
        15.250
  -6813147.641 6  -5280289.720 6  22821836.091    22821845.860          12.750
        14.000
   2669193.625 1   2079878.578 4  23828568.817    23828579.099           2.750
         4.250
  17058169.077 5  13292049.820 5  23579931.247    23579944.200           7.500
         9.250
 99  3  8 20 14  0.0010000  0  6G 2G 7G 4G 9G26G27
   4551563.925 6   3546662.510 6  22066860.583    22066869.583          19.500
        18.000
   -810583.884 6   -630062.957 6  20966189.677    20966197.325          19.000
        23.000
  -9444921.498 6  -7328149.119 6  22224259.349    22224268.431          13.500
        15.500
  -6845514.467 6  -5305510.599 6  22815677.036    22815685.450          13.000
        13.000
   2704540.525 1   2107421.557 4  23835295.349    23835305.341           2.750
         4.000
  17119608.583 5  13339924.587 5  23591622.950    23591635.618           7.500
         9.000
 99  3  8 20 14 15.0010000  0  6G 2G 7G 4G 9G26G27
   4575385.680 6   3565224.895 6  22071393.708    22071402.696          19.500
        18.000
   -785752.148 6   -610713.576 6  20970914.935    20970922.544          18.750
        22.750
  -9482107.744 6  -7357125.358 6  22217183.231    22217192.345          13.500
        15.750
  -6877796.680 6  -5330665.549 6  22809533.786    22809542.407          13.000
        12.750
   2739969.484 1   2135028.502 4  23842037.028    23842047.255           2.500
         3.750
  17181105.922 4  13387844.432 5  23603325.591    23603338.181           7.250
         8.750
 99  3  8 20 14 30.0010000  0  6G 2G 7G 4G 9G26G27
   4599269.821 6   3583835.884 6  22075938.708    22075947.919          19.500
        18.000
   -760837.022 6   -591299.206 6  20975656.302    20975663.860          18.750
        22.750
  -9519199.378 6  -7386027.864 6  22210125.013    22210133.958          13.500
        15.750
  -6909989.618 6  -5355750.919 6  22803407.536    22803416.700          12.750
        13.000
   2775486.512 1   2162704.020 3  23848795.669    23848806.075           2.250
         3.250
  17242666.611 4  13435813.634 5  23615040.552    23615053.446           7.250
         8.750
 99  3  8 20 14 45.0010000  0  6G 2G 7G 4G 9G26G27
   4623214.478 6   3602494.027 6  22080495.442    22080504.407          19.500
        18.000
   -735839.452 6   -571820.597 6  20980413.263    20980420.751          19.000
        22.750
  -9556197.800 6  -7414857.745 6  22203084.333    22203093.208          14.000
        15.750
  -6942095.701 6  -5380768.617 6  22797297.700    22797306.837          12.750
        12.750
   2811090.298 1   2190447.152 3  23855571.356    23855581.153           2.250
         3.000
  17304290.277 4  13483831.898 5  23626766.927    23626779.981           7.000
         8.250
 99  3  8 20 15  0.0010000  0  6G 2G 7G 4G 9G26G27
   4647215.822 6   3621196.346 6  22085062.778    22085071.880          19.250
        17.750
   -710763.012 6   -552280.534 6  20985185.200    20985192.599          19.000
        22.750
  -9593104.376 6  -7443616.050 6  22196061.271    22196070.169          14.000
        15.750
  -6974120.984 6  -5405723.348 6  22791204.552    22791212.505          14.000
        12.750
   2846777.613 1   2218255.393 3  23862362.677    23862372.462           2.000
         2.750
  17365972.963 4  13531896.173 5  23638505.341    23638517.954           7.000
         8.250
 99  3  8 20 15 15.0010000  0  6G 2G 7G 4G 9G26G27
   4671276.425 6   3639944.845 6  22089641.302    22089650.243          19.250
        17.750
   -685606.074 6   -532677.744 6  20989972.419    20989979.696          19.000
        22.500
  -9629916.585 6  -7472300.832 6  22189056.091    22189064.899          14.250
        15.750
  -7006063.646 6  -5430613.700 6  22785126.067    22785134.177          14.000
        13.000
                   2246126.626 3                  22785136.103           2.500

  17427711.876 4  13580004.238 5  23650253.333    23650266.813           6.750
         8.500
 99  3  8 20 15 30.0010000  0  6G 2G 7G 4G 9G26G27
   4695389.636 6   3658734.332 6  22094229.841    22094238.810          19.250
        17.500
   -660378.035 6   -513019.542 6  20994773.302    20994780.556          19.000
        22.500
  -9666637.457 6  -7500914.439 6  22182068.325    22182077.095          14.500
        15.750
  -7037927.231 6  -5455442.446 6  22779062.489    22779070.255          14.000
        12.500
                   2274055.076 2                  22779073.388           2.000

  17489500.560 4  13628151.090 5  23662012.036    23662024.860           6.750
         8.250
 99  3  8 20 15 45.0010000  0  5G 2G 7G 4G 9G27
   4719568.952 6   3677575.327 6  22098830.989    22098840.075          19.250
        17.500
   -635069.939 6   -493298.968 6  20999589.302    20999596.614          19.000
        22.250
  -9703253.921 6  -7529446.695 6  22175100.380    22175109.067          14.750
        16.000
  -7069700.777 6  -5480201.020 6  22773015.919    22773024.642          13.500
        13.000
  17551350.374 4  13676345.579 5  23673781.481    23673794.896           6.500
         8.250
 99  3  8 20 16  0.0010000  0  5G 2G 7G 4G 9G27
   4743809.643 6   3696464.150 6  22103443.755    22103452.798          19.000
        17.250
   -609684.239 6   -473517.916 6  21004420.099    21004427.317          19.000
        22.250
  -9739770.086 6  -7557900.790 6  22168151.614    22168160.392          15.000
        16.000
  -7101388.357 6  -5504892.610 6  22766986.513    22766994.493          14.500
        13.250
  17613259.127 4  13724585.985 5  23685562.317    23685575.720           6.500
         8.250
 99  3  8 20 16 15.0010000  0  5G 2G 7G 4G 9G27
   4768102.519 6   3715393.636 6  22108066.606    22108075.528          18.750
        17.000
   -584231.009 6   -453684.254 6  21009263.575    21009270.767          19.000
        22.250
  -9776194.462 6  -7586283.359 6  22161220.216    22161228.978          15.000
        16.000
  -7132997.881 6  -5529523.385 6  22760971.247    22760979.450          14.500
        13.500
  17675217.686 4  13772865.215 5  23697353.106    23697365.954           6.750
         8.250
 99  3  8 20 16 30.0010000  0  5G 2G 7G 4G 9G27
   4792450.045 6   3734365.706 6  22112699.716    22112708.606          18.750
        17.000
   -558706.214 6   -433794.816 6  21014120.817    21014128.071          18.750
        22.250
  -9812524.232 6  -7614592.213 6  22154306.880    22154315.454          15.250
        16.000
  -7164522.090 6  -5554087.666 6  22754971.185    22754981.095          13.250
        14.000
  17737229.578 4  13821185.978 5  23709153.114    23709166.817           6.500
         8.250
 99  3  8 20 16 45.0010000  0  5G 2G 7G 4G 9G27
   4816845.283 6   3753374.954 6  22117342.036    22117350.802          18.750
        16.750
   -533114.369 6   -413853.134 6  21018990.716    21018998.032          18.750
        22.000
  -9848767.290 6  -7642833.501 6  22147410.122    22147418.708          15.250
        16.000
  -7195964.498 6  -5578588.206 6  22748988.872    22748997.614          14.250
        13.750
  17799287.691 4  13869542.773 5  23720963.271    23720976.321           6.500
         8.500
 99  3  8 20 17  0.0010000  0  5G 2G 7G 4G 9G27
   4841293.724 6   3772425.652 6  22121994.489    22122003.333          18.750
        16.750
   -507449.546 6   -393854.590 6  21023874.513    21023881.989          18.750
        22.250
  -9884916.577 6  -7671001.712 6  22140531.013    22140539.587          15.250
        16.000
  -7227315.831 6  -5603017.790 6  22743023.067    22743031.821          14.500
        14.000
  17861398.900 4  13917940.943 5  23732782.224    23732795.849           6.250
         8.250
 99  3  8 20 17 15.0010000  0  5G 2G 7G 4G 9G27
   4865800.426 6   3791521.762 6  22126657.966    22126666.825          18.750
        16.750
   -481707.437 6   -373795.813 6  21028773.044    21028780.552          18.750
        22.000
  -9920968.917 6  -7699094.396 6  22133670.286    22133678.903          15.250
        16.250
  -7258571.549 6  -5627372.872 6  22737075.114    22737083.548          14.250
        13.500
  17923564.300 4  13966381.329 5  23744612.380    23744625.481           6.500
         8.250
 99  3  8 20 17 30.0010000  0  5G 2G 7G 4G 9G27
   4890362.087 6   3810660.688 6  22131331.919    22131340.829          18.750
        16.750
   -455893.064 6   -353680.732 6  21033685.255    21033692.673          18.750
        22.000
  -9956929.483 6  -7727115.552 6  22126827.208    22126835.876          15.250
        16.000
  -7289735.295 6  -5651656.285 6  22731145.231    22731152.603          14.500
        13.250
  17985779.898 4  14014860.839 5  23756451.614    23756465.212           6.250
         8.250
 99  3  8 20 17 45.0010000  0  5G 2G 7G 4G 9G27
   4914978.141 6   3829842.003 6  22136016.317    22136025.056          18.750
        16.750
   -430009.777 6   -333511.953 6  21038610.864    21038618.325          18.750
        22.000
  -9992801.007 6  -7755067.333 6  22120001.122    22120009.794          15.250
        16.250
  -7320810.801 6  -5675870.939 6  22725231.349    22725239.919          14.500
        14.000
  18048044.481 4  14063378.526 5  23768300.677    23768313.786           6.500
         8.250
 99  3  8 20 18  0.0010000  0  5G 2G 7G 4G 9G27
   4939651.143 6   3849067.688 6  22140711.552    22140720.384          18.750
        16.750
   -404054.965 6   -313287.441 6  21043550.060    21043557.411          19.000
        22.000
 -10028584.843 6  -7782950.788 6  22113191.536    22113200.095          15.250
        16.250
  -7351795.139 6  -5700014.541 6  22719335.833    22719343.860          15.000
        14.500
  18110356.629 4  14111933.253 5  23780158.255    23780171.907           6.250
         8.500
 99  3  8 20 18 15.0010000  0  5G 2G 7G 4G 9G27
   4964375.962 6   3868333.757 6  22145416.302    22145425.130          18.750
        16.750
   -378037.726 6   -293014.280 6  21048500.997    21048508.255          19.250
        22.000
 -10064287.908 6  -7810771.295 6  22106397.403    22106406.056          15.250
        16.250
  -7382694.032 6  -5724091.579 6  22713455.778    22713464.036          14.750
        14.250
  18172709.696 4  14160519.859 5  23792023.489    23792037.325           6.250
         8.500
 99  3  8 20 18 30.0010000  0  5G 2G 7G 4G 9G27
   4989165.698 6   3887650.405 6  22150133.771    22150142.716          18.750
        16.500
   -351947.710 6   -272684.413 6  21053465.786    21053473.048          19.250
        22.000
 -10099898.741 6  -7838519.941 6  22099620.849    22099629.563          15.250
        16.250
  -7413493.941 6  -5748091.468 6  22707594.208    22707603.095          14.250
        14.500
  18235116.778 4  14209148.573 5  23803899.958    23803913.142           6.500
         8.250
 99  3  8 20 18 45.0010000  0  5G 2G 7G 4G 9G27
   5014017.386 6   3907015.328 6  22154863.044    22154871.853          18.750
        16.500
   -325787.837 6   -252300.114 6  21058443.880    21058451.134          19.250
        22.000
 -10135422.024 6  -7866200.366 6  22092860.966    22092869.509          15.250
        16.250
  -7444199.054 6  -5772017.500 6  22701751.489    22701759.845          14.500
        14.250
  18297575.740 4  14257817.721 5  23815785.146    23815798.743           6.500
         8.500
 99  3  8 20 19  0.0010000  0  5G 2G 7G 4G 9G27
   5038932.285 6   3926429.514 6  22159604.356    22159613.118          18.750
        16.500
   -299558.480 6   -231861.667 6  21063435.185    21063442.474          19.250
        22.000
 -10170853.411 6  -7893809.180 6  22086118.442    22086127.087          15.500
        16.250
  -7474809.829 6  -5795870.023 6  22695926.067    22695935.079          14.250
        14.500
  18360086.986 4  14306527.590 5  23827680.552    23827694.481           6.250
         8.500
 99  3  8 20 19 15.0010000  0  5G 2G 7G 4G 9G27
   5063909.758 6   3945892.450 6  22164357.411    22164366.021          18.750
        16.500
   -273262.875 6   -211371.601 6  21068438.989    21068446.372          19.250
        22.250
 -10206192.570 6  -7921346.135 6  22079393.653    22079402.247          15.750
        16.500
  -7505331.169 6  -5819652.852 6  22690118.825    22690126.728          14.750
        14.250
  18422648.439 4  14355276.594 5  23839586.099    23839599.845           6.500
         8.750
 99  3  8 20 19 30.0010000  0  5G 2G 7G 4G 9G27
   5088939.192 6   3965395.874 6  22169120.294    22169128.970          18.750
        16.500
   -246914.075 6   -190840.089 6  21073453.013    21073460.407          19.250
        22.000
 -10241450.414 6  -7948819.726 6  22072684.481    22072692.876          16.000
        16.500
  -7535774.914 6  -5843375.228 6  22684325.606    22684334.060          14.750
        14.750
  18485247.382 4  14404054.789 5  23851498.419    23851512.353           6.500
         8.750
 99  3  8 20 19 45.0010000  0  5G 2G 7G 4G 9G27
   5114025.547 6   3984943.655 6  22173893.942    22173902.696          18.500
        16.500
   -220505.894 6   -170262.304 6  21078478.349    21078485.771          19.250
        22.000
 -10276619.041 6  -7976223.792 6  22065991.974    22066000.286          16.250
        16.500
  -7566132.368 6  -5867030.349 6  22678548.200    22678556.782          14.250
        14.750
  18547891.588 4  14452868.276 5  23863419.075    23863432.978           6.500
         8.500
 99  3  8 20 20  0.0010000  0  5G 2G 7G 4G 9G27
   5139176.326 6   4004541.640 6  22178680.028    22178688.872          18.500
        16.500
   -194029.765 6   -149631.569 6  21083516.567    21083524.001          19.250
        22.250
 -10311690.468 6  -8003552.126 6  22059318.028    22059326.419          16.250
        16.500
  -7596392.626 6  -5890609.733 6  22672789.599    22672798.501          14.500
        14.750
  18610587.174 4  14501721.786 5  23875350.122    23875363.696           6.500
         8.500
 99  3  8 20 20 15.0010000  0  5G 2G 7G 4G 9G27
   5164400.050 6   4024196.466 6  22183480.146    22183488.837          18.500
        16.250
   -167477.836 6   -128941.773 6  21088569.153    21088576.638          19.250
        22.250
 -10346654.016 6  -8030796.400 6  22052664.724    22052673.071          16.500
        16.500
  -7626545.697 6  -5914105.609 6  22667052.138    22667060.271          14.750
        14.250
  18673342.775 4  14550622.066 5  23887292.271    23887306.021           6.750
         8.500
 99  3  8 20 20 30.0010000  0  5G 2G 7G 4G 9G27
   5189685.878 6   4043899.682 6  22188291.731    22188300.435          18.250
        16.250
   -140861.336 6   -108201.657 6  21093634.200    21093641.720          19.250
        22.000
 -10381517.006 6  -8057962.313 6  22046030.536    22046038.978          16.500
        16.750
  -7656602.333 6  -5937526.325 6  22661333.052    22661341.157          15.250
        14.750
  18736149.500 4  14599562.177 5  23899243.919    23899258.052           6.750
         8.750
 99  3  8 20 20 45.0010000  0  5G 2G 7G 4G 9G27
   5215039.356 6   4063655.611 6  22193116.372    22193125.200          18.250
        16.250
   -114172.524 6    -87405.197 6  21098712.989    21098720.411          19.250
        22.250
 -10416273.675 6  -8085045.379 6  22039416.583    22039424.837          16.500
        16.750
  -7686555.533 6  -5960866.456 6  22655632.802    22655641.122          15.250
        14.500
  18799008.374 4  14648542.916 5  23911206.169    23911220.091           6.750
         8.750
 99  3  8 20 21  0.0010000  0  5G 2G 7G 4G 9G27
   5240453.487 6   4083458.801 6  22197952.388    22197961.306          18.000
        16.250
    -87417.816 6    -66557.393 6  21103804.239    21103811.599          19.250
        22.250
 -10450928.819 6  -8112049.334 6  22032821.950    22032830.118          16.500
        16.750
  -7716412.970 6  -5984131.955 6  22649950.606    22649959.118          14.750
        14.500
  18861908.854 4  14697556.088 5  23923175.356    23923189.403           6.500
         8.750
 99  3  8 20 21 15.0010000  0  5G 2G 7G 4G 9G27
   5265946.519 6   4103323.474 6  22202803.591    22202812.450          18.000
        16.250
    -60578.199 6    -45643.423 6  21108911.606    21108919.036          19.250
        22.250
 -10485465.080 6  -8138960.664 6  22026249.856    22026258.118          16.500
        17.000
  -7746154.991 6  -6007307.523 6  22644290.677    22644298.907          14.750
        14.250
  18924870.240 4  14746616.709 5  23935157.208    23935171.157           7.250
         8.750
 99  3  8 20 21 30.0010000  0  5G 2G 7G 4G 9G27
   5291518.117 6   4123249.373 6  22207669.567    22207678.708          17.750
        16.250
    -33651.898 6    -24661.902 6  21114035.294    21114042.763          19.500
        22.250
 -10519885.714 6  -8165781.889 6  22019699.646    22019707.907          16.500
        17.000
  -7775779.673 6  -6030391.656 6  22638652.942    22638661.735          14.500
        14.500
  18987893.522 4  14795725.570 5  23947149.958    23947163.872           6.750
         8.500
 99  3  8 20 21 45.0010000  0  5G 2G 7G 4G 9G27
   5317165.662 6   4143234.445 6  22212550.052    22212559.345          17.750
        16.250
     -6643.035 6     -3616.051 6  21119175.169    21119182.700          19.500
        22.250
 -10554197.888 6  -8192518.593 6  22013170.208    22013178.419          16.250
        17.000
  -7805289.120 6  -6053385.992 6  22633037.466    22633046.298          14.750
        14.500
  19050973.909 4  14844878.916 5  23959153.731    23959168.739           6.500
         9.000
 99  3  8 20 22  0.0010000  0  5G 2G 7G 4G 9G27
   5342886.977 6   4163276.997 6  22217444.731    22217453.927          17.750
        16.250
     20446.634 6     17492.768 6  21124330.185    21124337.786          19.500
        22.250
 -10588405.958 6  -8219174.188 6  22006660.497    22006668.849          16.250
        17.500
  -7834688.077 6  -6076294.245 6  22627443.450    22627451.556          15.250
        14.250
  19114107.429 4  14894073.657 5  23971168.450    23971182.669           6.750
         9.000
 99  3  8 20 22 15.0010000  0  5G 2G 7G 4G 9G27
   5368682.377 6   4183377.288 6  22222353.521    22222362.778          17.750
        16.250
     47615.120 6     38663.001 6  21129500.224    21129507.688          19.750
        22.250
 -10622509.903 6  -8245748.644 6  22000170.528    22000179.032          16.000
        17.500
  -7863979.528 6  -6099118.725 6  22621869.442    22621877.321          15.250
        14.250
  19177291.015 4  14943307.433 5  23983191.224    23983206.040           6.500
         8.750
 99  3  8 20 22 30.0010000  0  5G 2G 7G 4G 9G27
   5394550.484 6   4203534.226 6  22227275.911    22227285.196          17.500
        16.250
     74864.389 6     59896.179 6  21134685.638    21134693.056          19.750
        22.250
 -10656506.270 6  -8272239.274 6  21993701.278    21993709.786          16.000
        17.750
  -7893165.974 6  -6121861.392 6  22616315.216    22616323.606          15.250
        14.500
  19240527.372 4  14992582.316 5  23995225.036    23995239.790           6.750
         8.750
 99  3  8 20 22 45.0010000  0  5G 2G 7G 4G 9G27
   5420488.783 6   4223745.857 6  22232211.896    22232221.087          17.500
        16.250
    102196.447 7     81193.872 6  21139886.841    21139894.247          20.000
        22.250
 -10690397.663 6  -8298648.099 6  21987251.942    21987260.399          16.000
        18.000
  -7922250.187 6  -6144524.379 6  22610780.911    22610788.892          15.250
        14.500
  19303815.708 4  15041897.706 5  24007268.583    24007283.321           6.500
         8.500
 99  3  8 20 23  0.0010000  0  5G 2G 7G 4G 9G27
   5446487.581 6   4244004.631 6  22237159.294    22237168.563          17.750
        16.250
    129604.046 7    102550.422 6  21145102.310    21145109.661          20.000
        22.250
 -10724194.481 6  -8324983.237 6  21980820.669    21980829.161          16.000
        18.250
  -7951243.181 6  -6167116.298 6  22605264.466    22605272.267          16.250
        15.000
  19367147.878 4  15091247.244 5  24019320.700    24019335.204           6.500
         8.500
 99  3  8 20 23 15.0010000  0  5G 2G 7G 4G 9G27
   5472554.576 6   4264316.549 6  22242119.856    22242128.989          17.750
        16.250
    157094.479 7    123971.527 6  21150333.427    21150340.720          20.000
        22.250
 -10757887.874 6  -8351237.781 6  21974408.935    21974417.372          16.000
        18.250
  -7980138.006 6  -6189631.724 6  22599765.560    22599773.849          16.250
        15.500
  19430535.882 4  15140640.297 5  24031382.927    24031397.704           6.250
         8.750
 99  3  8 20 23 30.0010000  0  5G 2G 7G 4G 9G27
   5498678.996 6   4284673.208 6  22247091.310    22247100.478          18.000
        16.250
    184655.313 7    145447.479 6  21155578.403    21155585.649          20.000
        22.250
 -10791489.331 6  -8377420.688 6  21968014.731    21968023.321          16.250
        18.500
  -8008943.299 6  -6212077.369 6  22594283.716    22594292.106          15.250
        15.250
  19493969.181 4  15190068.631 5  24043454.231    24043468.954           6.250
         8.750
 99  3  8 20 23 45.0010000  0  5G 2G 7G 4G 9G27
   5524860.254 6   4305074.158 6  22252073.661    22252082.606          18.000
        16.250
    212282.758 7    166975.348 6  21160835.622    21160842.997          20.000
        22.250
 -10824996.531 6  -8403530.149 6  21961638.489    21961646.935          16.250
        18.500
  -8037660.753 6  -6234454.570 6  22588818.966    22588827.099          15.750
        15.000
  19557443.695 4  15239529.087 5  24055533.208    24055547.806           6.250
         8.250
 99  3  8 20 24  0.0010000  0  5G 2G 7G 4G 9G27
   5551105.168 6   4325524.710 6  22257067.747    22257076.810          18.000
        16.000
    239983.893 7    188560.637 6  21166107.028    21166114.341          20.000
        22.250
 -10858398.011 6  -8429557.233 6  21955282.481    21955290.860          16.250
        18.500
  -8066282.562 6  -6256757.247 6  22583372.724    22583380.896          16.000
        15.500
  19620967.223 3  15289027.735 5  24067621.138    24067636.138           6.000
         8.250
 99  3  8 20 24 15.0010000  0  5G 2G 7G 4G 9G27
   5577406.915 6   4346019.548 6  22262072.966    22262081.810          18.000
        16.000
    267755.364 7    210200.723 6  21171391.513    21171398.771          20.000
        22.250
 -10891691.592 6  -8455500.241 6  21948946.864    21948955.263          16.500
        18.500
  -8094809.835 6  -6278986.262 6  22577944.294    22577952.251          16.500
        15.500
  19684538.816 3  15338563.834 5  24079718.958    24079733.474           6.000
         8.000
 99  3  8 20 24 30.0010000  0  5G 2G 7G 4G 9G27
   5603762.894 6   4366556.633 6  22267088.294    22267097.149          18.000
        16.000
    295595.854 6    231894.593 6  21176689.606    21176697.001          19.750
        22.250
 -10924876.650 6  -8481358.691 6  21942631.911    21942640.313          16.500
        18.500
  -8123242.823 6  -6301141.811 6  22572532.997    22572541.435          15.750
        15.250
  19748160.701 3  15388139.128 5  24091825.755    24091840.606           6.000
         8.000
 99  3  8 20 24 45.0010000  0  5G 2G 7G 4G 9G27
   5630177.283 6   4387139.246 6  22272114.802    22272123.685          18.250
        15.750
    323506.042 6    253642.776 6  21182000.841    21182008.231          19.750
        22.250
 -10957955.353 6  -8507134.254 6  21936337.169    21936345.438          16.500
        18.250
  -8151578.842 6  -6323221.793 6  22567141.216    22567149.505          16.000
        15.750
  19811837.409 3  15437757.140 5  24103943.450    24103957.970           6.000
         8.000
 99  3  8 20 25  0.0010000  0  5G 2G 7G 4G 9G27
   5656647.309 6   4407765.212 6  22277151.903    22277160.739          18.000
        15.750
    351476.395 6    275437.839 6  21187323.231    21187330.646          19.500
        22.250
 -10990935.533 6  -8532833.059 6  21930061.263    21930069.618          16.500
        18.250
  -8179819.273 6  -6345227.293 6  22561767.208    22561775.583          16.250
        15.750
  19875559.791 3  15487410.732 5  24116069.060    24116084.415           5.500
         8.000
 99  3  8 20 25 15.0010000  0  5G 2G 7G 4G 9G27
   5683177.207 6   4428437.821 6  22282200.599    22282209.306          18.250
        15.750
    379504.730 6    297278.084 6  21192656.606    21192664.216          19.500
        22.250
 -11023813.368 6  -8558452.111 6  21923804.794    21923813.099          16.500
        18.000
  -8207959.152 6  -6367154.444 6  22556412.989    22556420.368          17.000
        15.500
  19939329.898 3  15537101.495 5  24128204.786    24128219.325           5.750
         7.750
 99  3  8 20 25 30.0010000  0  5G 2G 7G 4G 9G27
   5709762.351 6   4449153.489 6  22287259.521    22287268.247          18.250
        15.500
    407584.173 6    319158.153 6  21198000.028    21198007.692          19.500
        22.500
 -11056593.645 6  -8583995.143 6  21917566.817    21917575.196          16.500
        18.000
  -8236000.917 6  -6389005.142 6  22551076.231    22551084.337          16.500
        15.750
  20003141.755 3  15586824.842 5  24140347.567    24140363.056           5.750
         7.750
 99  3  8 20 25 45.0010000  0  5G 2G 7G 4G 9G27
   5736407.917 6   4469916.227 6  22292330.106    22292338.868          18.250
        15.750
    435718.554 6    341081.031 6  21203353.911    21203361.603          19.250
        22.250
 -11089270.787 6  -8609457.815 6  21911348.575    21911356.813          16.500
        17.750
  -8263940.683 6  -6410776.351 6  22545759.106    22545767.560          16.250
        15.750
  20066999.682 3  15636584.052 5  24152499.380    24152514.845           5.500
         7.750
 99  3  8 20 26  0.0010000  0  5G 2G 7G 4G 9G27
   5763116.599 6   4490728.151 6  22297412.630    22297421.466          18.000
        15.500
    463912.149 6    363050.046 6  21208718.935    21208726.716          19.250
        22.500
 -11121841.096 6  -8634837.240 6  21905150.528    21905158.876          16.500
        17.750
  -8291777.234 6  -6432467.153 6  22540462.474    22540470.450          16.750
        15.750
  20130907.444 3  15686382.102 5  24164661.075    24164676.274           5.250
         7.500
 99  3  8 20 26 15.0010000  0  5G 2G 7G 4G 9G27
   5789892.878 6   4511592.749 6  22302507.942    22302516.853          18.000
        15.500
    492170.256 6    385069.334 6  21214096.255    21214103.970          19.250
        22.500
 -11154303.582 6  -8660132.641 6  21898973.177    21898981.396          16.250
        17.500
  -8319507.187 6  -6454074.878 6  22535184.974    22535193.802          16.500
        15.750
  20194870.785 3  15736223.448 5  24176833.153    24176848.017           5.500
         7.500
 99  3  8 20 26 30.0010000  0  5G 2G 7G 4G 9G27
   5816732.504 6   4532506.701 6  22307615.317    22307624.310          18.000
        15.500
    520485.656 6    407133.266 6  21219484.450    21219492.149          19.500
        22.500
 -11186667.788 6  -8685351.468 6  21892814.474    21892822.708          16.250
        17.500
  -8347140.451 6  -6475607.261 6  22529926.606    22529935.208          16.500
        15.750
  20258879.070 3  15786099.847 5  24189013.442    24189028.923           5.000
         7.250
 99  3  8 20 26 45.0010000  0  5G 2G 7G 4G 9G27
   5843641.906 6   4553475.032 6  22312736.013    22312744.884          17.750
        15.500
    548859.032 6    429242.371 6  21224883.692    21224891.341          19.500
        22.500
 -11218933.500 6  -8710493.540 6  21886674.372    21886682.548          16.000
        17.500
  -8374676.024 6  -6497063.524 6  22524686.981    22524695.259          17.000
        15.500
  20322934.304 3  15836012.797 5  24201202.755    24201218.224           5.000
         7.000
 99  3  8 20 27  0.0010000  0  5G 2G 7G 4G 9G27
   5870623.482 6   4574499.597 6  22317870.435    22317879.259          17.750
        15.250
    577294.963 6    451400.223 6  21230295.122    21230302.739          19.500
        22.250
 -11251094.852 6  -8735554.296 6  21880554.231    21880562.438          16.000
        17.500
  -8402108.615 6  -6518439.539 6  22519467.028    22519475.325          17.500
        15.750
  20387035.315 3  15885961.433 5  24213401.583    24213416.837           5.500
         7.250
 99  3  8 20 27 15.0010000  0  5G 2G 7G 4G 9G27
   5897674.036 6   4595577.916 6  22323018.083    22323026.774          17.750
        15.250
    605795.645 6    473608.525 6  21235718.708    21235726.231          19.750
        22.250
 -11283146.835 6  -8760529.823 6  21874454.950    21874463.243          16.000
        17.750
  -8429437.898 6  -6539735.059 6  22514266.435    22514274.345          17.500
        15.500
  20451180.355 3  15935944.373 5  24225607.122    24225623.231           5.000
         7.250
 99  3  8 20 27 30.0010000  0  5G 2G 7G 4G 9G27
   5924789.654 6   4616706.927 6  22328178.013    22328186.966          17.750
        15.250
    634362.634 6    495868.493 6  21241154.942    21241162.360          19.750
        22.250
 -11315090.572 6  -8785421.005 6  21868376.403    21868384.618          16.250
        17.750
  -8456667.685 6  -6560953.040 6  22509084.317    22509092.302          17.000
        15.000
  20515365.943 3  15985958.888 5  24237821.692    24237837.470           5.000
         7.250
 99  3  8 20 27 45.0010000  0  5G 2G 7G 4G 9G27
   5951976.459 6   4637891.409 6  22333351.372    22333360.524          17.500
        15.500
    663004.481 6    518186.795 6  21246605.263    21246612.716          19.750
        22.000
 -11346916.284 6  -8810220.216 6  21862320.114    21862328.228          16.500
        18.000
  -8483789.377 6  -6582086.801 6  22503923.294    22503931.544          17.500
        15.250
  20579596.213 3  16036008.252 5  24250044.560    24250060.048           5.250
         6.500
 99  3  8 20 28  0.0010000  0  5G 2G 7G 4G 9G27
   5979229.294 6   4659127.342 6  22338537.474    22338546.614          17.500
        15.500
    691718.010 6    540560.946 6  21252069.302    21252076.696          19.750
        22.000
 -11378624.755 6  -8834928.072 6  21856286.153    21856294.220          16.750
        18.250
  -8510807.325 6  -6603139.724 6  22498781.653    22498789.829          17.250
        15.000
  20643863.921 3  16086086.780 5  24262274.724    24262289.755           5.500
         6.750
 99  3  8 20 28 15.0010000  0  5G 2G 7G 4G 9G27
   6006550.959 6   4680416.906 6  22343736.606    22343745.833          17.500
        15.250
    720505.801 6    562992.961 6  21257547.364    21257554.860          19.500
        22.000
 -11410214.591 6  -8859543.481 6  21850274.771    21850282.817          17.000
        18.250
  -8537717.594 6  -6624108.741 6  22493661.130    22493668.821          17.500
        15.250
  20708168.545 3  16136194.079 5  24274511.286    24274527.333           5.250
         7.250
 99  3  8 20 28 30.0010000  0  5G 2G 7G 4G 9G27
   6033939.481 6   4701758.576 6  22348948.497    22348957.708          17.000
        15.500
    749363.781 6    585479.678 6  21263038.856    21263046.216          19.250
        21.750
 -11441687.812 6  -8884068.024 6  21844285.606    21844293.653          17.000
        18.500
  -8564521.709 6  -6644995.037 6  22488560.567    22488567.993          17.500
        15.000
  20772506.012 2  16186326.959 5  24286754.099    24286770.575           4.750
         7.000
 99  3  8 20 28 45.0010000  0  5G 2G 7G 4G 9G27
   6061392.245 6   4723150.290 6  22354172.700    22354181.978          17.500
        15.750
    778290.665 6    608020.077 6  21268543.364    21268550.872          19.000
        21.750
 -11473043.592 6  -8908501.058 6  21838318.919    21838326.896          17.500
        19.000
  -8591219.626 6  -6665798.583 6  22483479.864    22483487.513          17.750
        15.000
  20836874.770 3  16236484.219 5  24299003.880    24299019.524           5.250
         6.750
 99  3  8 20 29  0.0010000  0  5G 2G 7G 4G 9G27
   6088919.740 6   4744600.242 6  22359410.958    22359420.321          17.250
        15.750
    807299.904 6    630624.654 6  21274063.692    21274071.278          18.750
        21.750
 -11504266.785 6  -8932830.769 6  21832377.310    21832385.337          17.750
        19.250
  -8617794.307 6  -6686506.100 6  22478422.560    22478430.661          17.750
        15.250
  20901286.515 3  16286674.998 5  24311261.560    24311276.966           5.750
         6.750
 99  3  8 20 29 15.0010000  0  5G 2G 7G 4G 9G27
   6116498.302 6   4766089.988 6  22364659.044    22364668.290          17.500
        15.750
    836369.141 6    653275.984 6  21279595.372    21279602.993          18.750
        21.750
 -11535381.904 6  -8957076.270 6  21826456.271    21826464.243          17.750
        19.250
  -8644268.619 6  -6707135.417 6  22473384.958    22473393.075          17.750
        15.500
  20965716.914 3  16336880.281 5  24323521.567    24323537.974           5.000
         6.750
 99  3  8 20 29 30.0010000  0  5G 2G 7G 4G 9G27
   6144106.378 6   4787602.724 6  22369912.755    22369921.903          17.250
        15.500
    865471.281 6    675952.948 6  21285133.310    21285140.935          19.250
        21.750
 -11566414.482 6  -8981257.452 6  21820550.724    21820558.837          18.000
        19.500
  -8670667.607 6  -6727706.033 6  22468361.481    22468368.700          18.000
        14.750
  21030144.022 3  16387083.016 5  24335781.856    24335798.267           5.500
         6.750
 99  3  8 20 29 45.0010000  0  5G 2G 7G 4G 9G27
   6171736.698 6   4809132.791 6  22375170.833    22375179.966          17.500
        15.500
    894595.905 6    698647.440 6  21290675.614    21290683.438          19.000
        22.000
 -11597373.353 6  -9005381.190 6  21814659.544    21814667.677          18.000
        19.500
  -8696999.310 6  -6748224.224 6  22463350.833    22463358.130          17.750
        15.000
  21094560.806 3  16437277.708 5  24348040.778    24348056.196           5.500
         6.750
 99  3  8 20 30  0.0010000  0  5G 2G 7G 4G 9G27
   6199394.358 6   4830684.170 6  22380433.903    22380443.087          17.500
        15.750
    923743.730 6    721360.008 6  21296222.317    21296230.099          19.000
        22.000
 -11628255.724 6  -9029445.328 6  21808782.786    21808790.888          18.000
        19.750
  -8723261.418 6  -6768688.183 6  22458353.349    22458361.212          17.250
        15.500
  21158976.955 3  16487471.912 5  24360298.755    24360314.712           5.500
         6.750
 99  3  8 20 30 15.0010000  0  5G 2G 7G 4G 9G27
   6227088.737 6   4852264.154 6  22385704.005    22385713.192          17.500
        16.000
    952922.441 6    744096.637 6  21301774.856    21301782.728          19.000
        22.000
 -11659060.804 6  -9053449.228 6  21802920.810    21802928.860          18.250
        19.250
  -8749447.546 6  -6789092.932 6  22453369.747    22453377.978          17.000
        16.250
  21223404.447 3  16537674.939 5  24372558.356    24372574.587           5.250
         6.250
 99  3  8 20 30 30.0010000  0  5G 2G 7G 4G 9G27
   6254825.985 6   4873877.551 6  22390982.317    22390991.606          17.750
        15.750
    982135.425 6    766859.979 6  21307333.935    21307341.708          19.500
        21.750
 -11689786.024 6  -9077390.903 6  21797073.872    21797082.032          17.750
        20.000
  -8775550.705 6  -6809433.019 6  22448403.028    22448410.563          16.750
        15.500
  21287851.381 3  16587893.123 5  24384823.005    24384839.282           5.500
         6.500
 99  3  8 20 30 45.0010000  0  4G 2G 7G 4G 9
   6282606.057 6   4895524.302 6  22396268.630    22396277.981          17.250
        15.250
   1011384.900 6    789651.744 6  21312899.919    21312907.810          19.500
        22.000
 -11720428.305 6  -9101267.950 6  21791242.911    21791250.942          17.750
        19.750
  -8801567.854 6  -6829706.117 6  22443451.794    22443459.329          16.750
        15.750
